[[{"header":{"parameterUnit":"m.s-1","parameterCategory":1,"la1":30.6,"la2":29.2853,"lo1":-89.7004,"lo2":-87.6739,"dy":0.0162,"dx":0.0183,"nx":112,"ny":82,"refTime":"2023-09-29T18:00:00:Z","depth":0,"parameterNumber":2,"parameterNumberName":"U-component_of_WINDS"},"data":[0.0,0.0,0.0,0.0,0.0,0.0,0.0,0.0,0.0,0.0,0.0,0.0,0.0,0.0,0.0,0.0,0.0,0.0,0.0,0.0,0.0,0.0,0.0,0.0,0.0,0.0,0.0,0.0,0.0,0.0,0.0,0.0,0.0,0.0,0.0,0.0,0.0,0.0,0.0,0.0,0.0,0.0,0.0,0.0,0.0,0.0,0.0,0.0,0.0,0.0,0.0,0.0,0.0,0.0,0.0,0.0,0.0,0.0,0.0,0.0,0.0,0.0,0.0,0.0,0.0,0.0,0.0,0.0,0.0,0.0,0.0,0.0,0.0,0.0,0.0,0.0,0.0,0.0,0.0,0.0,0.0,0.0,0.0,0.0,0.0,0.0,0.0,0.0,0.0,0.0,0.0,2.7376,2.8239,2.8364,2.7125,2.6061,2.4206,2.1213,0.0,0.0,0.0,0.0,0.0,0.0,0.0,0.0,0.0,0.0,0.0,0.0,0.0,0.0,0.0,0.0,0.0,0.0,0.0,0.0,0.0,0.0,0.0,0.0,0.0,0.0,0.0,0.0,0.0,0.0,0.0,0.0,0.0,0.0,0.0,0.0,0.0,0.0,0.0,0.0,0.0,0.0,0.0,0.0,0.0,0.0,0.0,0.0,0.0,0.0,0.0,0.0,0.0,0.0,0.0,0.0,0.0,0.0,0.0,0.0,0.0,0.0,0.0,0.0,0.0,0.0,0.0,0.0,0.0,0.0,0.0,0.0,0.0,0.0,0.0,0.0,0.0,0.0,0.0,0.0,0.0,0.0,0.0,0.0,0.0,0.0,0.0,0.0,0.0,0.0,0.0,0.0,0.0,0.0,0.0,0.0,0.0,0.0,0.0,0.0,0.0,0.0,0.0,0.0,2.6651,2.7535,2.7765,2.7746,2.7518,2.5398,2.3251,2.129,0.0,0.0,0.0,0.0,0.0,0.0,0.0,0.0,0.0,0.0,0.0,0.0,0.0,0.0,0.0,0.0,0.0,0.0,0.0,0.0,0.0,0.0,0.0,0.0,0.0,0.0,0.0,0.0,0.0,0.0,0.0,0.0,0.0,0.0,0.0,0.0,0.0,0.0,0.0,0.0,0.0,0.0,0.0,0.0,0.0,0.0,0.0,0.0,0.0,0.0,0.0,0.0,0.0,0.0,0.0,0.0,0.0,0.0,0.0,0.0,0.0,0.0,0.0,0.0,0.0,0.0,0.0,0.0,0.0,0.0,0.0,0.0,0.0,0.0,0.0,0.0,0.0,0.0,0.0,0.0,0.0,0.0,0.0,0.0,0.0,0.0,0.0,0.0,0.0,0.0,0.0,0.0,0.0,0.0,0.0,0.0,0.0,0.0,0.0,0.0,0.0,0.0,0.0,2.5993,2.5907,2.7042,2.7077,2.6884,2.6596,2.5053,2.3398,2.1699,2.1511,0.0,0.0,0.0,0.0,0.0,0.0,0.0,0.0,0.0,0.0,0.0,0.0,0.0,0.0,0.0,0.0,0.0,0.0,0.0,0.0,0.0,0.0,0.0,0.0,0.0,0.0,0.0,0.0,0.0,0.0,0.0,0.0,0.0,0.0,0.0,0.0,0.0,0.0,0.0,0.0,0.0,0.0,0.0,0.0,0.0,0.0,0.0,0.0,0.0,0.0,0.0,0.0,0.0,0.0,0.0,0.0,0.0,0.0,0.0,0.0,0.0,0.0,0.0,0.0,0.0,0.0,0.0,0.0,0.0,0.0,0.0,0.0,0.0,0.0,0.0,0.0,0.0,0.0,0.0,0.0,0.0,0.0,0.0,0.0,0.0,0.0,0.0,0.0,0.0,0.0,0.0,0.0,0.0,0.0,0.0,0.0,0.0,0.0,0.0,0.0,0.0,0.0,2.6368,2.5594,2.6542,2.6442,2.6135,2.5742,2.4625,2.3357,2.1993,2.1075,0.0,0.0,0.0,0.0,0.0,0.0,0.0,0.0,0.0,0.0,0.0,0.0,0.0,0.0,0.0,0.0,0.0,0.0,0.0,0.0,0.0,0.0,0.0,0.0,0.0,0.0,0.0,0.0,0.0,0.0,0.0,0.0,0.0,0.0,0.0,0.0,0.0,0.0,0.0,0.0,0.0,0.0,0.0,0.0,0.0,0.0,0.0,0.0,0.0,0.0,0.0,0.0,0.0,0.0,0.0,0.0,0.0,0.0,0.0,0.0,0.0,0.0,0.0,0.0,0.0,0.0,0.0,0.0,0.0,0.0,0.0,0.0,0.0,0.0,0.0,0.0,0.0,0.0,0.0,0.0,0.0,0.0,0.0,0.0,0.0,0.0,0.0,0.0,0.0,0.0,0.0,0.0,0.0,0.0,0.0,0.0,0.0,0.0,0.0,0.0,0.0,0.0,2.5762,2.5604,2.6414,2.6042,2.5742,2.5693,2.3825,2.2422,2.1914,2.102,0.0,0.0,0.0,0.0,0.0,0.0,0.0,0.0,0.0,0.0,0.0,0.0,0.0,0.0,0.0,0.0,0.0,0.0,0.0,0.0,0.0,0.0,0.0,0.0,0.0,0.0,0.0,0.0,0.0,0.0,0.0,0.0,0.0,0.0,0.0,0.0,0.0,0.0,0.0,0.0,0.0,0.0,0.0,0.0,0.0,0.0,0.0,0.0,0.0,0.0,0.0,0.0,0.0,0.0,0.0,0.0,0.0,0.0,0.0,0.0,0.0,0.0,0.0,0.0,0.0,0.0,0.0,0.0,0.0,0.0,0.0,0.0,0.0,0.0,0.0,0.0,0.0,0.0,0.0,0.0,0.0,0.0,0.0,0.0,0.0,0.0,0.0,0.0,0.0,0.0,0.0,0.0,0.0,0.0,0.0,0.0,0.0,0.0,0.0,0.0,0.0,0.0,2.536,2.5335,0.0,2.5839,2.5693,2.5693,2.4215,2.291,2.1974,0.0,0.0,0.0,0.0,0.0,0.0,0.0,0.0,0.0,0.0,0.0,0.0,0.0,0.0,0.0,0.0,0.0,0.0,0.0,0.0,0.0,0.0,0.0,0.0,0.0,0.0,0.0,0.0,0.0,0.0,0.0,0.0,0.0,0.0,0.0,0.0,0.0,0.0,0.0,0.0,0.0,0.0,0.0,0.0,0.0,0.0,0.0,0.0,0.0,0.0,0.0,0.0,0.0,0.0,0.0,0.0,0.0,0.0,0.0,0.0,0.0,0.0,0.0,0.0,0.0,0.0,0.0,0.0,0.0,0.0,0.0,0.0,0.0,0.0,0.0,0.0,0.0,0.0,0.0,0.0,0.0,0.0,0.0,0.0,0.0,0.0,0.0,0.0,0.0,0.0,0.0,0.0,0.0,0.0,0.0,0.0,0.0,0.0,0.0,0.0,0.0,0.0,2.4986,2.502,2.5207,0.0,2.5693,2.5693,2.5693,2.418,2.2871,2.2129,0.0,0.0,0.0,0.0,0.0,0.0,0.0,0.0,0.0,0.0,0.0,0.0,0.0,0.0,0.0,0.0,0.0,0.0,0.0,0.0,0.0,0.0,0.0,0.0,0.0,0.0,0.0,0.0,0.0,0.0,0.0,0.0,0.0,0.0,0.0,0.0,0.0,0.0,0.0,0.0,0.0,0.0,0.0,0.0,0.0,0.0,0.0,0.0,0.0,0.0,0.0,0.0,0.0,0.0,0.0,0.0,0.0,0.0,0.0,0.0,0.0,0.0,0.0,0.0,0.0,0.0,0.0,0.0,0.0,0.0,0.0,0.0,0.0,0.0,0.0,0.0,0.0,0.0,0.0,0.0,0.0,0.0,0.0,0.0,0.0,0.0,0.0,0.0,0.0,0.0,0.0,0.0,0.0,0.0,0.0,0.0,0.0,0.0,0.0,0.0,0.0,0.0,2.4423,2.4818,2.5278,2.5659,2.5693,2.5693,2.5693,2.3379,2.207,0.0,0.0,0.0,0.0,0.0,0.0,0.0,0.0,0.0,0.0,0.0,0.0,0.0,0.0,0.0,0.0,0.0,0.0,0.0,0.0,0.0,0.0,0.0,0.0,0.0,0.0,0.0,0.0,0.0,0.0,0.0,0.0,0.0,0.0,0.0,0.0,0.0,0.0,0.0,0.0,0.0,0.0,0.0,0.0,0.0,0.0,0.0,0.0,0.0,0.0,0.0,0.0,0.0,0.0,0.0,0.0,0.0,0.0,0.0,0.0,0.0,0.0,0.0,0.0,0.0,0.0,0.0,0.0,0.0,0.0,0.0,0.0,0.0,0.0,0.0,0.0,0.0,0.0,0.0,0.0,0.0,0.0,0.0,0.0,0.0,0.0,0.0,0.0,0.0,0.0,0.0,0.0,0.0,0.0,0.0,0.0,0.0,0.0,0.0,0.0,0.0,0.0,0.0,2.5423,2.5508,2.5562,2.5698,2.5693,2.5693,2.5693,2.3861,2.2791,2.2927,0.0,0.0,0.0,0.0,0.0,0.0,0.0,0.0,0.0,0.0,0.0,0.0,0.0,0.0,0.0,0.0,0.0,0.0,0.0,0.0,0.0,0.0,0.0,0.0,0.0,0.0,0.0,0.0,0.0,0.0,0.0,0.0,0.0,0.0,0.0,0.0,0.0,0.0,0.0,0.0,0.0,0.0,0.0,0.0,0.0,0.0,0.0,0.0,0.0,0.0,0.0,0.0,0.0,0.0,0.0,0.0,0.0,0.0,0.0,0.0,0.0,0.0,0.0,0.0,0.0,0.0,0.0,0.0,0.0,0.0,0.0,0.0,0.0,0.0,0.0,0.0,0.0,0.0,0.0,0.0,0.0,0.0,0.0,0.0,0.0,0.0,0.0,0.0,0.0,0.0,0.0,0.0,0.0,0.0,0.0,0.0,0.0,0.0,0.0,0.0,0.0,0.0,2.5351,2.5535,2.5693,2.5693,2.5693,2.5693,2.5693,2.4095,2.3101,2.3101,0.0,0.0,0.0,0.0,0.0,0.0,0.0,0.0,0.0,0.0,0.0,0.0,0.0,0.0,0.0,0.0,0.0,0.0,0.0,0.0,0.0,0.0,0.0,0.0,0.0,0.0,0.0,0.0,0.0,0.0,0.0,0.0,0.0,0.0,0.0,0.0,0.0,0.0,0.0,0.0,0.0,0.0,0.0,0.0,0.0,0.0,0.0,0.0,0.0,0.0,0.0,0.0,0.0,0.0,0.0,0.0,0.0,0.0,0.0,0.0,0.0,0.0,0.0,0.0,0.0,0.0,0.0,0.0,0.0,0.0,0.0,0.0,0.0,0.0,0.0,0.0,0.0,0.0,0.0,0.0,0.0,0.0,0.0,0.0,0.0,0.0,0.0,0.0,0.0,0.0,0.0,0.0,0.0,0.0,0.0,0.0,0.0,0.0,0.0,0.0,0.0,0.0,2.4719,2.5236,2.5776,2.5776,2.5776,2.5757,2.5693,2.4134,2.3159,2.3159,0.0,0.0,0.0,0.0,0.0,0.0,0.0,0.0,0.0,0.0,0.0,0.0,0.0,0.0,0.0,0.0,0.0,0.0,0.0,0.0,0.0,0.0,0.0,0.0,0.0,0.0,0.0,0.0,0.0,0.0,0.0,0.0,0.0,0.0,0.0,0.0,0.0,0.0,0.0,0.0,0.0,0.0,0.0,0.0,0.0,0.0,0.0,0.0,0.0,0.0,0.0,0.0,0.0,0.0,0.0,0.0,0.0,0.0,0.0,0.0,2.1452,0.0,0.0,0.0,0.0,0.0,0.0,0.0,0.0,0.0,0.0,0.0,0.0,0.0,0.0,0.0,0.0,0.0,0.0,0.0,0.0,0.0,0.0,0.0,0.0,0.0,0.0,0.0,0.0,0.0,0.0,0.0,0.0,0.0,0.0,0.0,0.0,0.0,0.0,0.0,0.0,0.0,2.5565,2.5935,2.625,2.625,2.625,2.6113,2.5713,2.443,2.3652,2.3652,2.2838,0.0,0.0,0.0,0.0,0.0,0.0,0.0,0.0,0.0,0.0,0.0,0.0,0.0,0.0,0.0,0.0,0.0,0.0,0.0,0.0,0.0,0.0,0.0,0.0,0.0,0.0,0.0,0.0,0.0,0.0,0.0,0.0,0.0,0.0,0.0,0.0,0.0,0.0,0.0,0.0,0.0,0.0,0.0,0.0,0.0,0.0,0.0,0.0,0.0,0.0,0.0,0.0,0.0,0.0,0.0,0.0,0.0,0.0,0.0,0.0,2.1806,0.0,0.0,0.0,0.0,0.0,0.0,0.0,0.0,0.0,0.0,0.0,0.0,0.0,0.0,0.0,0.0,0.0,0.0,0.0,0.0,0.0,0.0,0.0,0.0,0.0,0.0,0.0,0.0,0.0,0.0,0.0,0.0,0.0,0.0,0.0,0.0,0.0,0.0,0.0,0.0,2.5773,2.6124,2.6387,2.6387,2.6387,2.6211,2.5757,2.4703,2.4004,2.3809,2.3269,0.0,0.0,0.0,0.0,0.0,0.0,0.0,0.0,0.0,0.0,0.0,0.0,0.0,0.0,0.0,0.0,0.0,0.0,0.0,0.0,0.0,0.0,0.0,0.0,0.0,0.0,0.0,0.0,0.0,0.0,0.0,0.0,0.0,0.0,0.0,0.0,0.0,0.0,0.0,0.0,0.0,0.0,0.0,0.0,0.0,0.0,0.0,0.0,0.0,0.0,0.0,0.0,0.0,2.6982,2.7709,2.807,2.8578,2.8295,2.7352,2.6028,2.457,2.3127,0.0,0.0,0.0,0.0,0.0,0.0,0.0,0.0,0.0,0.0,0.0,0.0,0.0,0.0,0.0,0.0,0.0,0.0,0.0,0.0,0.0,0.0,0.0,0.0,0.0,2.6794,2.6515,0.0,0.0,0.0,0.0,0.0,0.0,0.0,0.0,0.0,0.0,0.0,0.0,2.5722,2.6167,2.6523,2.6627,2.6543,2.6328,2.5854,2.5015,2.4355,2.3926,2.3538,2.3322,0.0,0.0,0.0,0.0,0.0,0.0,0.0,0.0,0.0,0.0,0.0,0.0,0.0,0.0,0.0,0.0,0.0,0.0,0.0,0.0,0.0,0.0,0.0,0.0,0.0,0.0,0.0,0.0,0.0,0.0,0.0,0.0,2.325,2.3499,0.0,0.0,0.0,0.0,0.0,0.0,0.0,0.0,0.0,0.0,0.0,0.0,0.0,0.0,2.7076,2.7679,2.7594,2.6854,2.8081,2.8953,2.9458,2.9824,3.0545,3.1469,3.0469,0.0,2.3636,2.2898,0.0,0.0,0.0,0.0,0.0,0.0,0.0,0.0,0.0,0.0,0.0,0.0,0.0,0.0,0.0,0.0,0.0,0.0,0.0,0.0,0.0,0.0,2.6411,2.6501,2.7007,2.74,0.0,2.7132,2.7077,2.6346,0.0,0.0,0.0,0.0,0.0,0.0,0.0,0.0,2.5712,2.6401,2.707,2.7487,2.7168,2.6758,2.6348,2.5512,2.4828,2.4355,2.3945,2.372,2.3744,2.3229,0.0,0.0,0.0,0.0,0.0,0.0,0.0,0.0,0.0,0.0,0.0,0.0,0.0,0.0,0.0,0.0,0.0,0.0,0.0,0.0,0.0,0.0,0.0,0.0,0.0,0.0,0.0,0.0,0.0,2.3344,2.3689,2.25,2.3905,2.4251,0.0,0.0,0.0,0.0,0.0,0.0,0.0,0.0,0.0,2.7163,2.8524,2.9192,2.9113,3.0299,3.0797,3.0596,3.0937,3.1584,3.2502,3.2681,3.3054,3.3626,3.3199,3.1582,2.8992,2.6174,2.4383,2.3334,0.0,0.0,0.0,0.0,0.0,2.6151,2.6301,2.6173,0.0,0.0,0.0,0.0,0.0,0.0,0.0,0.0,0.0,0.0,0.0,0.0,0.0,2.8101,2.8484,2.864,2.8184,2.8166,2.7854,0.0,2.67,2.7184,2.7629,0.0,0.0,0.0,0.0,2.5902,2.6367,2.6992,2.7487,2.7682,2.7526,2.7109,2.647,2.606,2.5532,2.4848,2.4633,2.4408,2.4157,2.3722,2.3851,0.0,0.0,0.0,0.0,0.0,0.0,0.0,0.0,0.0,0.0,0.0,0.0,0.0,0.0,0.0,0.0,0.0,0.0,0.0,0.0,0.0,0.0,0.0,0.0,0.0,0.0,0.0,0.0,2.4434,2.4383,2.2373,2.4401,2.5036,0.0,0.0,0.0,0.0,0.0,0.0,2.6351,2.8334,2.9552,2.9769,3.1405,3.2186,3.2012,3.3342,3.4112,3.4258,3.3945,3.4219,3.5039,3.5039,3.5039,3.5019,3.5021,3.4662,3.3714,2.9436,2.709,2.6133,2.4929,2.4866,2.5609,2.6905,2.7687,2.8201,2.875,2.8672,2.8107,2.7044,0.0,2.5701,2.5208,0.0,0.0,0.0,0.0,2.6969,2.7839,2.8428,2.9004,2.9891,3.0185,3.0146,2.9687,2.9562,2.9004,0.0,2.6973,2.7337,2.7807,0.0,0.0,0.0,0.0,2.6465,2.7109,2.7487,2.7741,2.7839,2.7761,2.7428,2.6803,2.6548,2.6138,2.5473,2.5317,2.5039,2.4609,2.4277,2.4267,2.4536,0.0,0.0,0.0,0.0,0.0,0.0,0.0,0.0,0.0,0.0,0.0,0.0,0.0,0.0,0.0,0.0,0.0,0.0,0.0,0.0,0.0,0.0,0.0,0.0,0.0,0.0,0.0,0.0,0.0,2.5661,2.6812,0.0,0.0,0.0,0.0,2.565,2.7507,2.8532,2.8193,3.0603,3.2553,3.3767,3.5053,3.6113,3.6934,3.7047,3.689,3.6538,3.6519,3.6289,3.5923,3.5923,3.5923,3.5937,3.5909,3.5916,3.5517,3.1238,2.9422,2.9168,2.7063,2.7097,2.8181,2.7321,2.7874,2.8921,2.8091,2.7767,2.7917,2.9059,2.9446,2.9116,2.6963,2.7724,0.0,0.0,2.7708,2.9091,2.8885,2.9461,3.0312,3.1211,3.1738,3.1944,3.1484,3.1357,3.0644,0.0,2.7643,2.7552,2.7127,0.0,2.7454,2.7108,2.7376,2.7604,2.7663,2.7682,2.7839,2.8223,2.7936,2.7682,2.7643,2.6881,2.6367,2.6353,2.5913,2.5484,2.5082,2.5043,2.4851,2.4424,2.486,0.0,0.0,0.0,0.0,0.0,0.0,0.0,0.0,0.0,0.0,0.0,0.0,0.0,0.0,0.0,0.0,0.0,0.0,0.0,0.0,0.0,0.0,0.0,0.0,0.0,0.0,0.0,0.0,2.8376,2.9782,0.0,2.7307,2.8161,2.881,2.8601,3.0084,3.1445,3.2374,3.4355,3.5971,3.6968,3.7969,3.8652,3.8965,3.8965,3.8887,3.873,3.7891,3.7695,3.8066,3.7793,3.7519,3.7246,3.7559,3.7375,3.6708,3.4911,3.3501,3.2316,3.041,3.0167,3.0883,3.0912,3.1162,3.1531,3.1888,3.1574,3.0928,3.0576,3.05,3.0246,2.8534,2.8778,2.9409,2.8325,2.8903,2.9913,3.0133,3.082,3.1573,3.1885,3.2081,3.2159,3.2003,3.1934,3.169,3.0771,2.9911,2.916,2.8758,2.8555,2.8418,2.8262,2.8379,2.8476,2.8476,2.8738,2.8973,2.9129,2.873,2.8359,2.8112,2.7285,2.668,2.6431,2.5952,2.564,2.5484,2.5239,2.5381,2.599,2.6174,2.6539,0.0,0.0,0.0,0.0,0.0,0.0,0.0,0.0,0.0,0.0,0.0,0.0,0.0,0.0,0.0,0.0,0.0,0.0,0.0,0.0,0.0,0.0,0.0,0.0,0.0,0.0,2.9958,3.0892,3.2264,3.2405,3.0605,3.1199,3.1894,3.2366,3.3899,3.5273,3.6387,3.7949,3.9082,3.9648,4.0371,4.0742,4.0742,4.0742,4.0684,4.0527,3.9648,3.9375,3.9629,3.9219,3.8789,3.8345,3.8683,3.8476,3.7914,3.7656,3.6871,3.5625,3.3769,3.3223,3.354,3.393,3.3915,3.3755,3.4318,3.4053,3.3281,3.2316,3.1997,3.183,3.0751,3.0659,3.0928,3.0692,3.0947,3.1416,3.2031,3.2531,3.2883,3.3019,3.2661,3.2389,3.275,3.215,3.1682,3.2023,3.1431,3.0723,3.0293,3.0117,2.9961,2.9796,2.964,2.9562,2.9562,2.957,2.9598,2.9598,2.918,2.875,2.832,2.7637,2.6992,2.6451,2.6113,2.5874,2.5718,2.5449,2.5868,2.7094,2.7285,2.7805,2.8746,0.0,0.0,0.0,0.0,0.0,0.0,0.0,0.0,0.0,0.0,0.0,0.0,0.0,0.0,0.0,0.0,0.0,0.0,0.0,0.0,0.0,0.0,0.0,2.958,3.1938,3.3562,3.3411,3.425,3.4531,3.3699,3.4805,3.5898,3.6773,3.8769,3.9961,3.998,4.1152,4.1816,4.1836,4.2226,4.2401,4.2401,4.2401,4.2226,4.1816,4.1816,4.1367,4.0528,4.0156,3.969,3.9265,3.9279,3.9258,3.9223,3.9233,3.9224,3.9023,3.6914,3.604,3.604,3.604,3.5801,3.5371,3.4883,3.4726,3.4648,3.4251,3.4101,3.3972,3.353,3.3413,3.3511,3.3952,3.3757,3.364,3.4512,3.4414,3.4167,3.4577,3.3527,3.2767,3.3792,3.2092,3.0617,3.1667,3.2008,3.201,3.1561,3.1914,3.2061,3.1572,3.1191,0.0,3.0937,3.0204,2.9657,2.9676,2.9238,2.8762,2.8379,2.7976,2.735,2.6484,2.6426,2.6211,2.5776,2.5732,2.6344,2.7618,2.8061,2.885,3.0018,0.0,0.0,0.0,0.0,0.0,0.0,0.0,0.0,0.0,0.0,0.0,0.0,0.0,0.0,0.0,0.0,0.0,0.0,0.0,0.0,0.0,0.0,3.2703,3.2495,3.3336,3.4868,3.7263,3.781,3.8125,3.8499,3.8869,3.9336,3.992,4.0762,4.1406,4.1719,4.203,4.2402,4.2715,4.2832,4.2891,4.2891,4.2891,4.2676,4.2246,4.1953,4.1836,4.1855,4.1465,4.1055,4.0626,4.0662,4.0293,3.9715,3.9696,3.9712,3.9551,3.8008,3.7367,3.7328,3.7051,3.668,3.6245,3.5469,3.5195,3.5137,3.4668,3.3989,3.328,3.3166,3.3336,3.3577,3.3355,3.4044,3.4902,3.5137,3.4269,3.3445,3.3874,3.2798,3.1771,3.2072,3.1366,3.0733,3.1047,3.0958,3.0932,3.1214,3.2027,3.248,3.2081,3.1925,0.0,3.1846,3.1328,3.1113,3.1455,3.0488,2.9805,2.9687,2.8711,2.7917,2.737,2.7012,2.6797,2.6635,2.6635,2.7217,2.8443,2.9499,3.0193,0.0,0.0,0.0,0.0,0.0,0.0,0.0,0.0,0.0,0.0,0.0,0.0,0.0,0.0,0.0,0.0,0.0,0.0,0.0,0.0,0.0,0.0,3.3662,3.6172,3.6717,3.6784,3.7656,4.0019,4.0293,4.0566,4.1211,4.1289,4.1504,4.1973,4.2363,4.2695,4.2949,4.2969,4.3086,4.334,4.334,4.334,4.334,4.334,4.3223,4.2969,4.2715,4.2734,4.2949,4.2519,4.2207,0.0,4.1777,4.1426,4.0957,4.0977,4.0841,0.0,0.0,0.0,0.0,0.0,3.7559,3.709,3.6426,3.5864,3.5414,3.5146,3.4265,3.3215,3.2851,3.2853,3.2889,3.2401,3.2693,3.3331,3.399,3.3228,3.249,3.3302,3.222,3.1148,3.154,3.0615,2.9834,3.0288,3.0111,0.0,3.09,3.1789,3.25,3.2672,3.257,3.2452,3.2452,3.2051,3.1816,3.1894,3.1055,3.0273,2.9707,2.8828,0.0,0.0,0.0,2.6986,2.6986,2.75,0.0,0.0,0.0,3.0209,3.0209,0.0,0.0,0.0,2.9134,2.8871,0.0,0.0,0.0,0.0,0.0,0.0,0.0,0.0,0.0,0.0,0.0,0.0,0.0,0.0,0.0,0.0,3.6546,3.9287,4.121,4.1172,4.123,4.1933,4.2012,4.2187,4.2617,4.2655,4.2891,4.3262,4.3633,4.3848,4.3848,0.0,0.0,0.0,0.0,4.375,4.3711,4.3711,4.3711,4.3711,4.3711,4.3711,4.3691,4.332,4.3125,4.3087,4.2676,4.244,4.2382,4.2382,4.2087,4.1541,4.043,3.9941,3.9805,3.9004,3.8292,3.7648,3.7281,0.0,0.0,3.5063,3.4234,3.3075,3.2363,3.1977,3.1736,3.1199,3.0729,3.067,3.2064,3.1748,3.1361,3.2521,3.1417,3.0349,3.134,2.9737,2.8419,2.947,2.9512,2.9647,3.0532,3.136,3.2224,3.326,3.3105,3.2871,3.2871,3.2531,3.214,3.1728,0.0,0.0,2.9289,2.873,2.8086,2.7285,2.7162,2.7168,2.7168,2.8178,2.874,2.874,2.9155,2.9383,2.9445,2.8701,2.8398,2.8425,2.8213,2.8021,0.0,0.0,0.0,0.0,0.0,0.0,0.0,0.0,0.0,0.0,0.0,0.0,0.0,0.0,0.0,3.5211,3.8409,4.1247,4.297,4.3457,4.3574,4.3359,4.334,4.3516,4.3984,4.4316,4.4509,4.4648,4.4726,4.4723,4.4723,4.4723,0.0,4.4277,4.4258,4.4082,4.3711,4.3711,4.3711,4.3711,0.0,0.0,4.3711,4.3613,4.3398,4.3066,4.2988,4.2754,4.2382,4.2382,4.174,4.0645,4.0473,4.0195,3.9883,3.9707,3.8309,3.6512,3.6327,3.461,3.2494,3.2382,3.1441,3.0352,3.0435,3.0634,0.0,3.0351,3.1039,3.1893,3.1932,3.0746,2.9654,3.0224,2.8992,2.7899,2.8669,2.8262,2.7994,2.8838,2.9399,2.9834,2.997,3.105,3.2224,3.326,3.3328,3.3269,3.3269,3.293,3.2773,3.3027,3.202,3.1289,3.1006,2.998,2.9129,2.8567,2.8223,2.8047,2.8047,2.8265,2.8397,2.8397,2.8476,2.8694,2.903,2.8859,2.8984,2.9344,2.8908,2.8711,0.0,0.0,0.0,0.0,0.0,0.0,0.0,0.0,0.0,0.0,0.0,3.0099,0.0,0.0,3.6666,3.8314,4.1133,4.3476,4.4531,4.5078,4.5098,4.4453,4.4355,4.4236,4.3938,4.4787,4.5129,4.4543,4.5038,4.5351,4.5351,4.5137,4.4922,4.4726,4.4512,4.4297,4.4043,4.3828,4.3711,4.3711,4.3711,4.3711,4.3711,4.3711,4.3594,4.3398,4.3398,4.3262,4.2925,4.1555,4.0193,3.8926,3.8267,3.8047,3.804,3.743,3.627,3.4968,3.4779,3.3276,3.1437,3.136,3.0461,2.9346,2.9123,2.909,2.9042,2.8733,2.9013,2.9449,2.9836,2.9008,2.8274,2.889,2.8281,2.7749,2.8447,2.8665,2.883,2.9226,2.9473,2.9884,3.0737,3.1334,3.1956,3.2776,3.3379,3.3672,3.3425,3.3211,3.3105,3.3105,3.2539,3.1894,3.125,3.0224,2.9422,2.8918,2.8926,2.8953,2.8953,2.8953,2.8953,2.8953,2.8953,2.907,2.9238,2.9238,2.9202,2.9155,2.9117,2.9143,0.0,0.0,0.0,0.0,0.0,0.0,0.0,2.7899,2.8123,3.0735,3.208,3.3226,3.4694,3.732,3.969,4.115,4.3259,4.4798,4.4995,4.536,4.5297,4.4703,4.4827,4.4602,4.3727,4.4824,4.5253,4.4316,4.5039,4.5546,4.5643,4.5193,4.5051,4.5231,4.4941,4.4687,4.4531,4.4141,4.3965,4.3965,4.3965,4.3965,4.3965,4.3577,4.3455,4.3394,4.2841,4.2636,4.2432,4.0041,3.8264,3.6954,3.5606,3.5187,3.5269,3.4867,3.4099,3.3307,3.3138,3.188,3.0378,3.0438,2.9764,2.8793,2.8209,2.7816,2.7613,2.7418,2.7055,2.6827,2.7628,2.7414,2.7125,2.7764,2.7871,2.8011,2.8663,2.9248,2.9718,2.9765,2.9829,3.0219,3.1459,3.1943,3.2331,3.2758,3.3572,3.3945,3.3594,3.3476,3.3301,3.2949,3.2851,3.2285,3.0996,3.0263,2.9637,2.9082,2.9403,2.9598,2.9598,2.9598,2.9637,2.9715,2.9715,2.9681,2.9686,2.9686,2.9355,2.8788,2.909,2.9311,2.6533,2.6255,2.5723,2.7077,2.7355,2.8593,0.0,3.3579,3.3466,3.5996,3.6616,3.6955,3.7907,3.9922,4.1555,4.1946,4.2881,4.3401,4.2874,4.2836,4.2943,4.3194,4.414,4.4674,4.4577,4.5047,4.5272,4.5146,4.498,4.5059,4.5325,4.4996,4.5243,4.6128,4.6113,4.5723,4.4918,4.486,4.484,4.484,4.484,4.484,4.4821,4.3168,4.2448,4.2326,3.9887,3.8835,3.8732,3.7553,3.6307,3.5024,3.4019,3.291,3.2164,3.4525,3.3816,3.1707,3.1922,3.0124,2.7771,2.8003,2.7825,2.754,2.7687,2.7741,2.7686,2.767,2.7602,2.7483,2.7068,2.6693,2.6423,2.6285,2.6638,2.7045,2.7502,2.8469,2.9372,2.9739,3.0836,3.1439,3.0619,3.2715,3.449,3.4442,3.4251,3.4095,3.4036,3.3672,3.3367,3.3328,3.3008,3.2285,3.0996,3.0801,3.0419,2.9579,2.9579,2.9598,2.9598,2.9598,2.9774,3.0117,3.0137,3.0074,2.995,2.995,2.9592,2.896,2.8995,2.8862,2.9147,2.9554,2.958,3.0969,3.1965,3.3107,3.5009,3.5431,3.621,3.9006,4.0196,4.1113,4.2501,4.3142,4.3504,0.0,4.3749,4.3682,4.3235,4.3207,4.2806,4.1695,4.2473,4.3053,4.2812,4.457,4.5077,4.3521,4.3838,4.4203,4.4384,4.3986,4.397,4.4394,4.4154,4.4298,4.4819,4.3658,4.3416,4.4122,4.3218,4.2715,4.2432,4.0959,3.9864,3.9061,3.7903,3.6933,3.6156,3.5201,3.3994,3.2661,3.1745,3.0906,3.0417,3.1555,3.1282,3.0266,3.0042,2.9005,2.7804,2.7709,2.7615,2.7509,2.7455,2.7562,2.7696,2.7696,2.7575,2.7388,2.7148,2.6734,2.636,2.6279,2.6843,2.7577,2.8151,2.9268,3.0263,3.042,3.0948,3.1353,3.131,3.2744,3.4115,3.4705,3.482,3.4681,3.4173,3.3938,3.3711,3.3425,3.3047,3.2578,3.2051,3.1777,3.1514,3.1143,3.1103,3.1103,3.1103,3.0496,3.0246,3.0417,2.9818,2.9471,2.9418,2.9418,2.9088,2.8494,2.8494,2.7968,3.0688,3.1611,3.249,3.4283,3.5928,3.7128,3.7291,3.7858,3.9029,4.1587,4.2624,4.3604,4.5414,4.5248,4.4824,4.4728,4.4357,4.3726,4.2765,4.2823,4.2266,4.0448,4.1524,4.1837,4.0501,4.3196,4.4138,4.2031,4.2532,4.3023,4.3233,4.2819,4.2778,4.3167,4.2884,4.3258,4.4242,4.28,4.2379,4.2897,4.1701,4.0882,4.0275,3.8805,3.7266,3.578,3.5518,3.4816,3.3746,3.2837,3.1834,3.0839,3.0182,2.978,2.9606,2.9606,2.9499,2.9285,2.8778,2.8511,2.8379,2.8043,2.7949,2.7909,2.7696,2.7722,2.7816,2.7816,2.771,2.751,2.7349,2.6988,2.6666,2.6703,2.7491,2.8324,2.8937,3.0115,3.102,3.0924,3.0972,3.1221,3.1733,3.2765,3.375,3.4462,3.5264,3.543,3.4583,3.4251,3.3977,3.3633,3.3223,3.293,3.2812,3.2519,3.2316,3.2198,3.1924,3.1753,3.1753,3.0723,3.0222,3.0363,2.9596,2.9021,2.8633,2.8633,2.8148,2.7246,2.7246,2.6732,3.0373,3.088,3.2218,3.55,3.7445,3.9175,4.1641,4.2299,4.2821,4.4127,4.3588,4.347,4.5464,4.5518,4.5169,4.4857,4.4181,4.2825,4.0271,4.0422,4.0477,3.9695,4.1818,4.1896,0.0,4.0686,4.2289,4.1548,4.1262,4.1363,4.2006,4.172,4.218,4.3638,4.3685,4.3473,4.3065,4.3001,4.2475,4.1449,4.1137,4.0443,3.9346,3.7305,3.5241,3.3277,3.2349,3.173,3.1315,3.0392,3.0003,2.9958,2.9913,2.9913,2.99,2.99,2.9495,2.8961,2.8711,2.8735,2.8921,2.8671,2.8577,2.8577,2.8564,2.8364,2.8165,2.8165,2.8165,2.8031,2.7456,2.7296,2.7338,2.7497,2.8246,2.9016,2.9472,3.0514,3.1268,3.0972,3.1179,3.1402,3.1402,3.3014,3.4136,3.38,3.5402,3.6362,3.5469,3.4642,3.4095,3.4095,3.3672,3.3211,3.2832,3.2793,3.2628,3.2218,3.1233,3.0661,3.0661,2.9622,2.9269,2.9722,2.969,2.9032,2.7735,2.7735,2.6822,2.509,2.509,2.5071,3.2148,3.4372,3.7131,4.017,4.1699,4.2665,4.36,4.4064,4.4117,4.3316,4.2134,4.1253,4.1283,4.1265,4.1019,4.0282,4.1251,4.1406,3.9356,3.8688,3.8021,3.7088,3.8091,0.0,0.0,0.0,0.0,4.0375,4.0577,4.1157,4.1975,4.0979,4.0691,4.1421,4.1238,4.1283,4.1687,4.0462,3.9644,3.9307,3.7805,3.6325,3.4911,3.4241,3.2994,3.1339,3.1035,3.0677,3.0361,3.0048,2.9913,2.9913,2.9913,2.9793,2.9633,2.9633,2.9499,2.9325,2.9219,2.9259,2.9259,2.8764,2.8604,2.8537,2.8123,2.8112,2.8138,2.7938,2.775,2.755,2.7362,2.7015,2.6707,2.6782,2.7437,2.8076,2.8234,2.9472,3.0485,3.0377,3.0916,3.1395,3.1395,3.2366,3.3231,3.3654,3.4917,3.5723,3.543,3.4863,3.4492,3.4492,3.3704,3.2981,3.263,3.2144,3.1606,3.0992,3.0809,3.0746,3.0746,2.9248,2.8594,2.896,2.7797,2.6957,2.6515,2.6515,2.61,2.5339,2.5339,2.4984,3.499,3.7126,3.9414,4.2665,4.379,4.4171,4.4334,4.3962,4.3167,4.1842,3.9905,3.8472,3.8544,3.7903,3.7413,3.7504,3.8174,3.8458,3.7772,3.7056,3.6541,3.6478,3.6943,3.6785,0.0,0.0,0.0,3.9068,3.9678,4.0454,4.119,4.017,3.9636,3.9856,3.9182,3.9039,3.9556,3.8276,3.7328,3.6784,3.502,3.3566,3.2355,3.2355,3.1721,3.0675,3.0675,3.0448,3.0074,3.0074,3.0007,2.9913,2.9913,2.9806,2.9633,2.9633,2.9633,2.9593,2.9285,2.9379,2.9539,2.8951,2.8721,2.8684,2.8297,2.8163,2.8138,2.7951,2.7764,2.759,2.7483,2.7134,2.6908,2.708,2.7572,2.7995,2.8313,2.9222,3.0103,3.0417,3.0794,3.1221,3.1547,3.2086,3.2801,3.3757,3.4403,3.4765,3.4614,3.4086,3.3761,3.3761,3.2944,3.2326,3.2137,3.1655,3.12,3.0703,3.0265,3.0018,3.0018,2.8295,2.7414,2.7632,2.6479,2.5757,2.5511,2.5511,2.5305,2.491,2.491,2.4553,3.8527,3.9098,3.9489,4.3024,4.3813,4.3786,4.4039,4.2341,4.0472,3.9769,3.7085,3.5352,3.6887,3.5456,3.4577,3.6464,3.536,3.4699,3.5865,3.5707,3.6073,0.0,0.0,0.0,0.0,0.0,0.0,3.7639,0.0,3.9307,3.9817,3.9312,3.9029,3.9044,3.7708,3.698,3.6944,3.6624,3.5652,3.4018,3.3032,3.23,3.1738,3.1724,3.1503,3.1176,3.1176,3.0902,3.04,3.04,3.0181,2.9913,2.9913,2.9913,2.9913,2.9913,2.9913,2.9793,2.8951,2.9205,2.982,2.9202,2.9015,2.9015,2.9001,2.8644,2.8232,2.8232,2.8205,2.8125,2.7789,2.7696,2.7809,2.8342,2.8436,2.8679,2.9488,2.969,2.9972,3.0871,3.0852,3.0939,3.17,3.2184,3.2821,3.3959,3.3737,3.3405,3.3233,3.2561,3.2101,3.2101,3.168,3.1416,3.1331,3.1315,3.1229,3.116,2.9506,2.8526,2.851,2.6838,2.5871,2.5871,2.5836,2.5483,2.4811,2.4811,2.4457,2.383,2.383,2.3817,3.9071,4.1825,4.4275,4.4106,4.4696,4.4821,4.2995,4.2125,4.0612,3.6834,3.4349,3.2293,3.0428,3.1385,3.2642,3.3215,3.605,0.0,3.7991,3.7043,0.0,3.723,0.0,3.5335,3.5682,3.6067,0.0,0.0,3.7033,3.8497,4.0528,3.8886,3.8021,3.8272,3.7474,3.6745,3.6266,3.4875,3.3923,3.326,3.2799,3.2393,3.1984,3.177,3.1503,3.1176,3.1176,3.0902,3.04,3.04,3.0181,2.9913,2.9913,2.9913,2.9913,2.9913,2.9913,2.986,2.9419,2.9553,2.986,2.9486,2.9366,2.9325,2.9068,2.8895,2.8804,2.8804,2.8526,2.8165,2.8085,2.775,2.7444,2.7567,2.7622,2.7663,2.7866,2.8395,2.9125,3.0027,3.1155,3.1809,3.1372,3.1392,3.1489,3.161,3.0723,3.0898,3.3277,3.3374,3.325,3.325,3.2393,3.1469,3.0596,2.9998,2.9189,2.8064,2.7759,2.7535,2.7332,2.6308,2.5779,2.5816,2.5234,2.4847,2.4665,2.4665,2.4448,2.4088,2.4088,2.3981,4.1366,4.2952,4.4358,4.4332,4.3202,4.1539,3.9697,3.8416,3.6427,3.2364,3.0712,2.9271,2.677,2.8241,2.9791,2.9669,3.2803,3.5683,3.6822,3.568,3.5333,0.0,3.5583,0.0,3.564,3.5468,3.5543,0.0,3.6703,3.7752,3.9312,3.8015,3.7289,3.7527,3.6414,3.5525,3.4872,3.3876,3.3267,3.2973,3.2862,3.2634,3.2291,3.1998,3.177,3.1597,0.0,3.1089,3.06,3.06,3.0301,2.9913,2.9913,2.9913,2.9913,2.9913,2.9913,2.99,2.9726,2.978,2.9873,2.9579,2.9486,2.9459,2.9285,2.9095,2.9001,2.9001,2.8791,2.8537,2.8537,2.8297,2.8043,2.8043,2.8043,2.8043,2.8043,2.8312,2.8717,2.9382,3.0583,3.1264,3.0645,3.0535,3.0475,3.0336,2.9705,2.991,3.1733,3.1472,3.1097,3.1097,3.0558,2.9886,2.9202,2.8776,2.8148,2.7297,2.7107,2.6986,2.68,2.6043,2.5578,2.5491,2.5181,2.4853,2.4599,2.477,2.4743,2.4583,2.4449,2.4369,4.4068,4.3238,4.2407,4.4,4.0705,3.6864,3.5805,3.3456,3.0722,2.7719,2.7089,2.6574,2.4889,2.5929,2.7063,2.7196,2.8884,3.1397,3.4885,3.3895,3.3983,3.7222,3.6053,3.523,3.5857,3.5359,3.5455,3.663,3.6709,3.6875,3.7302,3.69,3.6688,3.6646,3.5121,3.4042,3.348,3.3427,3.328,3.304,3.3,3.2888,3.2648,3.2291,3.2144,3.2091,0.0,0.0,3.0849,3.0808,3.0474,2.9967,2.9927,2.9913,2.9913,2.9913,2.9913,2.9913,2.9913,2.9913,2.9873,2.9619,2.9539,2.9539,2.9539,2.9366,2.9108,2.9108,2.9081,2.9055,2.9055,2.9028,2.9001,2.9001,2.9001,2.9001,2.9001,2.8931,2.8895,2.898,2.9794,3.0296,2.9882,2.9769,2.9766,2.9722,2.9587,2.9491,2.9448,2.8651,2.8069,2.8069,2.804,2.7949,2.7879,2.785,2.7797,2.7726,2.7072,2.6686,2.6645,2.5968,2.5438,2.5144,2.5384,2.5226,2.4719,2.501,2.5144,2.5168,2.4839,2.489,4.407,4.388,4.3564,4.2937,4.004,3.6705,3.4619,3.2174,2.9391,2.6169,2.5538,2.5116,2.3577,2.4837,2.7055,2.9952,3.2065,3.4483,3.7897,3.736,3.6845,0.0,3.5926,3.5123,3.5826,3.5274,0.0,0.0,0.0,3.5548,3.6453,3.588,3.5399,3.5156,3.4599,3.4148,3.3801,3.3547,3.3387,3.3334,3.3093,3.3009,3.2942,3.2648,3.238,3.2104,3.2051,0.0,3.1129,3.0889,3.0595,3.0306,3.0007,2.9913,2.9913,2.9913,2.9913,2.9913,2.9913,2.9913,2.9913,2.986,2.9847,2.9847,2.9847,2.9806,2.9722,2.9722,2.9593,2.9406,2.9406,2.9219,2.9001,2.9001,2.9001,2.9001,2.9001,2.9556,2.9862,2.912,3.0142,3.0872,3.0043,2.9705,2.9437,2.9183,2.8524,2.7989,2.7744,2.8738,2.9435,2.9435,2.9202,2.8867,2.8408,2.8171,2.785,2.7431,2.7014,2.6678,2.6475,2.6116,2.5784,2.5451,2.5491,2.5464,2.5358,2.5411,2.5438,2.5438,2.5384,2.5384,4.3185,4.2185,4.1368,4.1631,3.8025,3.387,3.1934,2.9458,2.6597,2.3116,2.3178,2.3291,2.1507,2.3141,2.5072,2.604,2.854,3.1655,3.5346,3.4935,3.4999,3.6963,3.5888,3.5133,3.5505,3.521,0.0,0.0,0.0,3.5239,3.5696,3.5373,3.5057,3.4829,3.4469,3.4175,3.3895,3.3734,3.3574,3.3414,3.344,3.336,3.32,3.2955,3.2661,3.2367,3.2171,0.0,3.1162,3.1076,3.0755,3.0386,3.0207,3.0047,2.9913,2.9913,2.9913,2.9913,2.9913,2.9913,2.9913,2.9913,2.9913,2.9913,2.9913,2.9913,2.9913,2.9913,2.982,2.9713,2.9713,2.9606,2.9455,2.9455,2.9455,2.9415,2.9299,2.9609,2.9743,2.9115,2.9603,2.9925,2.9345,2.9109,2.8973,2.8823,2.843,2.8123,2.7989,2.8797,2.916,2.8546,2.8351,2.8161,2.7893,2.7743,2.7554,2.7336,2.7134,2.6921,2.6627,2.648,2.6266,2.5972,2.5972,2.5892,2.5745,2.5745,2.5745,2.5784,2.5585,2.5598,4.2089,4.0442,3.8988,4.0248,3.5999,3.1054,2.9429,2.6801,2.3848,2.0833,2.1328,2.1753,1.9925,2.1492,2.2864,2.2236,2.4567,2.7968,3.2267,3.2165,3.2831,3.609,3.5729,0.0,3.5191,3.5191,0.0,0.0,0.0,0.0,3.5191,3.5191,3.5097,3.487,3.4576,3.4269,3.3975,3.3975,3.3788,3.3414,3.3734,3.3721,3.34,3.3173,3.2929,3.2581,3.2291,0.0,0.0,3.1249,3.0915,3.0493,3.0426,3.0181,2.9913,2.9913,2.9913,2.9913,2.9913,2.9913,2.9913,2.9913,2.9913,2.9913,2.9913,2.9913,2.9913,2.9913,2.9913,2.9913,2.9913,2.9913,2.9913,2.9913,2.9913,2.986,2.9619,2.9579,2.9513,2.9228,2.9135,2.9015,2.8831,2.8738,2.8698,2.8698,2.8698,2.8698,2.8698,2.8855,2.8641,2.7749,2.7576,2.7496,2.7496,2.7443,2.7429,2.7496,2.7429,2.7255,2.7014,2.6947,2.6814,2.6587,2.6573,2.6506,2.6279,2.6212,2.6185,2.6172,2.5838,2.5825,4.1332,4.0281,3.874,3.8804,3.4815,3.0417,2.8626,2.5183,2.2179,2.1338,2.1302,2.1099,2.0065,2.0516,2.1672,2.3558,2.4536,2.6927,3.2158,3.3,3.3575,3.486,0.0,0.0,3.5191,3.5191,0.0,0.0,0.0,0.0,3.5191,3.5191,3.5191,3.5151,3.487,3.4576,3.4282,3.4282,3.3988,3.3414,3.3734,3.3721,3.3414,3.3387,3.3066,3.2594,3.2567,0.0,0.0,3.1343,3.1036,3.0728,3.0507,3.0181,2.9913,2.9913,2.9913,2.9913,2.9913,2.9913,2.9913,2.9913,2.9913,2.9913,2.9913,2.9913,2.9913,2.9913,2.9913,2.9913,2.9913,2.9913,2.9913,2.9913,2.9913,2.9913,2.9887,2.9873,2.9873,2.9833,2.9619,2.9432,2.9406,2.9179,2.8961,2.8961,2.8961,2.8961,2.8961,2.8975,2.8948,2.8841,2.839,2.8098,2.8098,2.7857,2.7776,2.8085,2.7844,2.7642,2.7615,2.7362,2.7255,2.7229,2.7229,2.7215,2.7188,2.6881,2.6747,2.6734,2.644,2.6319,3.9557,3.8967,3.7524,3.7281,3.345,2.9381,2.8111,2.4838,2.1946,2.1426,2.0719,2.0099,1.9724,1.8797,1.8602,2.0165,2.0614,2.23,2.677,2.7633,2.9007,3.2246,3.3053,0.0,0.0,0.0,0.0,0.0,0.0,0.0,3.5191,3.5191,3.5191,3.5191,3.491,3.4762,3.4589,3.4589,3.4282,3.3694,3.4002,3.3895,3.3414,3.3414,3.3093,3.2594,3.2594,0.0,0.0,3.1543,3.1316,3.1036,3.0929,3.0595,3.0207,3.0381,3.0327,3.0181,3.0181,3.0181,3.0154,2.998,2.9913,2.9913,2.9913,2.9913,2.9913,2.9913,2.9913,2.9913,2.9913,2.9913,2.9913,2.9913,2.9913,2.9913,2.9913,2.9913,2.9913,2.9913,2.982,2.9686,2.9513,2.9379,2.9312,2.9312,2.9312,2.9312,2.9312,2.9459,2.9388,2.9028,2.8818,2.8684,2.8684,2.8417,2.8297,2.8417,2.8179,2.7924,2.7709,2.7589,2.7522,2.7522,2.7403,2.7389,2.7522,2.7228,2.7094,2.7081,2.7015,2.6827,3.7615,3.8095,3.7481,3.6829,3.3327,2.9689,2.8318,2.5288,2.2586,2.1948,2.0877,1.9929,1.9565,1.8033,1.7095,1.7876,1.8142,1.9623,2.3487,2.4275,2.5985,3.0042,0.0,3.2104,0.0,0.0,0.0,0.0,0.0,0.0,0.0,3.5191,3.5191,3.5191,3.5004,3.4803,3.4629,3.4803,3.4549,3.3895,3.4189,3.4055,3.3547,3.3454,3.3146,3.2714,0.0,0.0,0.0,3.1791,3.1543,3.1343,3.1263,3.0929,3.0547,3.0621,3.0595,3.052,3.044,3.04,3.0373,3.0114,2.998,2.9913,2.9913,2.9913,2.9913,2.9913,2.9913,2.9913,2.9913,2.9913,2.9913,2.9913,2.9913,2.9913,2.9913,2.9913,2.9913,2.9913,2.9913,2.9847,2.9646,2.9606,2.9606,2.9606,2.9606,2.9606,2.9606,2.9793,2.9753,2.9295,2.9255,2.9188,2.9015,2.8815,2.8738,2.8738,2.8457,2.8272,2.8096,2.7923,2.7869,2.7963,2.7724,2.767,2.7871,2.7576,2.7429,2.7429,2.7349,2.7148,3.5719,3.7848,3.9096,3.7914,3.499,3.1812,2.9434,2.655,2.4112,2.3249,2.212,2.0904,1.9724,1.8715,1.807,1.801,1.8503,2.0224,2.4052,2.489,2.6066,2.8708,0.0,3.0194,3.1957,0.0,0.0,0.0,0.0,0.0,0.0,3.5191,3.5191,3.5191,3.5191,3.491,3.4336,3.4897,3.475,3.3895,3.4189,3.4162,3.3868,3.3547,3.3253,0.0,0.0,0.0,0.0,3.1965,3.1711,3.1684,3.1343,3.1049,3.0755,3.052,3.0587,3.0742,3.0507,3.04,3.04,3.04,3.0154,2.9913,2.9913,2.9913,2.9913,2.9913,2.9913,2.9913,2.9913,2.9913,2.9913,2.9913,2.9913,2.9913,2.9913,2.9913,2.9913,2.9913,2.9913,2.9913,2.9913,2.9913,2.9913,2.9913,2.9913,2.9913,2.9913,2.9913,2.9913,2.9913,2.9913,2.9673,2.9041,2.8988,2.8988,2.8988,2.8721,2.8724,2.8975,2.85,2.8326,2.8591,2.8339,2.8179,2.8179,2.7843,2.7696,2.7682,2.7443,2.7309,3.1426,3.3086,3.3895,3.1998,2.99,2.7959,2.6715,2.4792,2.3262,2.3121,2.1498,1.9935,1.9565,1.7861,1.7067,1.868,1.8903,1.981,2.2458,2.4302,2.6132,2.8219,3.1356,3.3601,0.0,0.0,0.0,0.0,0.0,0.0,0.0,3.5191,3.5191,3.5191,3.5191,3.5017,3.4629,3.4803,3.4563,3.3881,3.3975,3.3855,3.3561,3.3454,0.0,0.0,0.0,0.0,0.0,3.1824,3.1831,3.1931,3.1637,3.1343,3.1102,3.1256,3.1183,3.1076,3.0982,3.0955,3.0889,3.0533,3.0346,3.0181,2.998,2.9913,2.9913,2.9913,2.9913,2.9913,2.9913,2.9913,2.9913,2.9913,2.9913,2.9913,2.9913,2.9913,2.9913,2.9913,2.9913,2.9913,2.9913,2.9913,2.9913,2.9913,2.9913,2.9913,2.9913,2.9913,2.9913,2.9913,2.9913,2.9833,2.9615,2.9459,2.9339,2.9339,2.9072,2.8895,2.8988,2.8858,2.8804,2.8855,2.8617,2.8457,2.8457,2.8192,2.8045,2.8031,2.7737,2.771,2.8794,3.07,3.1831,3.0313,2.863,2.7085,2.6082,2.4589,2.3219,2.2564,2.0854,1.936,1.8902,1.7258,1.6553,1.8277,1.8664,1.9559,2.183,2.3901,2.6039,2.8419,0.0,0.0,0.0,0.0,0.0,0.0,0.0,0.0,0.0,3.5191,3.5151,3.5044,3.503,3.4897,3.4603,3.4603,3.4362,3.3881,3.3881,3.3788,3.3587,3.3467,0.0,0.0,0.0,0.0,0.0,3.1885,3.1837,3.2078,3.1784,3.1557,3.1396,3.1476,3.145,3.1383,3.1216,3.1176,3.1142,3.0675,3.0413,3.0154,2.9967,2.9913,2.994,3.0047,3.0007,2.9913,2.9913,2.9913,2.9913,2.9913,2.9913,2.9913,2.9913,2.9913,2.9913,2.9913,2.9913,2.9913,2.9913,2.9913,2.9913,2.9913,2.9913,2.9913,2.9913,2.9913,2.9913,2.9913,2.9913,2.9913,2.9913,2.9753,2.9646,2.9646,2.9366,2.9215,2.9322,2.9108,2.9041,2.9205,2.8925,2.8764,2.8764,2.8577,2.8484,2.847,2.8177,2.8136,0.0,2.9902,3.1888,3.1476,3.0007,2.8333,2.6882,2.5421,0.0,2.1823,2.0454,1.9262,1.8117,1.7079,1.6635,1.7273,1.805,1.9466,2.2084,2.3892,0.0,0.0,3.1617,0.0,0.0,0.0,0.0,0.0,0.0,0.0,0.0,3.5177,3.5044,3.4829,3.4775,3.4563,3.4295,3.4282,3.4148,3.3855,3.3855,3.3855,3.3841,3.3547,0.0,0.0,0.0,0.0,0.0,3.1904,3.1837,3.2078,3.1784,3.1711,3.1684,3.1356,3.1436,3.1671,3.1356,3.1263,3.1209,3.0889,3.0408,2.9953,2.9967,2.9967,3.0007,3.0306,3.014,2.994,2.9927,2.9913,2.9913,2.9913,2.9913,2.9913,2.9913,2.9913,2.9913,2.9913,2.9913,2.9913,2.9913,2.9913,2.9913,2.9913,2.9913,2.9913,2.9913,2.9913,2.9913,2.9913,2.9913,2.9913,2.9913,2.9913,2.9913,2.9913,2.9659,2.9633,2.99,2.9348,2.9232,2.9513,2.9175,2.9015,2.9001,2.9001,2.9001,2.8988,2.8738,2.8604,2.4194,0.0,2.6578,2.5476,2.5125,2.4861,0.0,2.3947,2.3699,2.2849,2.1721,2.0668,1.9891,1.8453,1.7775,1.8994,1.9201,2.003,2.2452,2.6172,0.0,3.2826,3.4202,0.0,0.0,0.0,0.0,0.0,0.0,0.0,0.0,3.499,3.4882,3.4815,3.4322,3.4055,3.3988,3.3988,3.3828,3.3521,3.3521,3.3521,3.3521,3.344,0.0,0.0,0.0,0.0,3.0501,3.1381,3.1837,3.2078,3.1784,3.1711,3.1711,3.1597,3.161,3.1711,3.1583,3.157,3.1476,3.0955,3.0555,3.0346,3.0515,3.0434,3.0266,3.006,3.014,3.0207,2.998,2.9913,2.9913,2.9913,2.9913,2.9913,2.9913,2.9913,2.9913,2.9913,2.9913,2.9913,2.9913,2.9913,2.9913,2.9913,2.9913,2.9913,2.9913,2.9913,2.9913,2.9913,2.9913,2.9913,2.9913,2.9913,2.9913,2.9913,2.9847,2.9847,2.9913,2.9735,2.974,2.9806,2.9526,2.9272,2.9001,2.9001,2.9001,2.8988,2.8738,2.8604,2.3101,2.3789,2.4339,2.3613,2.3613,2.373,2.3474,2.3435,2.3263,2.2441,2.1302,2.0235,1.9487,1.8195,1.7624,1.8803,1.9546,0.0,0.0,0.0,3.0902,3.3587,3.4563,0.0,0.0,0.0,0.0,0.0,0.0,0.0,0.0,3.4976,3.4748,3.4563,3.4122,3.3881,3.3881,3.3748,3.3587,3.3414,3.328,3.2851,3.2153,3.2103,3.0938,0.0,0.0,0.0,2.9706,3.1098,3.1805,3.1891,3.1778,3.1711,3.1711,3.1711,3.1583,3.1463,3.1463,3.1289,3.1082,3.0849,3.0595,3.0413,3.0381,3.0568,3.0728,3.0555,3.0541,3.0488,3.0194,3.0114,3.0114,3.0114,3.002,2.9953,3.0087,3.0007,2.9913,2.9913,2.9913,2.9913,2.9913,2.9913,2.9913,2.9913,2.9913,2.9913,2.9913,2.9913,2.9913,2.9913,2.9913,2.9913,2.9913,2.9913,2.9913,2.9913,2.9913,2.9913,2.9913,2.9913,2.9913,2.9913,2.9766,2.9606,2.9402,2.9402,2.9402,2.9388,2.9152,2.9005,2.3257,2.3767,2.4134,2.3545,2.3461,2.3522,2.3422,2.2958,2.2315,2.148,2.0371,1.9328,1.8517,1.7754,1.7509,1.8343,0.0,0.0,2.7468,2.9379,3.1116,3.3293,3.4122,0.0,0.0,0.0,0.0,0.0,0.0,0.0,0.0,3.4976,3.4526,3.3962,3.3671,3.3398,3.3091,3.3296,3.3387,3.3347,3.3093,3.2303,3.095,3.0652,2.9378,0.0,0.0,0.0,2.9159,3.0898,3.1597,3.1644,3.1604,3.1617,3.1597,3.1597,3.1436,3.1176,3.1122,3.0835,3.0507,3.0662,3.0595,3.0426,3.0127,3.0595,3.1189,3.1276,3.1089,3.0795,3.0547,3.044,3.0413,3.0467,3.0194,3.0047,3.0346,3.0167,2.9967,2.9927,2.9953,2.998,2.998,3.002,3.0047,3.0047,3.0047,3.0047,3.0047,3.0047,3.0034,2.9993,2.998,2.9967,2.9913,2.9913,2.9913,2.9913,2.9913,2.9913,2.9913,2.9913,2.9913,2.9913,2.9913,2.9913,2.9913,2.9913,2.9913,2.9913,2.9619,2.9486,2.4001,2.5328,2.5731,2.2487,2.198,2.2163,2.1774,2.0844,2.0291,2.1145,2.0532,1.979,1.9638,1.9708,1.9932,2.0513,0.0,2.5985,0.0,0.0,3.259,3.4015,0.0,0.0,0.0,0.0,0.0,0.0,0.0,0.0,0.0,3.4976,3.4045,3.2335,3.1943,3.0966,2.935,3.2058,3.3293,3.304,3.3,3.2754,3.227,3.1074,2.9378,0.0,0.0,2.9067,2.7588,3.0192,3.1289,3.1276,3.1022,3.1076,3.1289,3.1289,3.1216,3.1196,3.0942,3.0795,3.0688,3.0533,3.0614,3.0715,3.0675,3.0929,3.1276,3.153,3.1383,3.1089,3.0795,3.0587,3.0467,3.0662,3.0547,3.0346,3.04,3.0373,3.0266,2.9967,3.0114,3.0333,3.0333,3.0501,3.0662,3.0662,3.0662,3.0662,3.0662,3.0662,3.0568,3.036,3.0333,3.0194,2.994,2.9913,2.9913,2.9913,2.9913,2.9913,2.9913,2.9913,2.9913,2.9913,2.9913,2.9913,2.9913,2.9913,2.9913,2.9913,2.9619,2.9486,2.3591,2.3986,2.3897,2.2255,2.3143,2.398,2.2252,2.1346,2.1047,2.1618,2.0877,2.0203,2.0557,2.0801,2.1803,2.4277,0.0,2.8404,3.0528,3.1543,3.2505,0.0,0.0,0.0,0.0,0.0,0.0,0.0,0.0,0.0,3.3625,0.0,3.3907,3.2994,3.1731,3.0573,2.9685,3.03,3.0939,3.1672,3.2419,3.1741,2.9799,2.9087,2.7755,2.6097,0.0,2.8365,2.82,3.0324,3.1129,3.0982,3.0849,3.0875,3.0969,3.0808,3.0755,3.0742,3.0654,3.0461,3.0354,3.0541,3.0688,3.0795,3.0795,3.1102,3.1463,3.1436,3.145,3.1396,3.1102,3.0929,3.0862,3.0996,3.0808,3.0635,3.0795,3.0702,3.0555,3.0421,3.0501,3.0641,3.0641,3.0702,3.0795,3.0795,3.0795,3.0795,3.0795,3.0662,3.056,3.0426,3.0266,3.006,2.9927,2.9913,2.9913,2.9913,2.9913,2.9913,2.9913,2.9913,2.9913,2.9913,2.9913,2.9913,2.9913,2.9913,2.9913,2.9913,2.978,2.9713,2.3002,2.2777,2.2458,2.1854,2.3165,2.422,2.2926,2.2022,2.1661,2.2364,2.1601,2.0902,2.1304,2.2079,2.379,2.7335,2.9138,3.0364,3.1093,0.0,0.0,0.0,0.0,0.0,0.0,0.0,0.0,0.0,0.0,0.0,3.1655,3.235,3.266,3.2175,3.0521,2.945,2.9049,2.843,2.8699,2.9834,3.1276,3.0373,2.7416,2.7729,2.6883,2.5351,2.7044,2.8187,2.9023,3.041,3.0889,3.0688,3.0608,3.0635,3.0662,3.0493,3.04,3.04,3.0319,3.0114,3.0007,3.0528,3.0688,3.0715,3.0849,3.1156,3.1436,3.1276,3.1383,3.1517,3.1289,3.1176,3.1176,3.1176,3.1049,3.0955,3.1183,3.1049,3.0875,3.0808,3.0849,3.0889,3.0889,3.0955,3.0996,3.0996,3.0996,3.0996,3.0996,3.0742,3.0587,3.052,3.0194,2.9993,2.9927,2.9913,2.9913,2.9913,2.9913,2.9913,2.9913,2.9913,2.9913,2.9913,2.9913,2.9913,2.9913,2.9913,2.9913,2.9913,2.9913,2.9913,2.2727,2.3469,2.3622,2.0704,1.943,1.9704,2.2797,2.148,2.0366,2.3114,2.2907,2.219,2.1994,2.4009,2.6319,2.823,3.0434,3.1785,3.1352,0.0,0.0,0.0,0.0,0.0,0.0,0.0,0.0,0.0,0.0,0.0,2.9706,2.966,2.8897,2.7117,2.6717,2.5769,2.4122,2.6595,2.7794,2.7749,2.9469,2.9152,2.7104,2.8777,2.8547,2.6925,2.8404,2.8976,2.8999,3.0037,3.0453,3.0413,3.0087,3.0154,3.044,3.0413,3.04,3.036,3.0047,2.994,2.9967,3.0287,3.044,3.0533,3.1036,3.1036,3.0902,3.1156,3.1236,3.1249,3.1236,3.1176,3.1176,3.1176,3.1209,3.1196,3.1223,3.1162,3.1116,3.0849,3.1009,3.1196,3.1196,3.1423,3.1657,3.1657,3.1657,3.1657,3.1657,3.1343,3.1062,3.0795,3.0547,3.0266,2.994,2.9913,2.9913,2.9913,2.9913,2.9913,2.9913,2.9913,2.9913,2.9913,2.9913,2.9913,2.9913,2.9913,2.9913,2.9913,2.9913,2.9913,2.1839,2.1701,2.149,2.0942,1.9898,1.957,2.1849,2.2358,2.2795,2.429,2.4751,2.4796,2.4553,2.5711,2.7453,2.9633,3.1116,3.2429,3.3577,0.0,0.0,0.0,0.0,0.0,0.0,0.0,0.0,0.0,0.0,0.0,0.0,2.8244,2.8348,2.7585,2.6243,2.525,2.4598,2.4636,2.4542,2.4405,2.9092,3.0352,2.8524,2.899,2.8809,2.8223,2.8587,2.9161,2.9879,3.0265,3.0293,3.0074,2.9967,2.998,3.0087,3.0087,3.0087,3.0074,2.9953,2.9913,2.9993,3.0474,3.056,3.052,3.1049,3.1156,3.1049,3.0982,3.1223,3.1463,3.1276,3.1176,3.1276,3.1463,3.1356,3.1276,3.1463,3.1503,3.1476,3.1356,3.1423,3.1503,3.1503,3.1644,3.1711,3.1711,3.1711,3.1711,3.1711,3.141,3.1183,3.1076,3.0635,3.036,3.0207,3.002,2.9913,2.9913,2.9913,2.9913,2.9913,2.9913,2.9913,2.9913,2.9913,2.9913,2.9913,2.9913,2.9913,2.9913,2.9913,2.9913,2.0836,2.0055,1.9461,2.0062,1.9991,2.0324,2.2265,2.3205,2.4292,2.6347,2.6894,2.6625,2.5579,2.6256,0.0,0.0,3.0825,3.233,0.0,0.0,0.0,0.0,0.0,0.0,0.0,0.0,0.0,0.0,0.0,0.0,0.0,2.6226,2.662,2.6544,2.509,2.4587,2.5103,2.4329,2.4138,2.447,2.9448,3.0417,2.7818,2.8989,2.924,2.8793,2.8997,2.9611,3.04,3.0306,3.01,2.9913,2.9913,2.9913,2.9913,2.9913,2.9913,2.9913,2.9913,2.9913,3.002,3.0608,3.0528,3.0368,3.1129,3.1169,3.0929,3.0822,3.1076,3.1343,3.1142,3.1223,3.1396,3.1503,3.145,3.1423,3.1671,3.1711,3.1711,3.1711,3.1711,3.1711,3.1711,3.1711,3.1711,3.1711,3.1711,3.1711,3.1711,3.141,3.1196,3.1102,3.0648,3.04,3.04,3.0087,2.9913,2.9913,2.9913,2.9913,2.9913,2.9913,2.9913,2.9913,2.9913,2.9913,2.9913,2.9913,2.9913,2.9913,2.9913,2.9913,1.9838,1.8816,1.8033,1.7694,1.9201,2.1515,2.4459,2.3833,2.4103,2.9335,2.9249,2.7353,2.4557,2.5424,0.0,2.6224,2.9363,0.0,0.0,0.0,0.0,0.0,0.0,0.0,0.0,0.0,0.0,0.0,0.0,0.0,0.0,2.3272,2.3177,2.3011,2.2605,2.3219,2.4895,2.609,2.738,2.8812,3.0413,2.8788,2.4498,2.8843,2.9937,2.8613,2.9834,3.04,3.0386,3.0034,2.9913,2.9913,2.9913,2.9913,2.9913,2.9913,2.9913,2.9913,2.9913,2.9913,3.0007,3.0595,3.0394,3.014,3.135,3.1095,3.0467,3.0702,3.0795,3.0795,3.0795,3.1223,3.1597,3.1303,3.145,3.1711,3.1711,3.1711,3.1711,3.1711,3.1711,3.1711,3.1711,3.1711,3.1711,3.1711,3.1711,3.1711,3.1711,3.141,3.1116,3.0835,3.0587,3.0413,3.0413,3.01,2.9927,2.9913,2.9913,2.9913,2.9913,2.9913,2.9913,2.9913,2.9913,2.9913,2.9913,2.9913,2.9913,2.9913,2.9913,2.9913,1.9425,1.9265,1.9057,1.9139,2.1162,2.3768,2.6131,2.5788,2.5962,2.9339,3.0206,2.9573,2.7193,2.6792,0.0,0.0,0.0,0.0,0.0,0.0,0.0,0.0,0.0,0.0,0.0,0.0,0.0,0.0,0.0,0.0,0.0,2.2831,2.2642,2.2595,2.2189,2.2711,2.4248,2.4636,2.5556,2.7016,2.8319,2.8934,2.8937,3.0011,3.0259,2.9821,3.0,3.0047,3.0047,2.9953,2.9913,2.9913,2.9913,2.9913,2.9913,2.9913,2.9913,2.9913,2.9913,2.9913,2.998,3.0368,3.0413,3.0333,3.0694,3.0761,3.0595,3.0261,3.0474,3.0742,3.0587,3.0915,3.1383,3.1517,3.145,3.141,3.1671,3.1711,3.1711,3.1711,3.1503,3.1356,3.1356,3.1356,3.1356,3.1356,3.153,3.1711,3.1711,3.1597,3.1503,3.1423,3.1142,3.0889,3.0675,3.0581,3.0354,2.994,3.0114,3.014,2.9927,2.9913,2.9913,2.9913,2.9913,2.9913,2.9913,2.9913,2.9913,2.9913,2.9913,2.9913,1.9175,1.9333,1.9452,2.0561,2.2886,2.5251,2.6592,2.7864,2.8716,2.8572,3.0224,3.0808,2.7652,2.693,0.0,0.0,0.0,0.0,0.0,0.0,0.0,0.0,0.0,0.0,0.0,0.0,0.0,0.0,0.0,0.0,0.0,2.2406,2.2528,2.3022,2.2736,2.3529,2.5582,2.5629,2.6329,2.7658,2.8528,2.9456,3.0434,3.0261,3.0181,3.0181,2.9993,2.9913,2.9913,2.9913,2.9913,2.9913,2.9913,2.9913,2.9913,2.9913,2.9913,2.9913,2.9913,2.9913,2.9967,3.0306,3.0319,3.0247,3.0595,3.0662,3.0568,3.0327,3.0434,3.0581,3.0453,3.0702,3.1129,3.1423,3.145,3.145,3.1684,3.1711,3.1711,3.1711,3.153,3.137,3.1203,3.133,3.1356,3.1203,3.1476,3.1711,3.1711,3.1711,3.1711,3.1711,3.1396,3.1156,3.0982,3.0862,3.0648,3.0287,3.0434,3.0408,3.01,3.01,3.01,3.01,3.01,3.0034,2.9913,2.9913,2.9913,2.9913,2.9913,2.9913,1.9158,1.9331,1.973,2.2111,2.4459,2.6277,2.6489,2.9648,3.1364,2.7204,2.9646,3.1194,2.6876,2.6562,2.6635,0.0,0.0,0.0,0.0,0.0,0.0,0.0,0.0,0.0,0.0,0.0,0.0,0.0,0.0,0.0,0.0,2.2182,2.2806,2.3926,2.392,2.5175,2.7949,2.8099,2.8762,2.9913,3.0194,3.0181,2.9913,2.9913,2.9824,2.9689,2.9689,2.9689,2.9689,2.9689,2.9689,2.9689,2.9554,2.9599,2.9689,2.9689,2.9779,2.9913,2.9913,2.9913,2.9967,3.0279,3.0154,3.01,3.0875,3.0768,3.0493,3.0648,3.0541,3.04,3.0373,3.06,3.0862,3.1129,3.1436,3.1711,3.1711,3.1711,3.1711,3.1711,3.1671,3.1503,3.1236,3.1396,3.1476,3.1263,3.145,3.1684,3.1711,3.1711,3.1711,3.1711,3.1423,3.1203,3.1176,3.1009,3.0849,3.0795,3.0795,3.0675,3.0453,3.044,3.0426,3.04,3.04,3.0266,2.9953,2.9927,2.9913,2.9913,2.9913,2.9913,1.9662,2.0719,2.1897,2.4262,2.6406,2.814,2.8785,2.9125,2.8639,2.6427,2.9014,3.0983,2.8746,2.8207,2.7622,0.0,0.0,0.0,0.0,0.0,0.0,0.0,0.0,0.0,0.0,0.0,0.0,0.0,0.0,0.0,2.1858,2.2815,2.3483,2.3759,2.4638,2.5982,2.7768,2.7781,2.8525,0.0,2.998,2.998,2.9913,2.9913,2.9285,2.8191,2.8191,2.8191,2.8191,2.8191,2.8191,2.8056,2.69,2.7127,2.8191,2.8191,2.8912,2.9913,2.9913,2.9913,2.9927,2.9993,3.0127,3.0306,3.0207,3.0434,3.0621,3.0221,3.0234,3.0346,3.0074,3.0394,3.0808,3.0875,3.1289,3.1711,3.1711,3.1711,3.1711,3.1711,3.1303,3.0955,3.0902,3.0755,3.0814,3.1169,3.1276,3.141,3.1684,3.1711,3.1711,3.1711,3.1657,3.1476,3.1203,3.1383,3.1276,3.0822,3.0795,3.0768,3.0702,3.0702,3.0595,3.0413,3.04,3.0373,3.0306,3.0034,2.9913,2.9913,2.9913,2.9913,1.9501,2.0588,2.1833,2.4724,2.6645,2.795,2.8629,2.7889,2.6804,2.5996,2.8105,2.9774,2.8779,2.7739,2.694,0.0,0.0,0.0,0.0,0.0,0.0,0.0,0.0,0.0,0.0,0.0,0.0,0.0,0.0,2.1489,2.1489,2.2766,2.3843,2.4535,2.5879,2.7262,2.8732,2.8732,2.9072,2.9713,2.9713,2.9343,2.8661,2.8803,2.8043,2.6628,2.6628,2.7048,2.7694,2.7694,2.7694,2.7636,2.6855,2.7048,2.7694,2.7694,2.8642,2.9913,2.9913,2.9913,2.9913,2.9913,3.002,3.014,3.0127,3.0247,3.0341,3.0181,3.014,3.0114,2.9953,3.0247,3.0581,3.0581,3.1036,3.149,3.1684,3.1557,3.1503,3.1684,3.147,3.1169,3.1022,3.0875,3.0875,3.1183,3.1343,3.1436,3.145,3.1583,3.1711,3.1711,3.1711,3.161,3.145,3.1583,3.1591,3.1236,3.1076,3.0996,3.0996,3.0996,3.0862,3.0614,3.0702,3.0635,3.04,3.0207,3.006,2.9913,2.9913,2.9913,1.8998,2.0201,2.1557,2.464,2.5954,2.6684,2.7441,2.6313,2.5201,2.5502,2.6916,2.8031,2.7671,2.6422,0.0,0.0,0.0,0.0,0.0,0.0,0.0,0.0,0.0,0.0,0.0,0.0,0.0,0.0,0.0,2.1214,2.1214,2.2534,2.3984,2.5434,2.6909,2.834,2.9802,2.9556,2.9277,2.9053,2.8819,2.8054,2.6888,2.6851,2.6228,2.5115,2.507,2.5764,2.6957,2.7229,2.7184,2.6957,2.6957,2.6957,2.6957,2.6957,2.8043,2.951,2.951,2.9689,2.9913,2.9913,2.9913,2.9967,3.0207,3.014,3.0034,3.0266,3.014,2.998,2.9927,3.014,3.04,3.04,3.0728,3.1156,3.145,3.133,3.1236,3.153,3.1597,3.1503,3.1196,3.1156,3.1169,3.1176,3.1436,3.1517,3.133,3.1517,3.1711,3.1711,3.1711,3.1711,3.1711,3.1711,3.1711,3.1711,3.1383,3.1176,3.1176,3.1176,3.1116,3.0875,3.1102,3.0982,3.056,3.0507,3.0287,2.9993,2.9993,2.9967,1.837,2.0933,2.3626,2.5074,2.4924,2.4889,2.6402,2.458,2.2975,2.4225,2.5251,2.5879,2.5656,2.5374,0.0,0.0,0.0,0.0,0.0,0.0,0.0,0.0,0.0,0.0,0.0,0.0,0.0,0.0,2.1328,2.1214,2.1214,2.2534,2.3984,2.5434,2.6716,2.8048,2.9539,2.8116,2.736,2.7322,2.611,2.536,2.5106,2.3896,2.3462,2.356,2.3395,2.3518,2.3984,2.5263,2.5035,2.3892,2.3892,2.3892,2.3892,2.3892,2.5628,2.801,2.801,2.8822,2.9913,2.9913,2.9913,2.9927,2.9967,3.0127,3.0306,3.0034,3.0127,3.0293,2.998,3.014,3.04,3.04,3.0467,3.06,3.0849,3.0875,3.0942,3.1223,3.1289,3.1196,3.0902,3.0849,3.0942,3.1196,3.1263,3.1356,3.1583,3.1684,3.1711,3.1711,3.1711,3.1711,3.1711,3.1711,3.1711,3.1711,3.1383,3.1176,3.1176,3.1176,3.1162,3.1169,3.1162,3.1136,3.1116,3.0862,3.0581,3.0346,3.0346,3.0167,1.8957,2.1086,2.3212,2.4956,2.5226,2.5368,2.6652,2.519,2.3769,2.431,2.3904,2.3655,2.4463,2.3863,0.0,0.0,0.0,0.0,0.0,0.0,0.0,0.0,0.0,0.0,0.0,0.0,0.0,0.0,2.1102,2.0989,2.0989,2.2222,2.3271,2.3902,2.5267,2.6274,2.6906,2.621,2.577,2.5584,2.4139,2.3435,2.3358,2.1944,2.1457,2.1754,2.1655,2.2106,2.3021,2.3771,2.4188,2.4392,2.4478,2.5035,2.5764,2.5764,2.7093,2.8912,2.8912,2.9375,2.9913,2.9913,2.9913,2.9913,2.9913,3.0007,3.0087,2.9953,3.0007,3.0087,2.9953,3.0007,3.0114,3.0114,3.0114,3.0194,3.0533,3.0675,3.0929,3.1383,3.1476,3.1436,3.1303,3.1276,3.1276,3.1236,3.137,3.1463,3.1423,3.157,3.1711,3.1711,3.1711,3.1711,3.1711,3.1711,3.1711,3.1711,3.1383,3.1303,3.1463,3.1316,3.1303,3.1476,3.1476,3.1396,3.1176,3.0929,3.0648,3.04,3.0194,3.0047,1.8716,2.011,2.1485,2.3618,2.4607,2.5343,2.6418,2.5469,2.4381,0.0,2.2904,2.2,2.3159,2.2464,0.0,0.0,0.0,0.0,0.0,0.0,0.0,0.0,0.0,0.0,0.0,0.0,0.0,0.0,2.097,2.0792,2.0792,2.1631,2.2306,2.2708,2.3698,2.4393,2.472,2.4245,2.3913,2.369,2.2231,2.171,2.2014,2.0691,2.0148,2.0264,2.0367,2.1284,2.2718,2.3244,2.4083,2.5091,2.5286,2.6068,2.6996,2.6707,2.7727,2.933,2.933,2.9599,2.9913,2.9913,2.9913,2.9913,2.9913,2.9913,2.9913,2.9913,2.9913,2.9913,2.9913,2.9913,2.9913,2.9913,2.9913,2.998,3.0207,3.0595,3.1009,3.1383,3.1617,3.1711,3.1711,3.1711,3.1644,3.137,3.153,3.1583,3.137,3.153,3.1711,3.1711,3.1711,3.1711,3.1711,3.1711,3.1711,3.1711,3.1463,3.1436,3.1711,3.145,3.1436,3.1711,3.1711,3.1557,3.1343,3.1049,3.0795,3.0568,3.0207,3.0034,1.6518,1.7416,1.8615,2.032,2.1911,2.3416,2.481,2.4228,2.3431,2.3676,2.24,2.1252,2.1336,2.1451,0.0,0.0,0.0,0.0,0.0,0.0,0.0,0.0,0.0,0.0,0.0,0.0,0.0,0.0,2.097,2.0792,2.0792,2.0694,2.1253,2.2663,2.2543,2.3021,2.4215,2.2414,2.1505,2.1547,2.0137,2.018,2.1432,2.0174,1.9637,1.9666,2.0062,2.1136,2.2697,2.4141,2.4717,2.474,2.5035,2.5171,2.5116,2.3943,2.5354,2.783,2.783,2.8732,2.9913,2.9913,2.9913,2.9913,2.9913,2.9913,2.9913,2.9913,2.9913,2.9913,2.9913,2.9913,2.9913,2.9913,2.9913,2.9913,2.994,3.0608,3.1129,3.0889,3.1289,3.1711,3.1711,3.1711,3.1711,3.1698,3.1711,3.1711,3.1698,3.1711,3.1711,3.1711,3.1711,3.1711,3.1711,3.1711,3.1711,3.1711,3.1698,3.1698,3.1711,3.1698,3.1698,3.1711,3.1711,3.1711,3.165,3.1343,3.1149,3.1169,3.0595,3.0386,1.7416,1.8051,1.892,2.1405,2.2554,2.3124,2.3227,2.3226,2.2917,2.172,2.1183,2.0922,2.079,2.1045,0.0,0.0,0.0,0.0,0.0,0.0,0.0,0.0,0.0,0.0,0.0,0.0,0.0,0.0,0.0,2.0396,2.0396,2.0119,2.0148,2.0704,2.0508,2.0607,2.1037,2.0368,1.9968,1.9872,1.9483,1.9516,1.984,1.956,1.9401,1.9453,2.0406,2.0766,2.0811,2.2494,2.3665,2.4479,2.573,2.6891,2.7877,2.7429,2.8072,2.9092,2.9092,2.9465,2.9913,2.9913,2.9913,2.9913,2.9913,2.9913,2.9913,2.9913,2.9913,2.9913,2.9913,2.9913,2.9967,3.0154,3.0341,3.0434,3.0247,3.0595,3.0915,3.0808,3.1263,3.161,3.1423,3.1543,3.1711,3.1711,3.1711,3.1711,3.1711,3.1711,3.1711,3.1711,3.1711,3.1711,3.1711,3.1711,3.1711,3.1711,3.1711,3.1711,3.1711,3.1711,3.1711,3.1711,3.1476,3.1476,3.1711,3.1183,3.0942,3.0929,3.0354,3.0074,1.7275,1.7742,1.8544,2.1296,2.2104,2.2325,2.2784,2.3101,2.2782,2.1121,2.0963,2.1019,2.058,2.0715,0.0,0.0,0.0,0.0,0.0,0.0,0.0,0.0,0.0,0.0,0.0,0.0,0.0,0.0,0.0,0.0,2.0006,1.9684,1.9495,1.9495,1.9297,1.9155,1.9089,1.9014,1.8872,1.8664,1.8806,1.8843,1.8818,1.8995,1.9127,1.9235,2.0175,2.046,2.0423,2.205,2.3549,2.4901,2.5675,2.7016,2.8491,2.8686,2.8882,2.9141,2.9694,2.9913,2.9913,2.9913,2.9913,2.9824,2.933,2.951,2.9779,2.9285,2.951,2.9913,2.9913,2.9913,2.9967,3.0167,3.0354,3.0448,3.0247,3.0595,3.0875,3.0688,3.1116,3.1463,3.1263,3.1476,3.1711,3.1711,3.1805,3.1784,3.1724,3.1805,3.1784,3.1724,3.1711,3.1711,3.1711,3.1711,3.1711,3.1711,3.1711,3.1711,3.1711,3.1711,3.1711,3.1711,3.1476,3.1423,3.1517,3.1036,3.0849,3.0929,3.0341,3.0007,0.0,0.0,0.0,1.9517,2.013,2.0828,2.3337,2.3546,2.2953,2.2073,2.1797,2.145,2.06,2.0292,2.0261,0.0,0.0,0.0,0.0,0.0,0.0,0.0,0.0,0.0,0.0,0.0,0.0,0.0,1.9703,1.9581,1.9581,1.9392,1.9278,1.9269,1.9061,1.8894,1.8695,1.8487,1.8239,1.8001,1.801,1.8154,1.8392,1.861,1.8818,1.9017,1.9235,2.0229,2.1789,2.305,2.4552,2.5976,2.4855,2.5275,2.6648,2.7139,2.7382,2.7712,2.9301,2.9913,2.9869,2.9869,2.9824,2.9554,2.8101,2.8642,2.9465,2.8056,2.8732,2.9869,2.9869,2.9913,2.9913,2.9927,2.9927,2.9927,2.9927,3.0595,3.1036,3.052,3.0822,3.1176,3.1176,3.1476,3.1711,3.1711,3.1904,3.1984,3.1751,3.1917,3.1984,3.1751,3.1711,3.1711,3.1711,3.1711,3.1711,3.1711,3.1711,3.1711,3.1711,3.1711,3.1698,3.1698,3.1684,3.149,3.1209,3.0929,3.0929,3.1136,3.0608,3.0194,1.5808,0.0,0.0,0.0,0.0,0.0,1.9237,2.018,2.0778,1.9824,1.9652,1.9694,1.9647,1.959,1.9571,0.0,0.0,0.0,0.0,0.0,0.0,0.0,0.0,0.0,0.0,0.0,0.0,0.0,1.9325,1.9316,1.9155,1.8998,1.8818,1.8657,1.8409,1.8236,1.818,1.8123,1.7982,1.7774,1.7935,1.8038,1.8104,1.8383,1.86,1.884,1.9832,2.0601,2.1222,2.2769,2.4217,2.5604,2.6436,2.7271,2.8059,2.8173,2.8531,2.8999,2.9433,2.974,2.9734,2.8642,2.8326,2.8043,2.6537,2.6389,2.6764,2.7093,2.7727,2.8552,2.9599,2.9913,2.9967,3.0181,3.0234,3.0234,3.0234,3.0421,3.06,3.044,3.0822,3.1176,3.1176,3.1476,3.1711,3.1711,3.1744,3.1757,3.1724,3.1744,3.1757,3.1724,3.1711,3.1711,3.1711,3.1711,3.1711,3.1711,3.1711,3.1711,3.1711,3.1463,3.1343,3.1343,3.0942,3.0828,3.0915,3.0835,3.0728,3.0595,3.0207,2.9993,0.0,0.0,1.5968,0.0,0.0,0.0,1.8606,1.933,1.9891,0.0,2.0061,1.9966,1.9563,1.9465,1.9359,1.9097,0.0,0.0,0.0,0.0,0.0,0.0,0.0,0.0,0.0,1.9288,1.9165,1.879,1.8875,1.8815,1.8598,1.8475,1.8352,1.8229,1.8067,1.7963,1.7878,1.7878,1.7765,1.7567,1.7774,1.7925,1.802,1.8297,1.8515,1.8755,1.9479,2.0191,2.0846,2.1804,2.3381,2.538,2.6457,2.6735,2.6672,2.8083,2.8148,2.77,2.8358,2.917,2.9554,2.7456,2.7184,2.732,2.5218,2.5024,2.548,2.5446,2.6549,2.792,2.8777,2.9465,2.9967,3.014,3.0181,3.0032,2.9397,2.976,3.0181,3.0181,3.0648,3.1049,3.1049,3.1396,3.1711,3.1711,3.1818,3.181,3.1724,3.1818,3.1797,3.1724,3.1711,3.1711,3.1711,3.1711,3.1711,3.1711,3.1711,3.1711,3.1711,3.1503,3.1356,3.1176,3.0889,3.0688,3.0608,3.0608,3.0574,3.04,3.006,2.9913,0.0,0.0,0.0,0.0,0.0,0.0,1.9575,1.9655,1.9535,0.0,2.1212,2.0864,1.9658,1.9468,1.9274,1.844,0.0,0.0,0.0,0.0,0.0,0.0,0.0,0.0,1.8695,1.8847,1.8771,1.8354,1.8326,1.821,1.802,1.7991,1.7972,1.7972,1.7954,1.785,1.7652,1.7652,1.7567,1.7388,1.7595,1.7803,1.802,1.8297,1.8515,1.8714,1.8714,1.9439,2.0607,2.0607,2.2411,2.519,2.5545,2.4903,2.4186,2.7256,2.6891,2.5083,2.654,2.8073,2.9002,2.6344,2.6265,2.6731,2.4075,2.4121,2.4796,2.38,2.5491,2.7694,2.7875,2.8912,2.9913,2.9913,2.9913,2.9554,2.8236,2.8867,2.9689,2.9869,3.0394,3.0808,3.0835,3.1303,3.1711,3.1711,3.1891,3.1957,3.1751,3.1891,3.1957,3.1751,3.1711,3.1711,3.1711,3.1711,3.1711,3.1711,3.1711,3.1711,3.1711,3.1684,3.1476,3.1183,3.1116,3.0822,3.036,3.036,3.036,3.0346,3.0034,2.9913,0.0,0.0,0.0,0.0,0.0,0.0,1.718,1.7394,1.7685,0.0,1.7715,1.7591,1.7741,1.8105,1.7877,1.6236,1.7543,0.0,0.0,0.0,0.0,0.0,0.0,0.0,1.8477,1.8496,1.8335,1.7879,1.7851,1.7869,1.8001,1.784,1.7746,1.7746,1.7595,1.7491,1.7444,1.7444,1.7425,1.7388,1.7595,1.7803,1.802,1.8297,1.8515,1.8714,1.8714,1.9439,2.0607,2.0607,2.231,2.4975,2.5289,2.5317,2.542,2.6473,2.5977,2.4873,2.5337,2.5906,2.6253,2.5707,2.4887,2.4029,2.3479,2.2708,2.2442,2.4487,2.6083,2.7501,2.9047,2.9689,2.9913,2.9913,2.9913,2.9824,2.951,2.8777,2.8462,2.9689,3.0394,3.0862,3.1102,3.1436,3.1711,3.1711,3.1764,3.1778,3.1724,3.1764,3.1778,3.1724,3.1711,3.1711,3.1711,3.1711,3.1711,3.1711,3.1711,3.1711,3.1711,3.1436,3.1183,3.0889,3.0408,3.0114,3.0007,3.0007,3.0007,3.0007,2.994,2.9913,0.0,0.0,0.0,1.642,0.0,0.0,0.0,1.6953,1.7146,1.7797,1.771,1.753,1.7657,1.7888,1.7682,1.6581,1.771,1.8487,0.0,0.0,0.0,0.0,0.0,0.0,1.805,1.8135,1.8068,1.7708,1.7491,1.7511,1.769,1.7491,1.7464,1.7539,1.7444,1.7388,1.7388,1.7388,1.7388,1.7388,1.7595,1.7746,1.7859,1.825,1.8449,1.8563,1.8667,1.9082,1.9642,1.9642,2.0872,2.286,2.3768,2.4287,2.4532,2.4925,2.4875,2.4591,2.4041,2.4509,2.5139,2.3768,2.3352,2.3168,2.2488,2.2258,2.2534,2.3984,2.581,2.7546,2.8552,2.9375,2.9913,2.9913,2.9913,2.9689,2.8957,2.8777,2.8777,2.8777,2.9774,3.0621,3.0768,3.1156,3.145,3.145,3.157,3.1711,3.1711,3.1711,3.1711,3.1711,3.1711,3.1711,3.1711,3.1711,3.1711,3.1711,3.1711,3.1644,3.145,3.1303,3.1022,3.0581,3.014,2.9913,2.9913,2.9913,2.9913,2.9913,2.9913,2.9913,0.0,0.0,0.0,0.0,0.0,1.6467,0.0,0.0,0.0,1.8089,1.8143,0.0,0.0,0.0,0.0,0.0,0.0,0.0,0.0,0.0,0.0,0.0,0.0,0.0,1.7301,1.7375,1.7489,1.7624,1.7058,1.6898,1.7312,1.7199,1.7161,1.7265,1.7303,1.7322,1.7322,1.7369,1.7388,1.7388,1.7595,1.769,1.7699,1.8203,1.8392,1.8402,1.8619,1.8714,1.8714,1.8714,1.9316,2.0384,2.1992,2.274,2.2916,2.325,2.3503,2.3523,2.2535,2.3123,2.4023,2.2138,2.2356,2.3076,2.1945,2.2396,2.3444,2.3984,2.5855,2.7785,2.8056,2.9002,2.9913,2.9913,2.9913,2.9554,2.8372,2.8822,2.9195,2.8281,2.9061,2.9969,3.0381,3.0849,3.1203,3.1303,3.1517,3.1711,3.1711,3.1711,3.1711,3.1711,3.1711,3.1711,3.1711,3.1711,3.1711,3.1711,3.1711,3.1557,3.1316,3.1196,3.0929,3.0493,3.01,2.9913,2.9913,2.9913,2.9913,2.9913,2.9913,2.9913,0.0,0.0,0.0,0.0,1.6965,0.0,0.0,0.0,1.6953,1.6288,0.0,0.0,0.0,0.0,0.0,0.0,0.0,0.0,1.4417,0.0,0.0,0.0,0.0,0.0,0.0,1.556,1.5976,1.7312,1.6122,1.5865,1.7058,1.7114,1.7038,1.6878,1.7048,1.7142,1.7142,1.7293,1.7388,1.7388,1.7595,1.769,1.7699,1.8203,1.8392,1.8402,1.8619,1.8714,1.8714,1.8714,1.8796,1.906,2.0611,2.1294,2.1516,2.2033,2.1534,2.0685,2.0728,2.0984,2.1475,2.2484,2.3038,2.326,2.3122,2.3168,2.3846,2.6458,2.7456,2.801,2.933,2.9779,2.9913,2.9913,2.9913,2.9869,2.9689,2.8732,2.8281,2.942,2.8758,2.8524,3.0193,3.0902,3.1316,3.1583,3.1698,3.1711,3.1711,3.1711,3.1711,3.1711,3.1711,3.1711,3.1711,3.1711,3.1711,3.1711,3.1711,3.1698,3.1623,3.1116,3.0808,3.0742,3.0194,2.9913,2.9913,2.9913,2.9913,2.9913,2.9913,2.9913,0.0,0.0,0.0,0.0,0.0,0.0,1.6037,0.0,1.6326,0.0,0.0,0.0,0.0,0.0,0.0,0.0,1.6546,0.0,0.0,0.0,0.0,0.0,0.0,0.0,0.0,0.0,0.0,0.0,1.5498,1.5391,1.6841,1.6812,1.6812,1.6972,1.6944,1.6982,1.7105,1.719,1.7265,1.7388,1.7473,1.751,1.752,1.7861,1.8059,1.8191,1.8439,1.86,1.8714,1.8714,1.8714,1.8764,1.9414,2.0311,2.118,2.0625,2.0786,2.1148,2.0546,2.0367,2.0606,2.1433,2.1797,2.183,2.183,2.3007,2.4596,2.5906,2.7447,2.8942,2.9694,2.9913,2.9913,2.9913,2.9913,2.9913,2.9913,2.942,2.915,2.9779,2.942,2.9234,3.0037,3.0608,3.1049,3.1289,3.1577,3.1711,3.1711,3.1711,3.1711,3.1711,3.1517,3.1476,3.1698,3.1517,3.149,3.1711,3.1503,3.141,3.141,3.1009,3.0795,3.0795,3.0555,3.0341,3.0181,3.0181,3.0087,2.9913,2.9913,2.9913,1.4141,0.0,0.0,0.0,0.0,0.0,0.0,0.0,0.0,0.0,0.0,0.0,0.0,0.0,0.0,0.0,0.0,1.6754,0.0,0.0,0.0,0.0,0.0,0.0,0.0,0.0,0.0,1.558,1.4512,1.4593,1.6445,1.6396,1.6481,1.684,1.6764,1.6812,1.702,1.7076,1.7209,1.7388,1.7388,1.7388,1.7397,1.7595,1.7803,1.802,1.8267,1.8515,1.8714,1.8714,1.8714,1.8714,1.8714,1.9539,2.0614,1.9667,2.0193,2.1302,2.0433,2.0132,2.0334,2.1112,2.1072,2.0817,2.1274,2.3091,2.5102,2.5548,2.7535,2.9526,2.974,2.986,2.9913,2.9913,2.9913,2.9913,2.9913,2.9913,2.9913,2.9913,2.9913,2.9913,2.9913,3.0354,3.0835,3.1196,3.149,3.1711,3.1711,3.1711,3.1711,3.1711,3.1476,3.1436,3.1698,3.1476,3.1436,3.1698,3.1463,3.1343,3.1343,3.1062,3.0915,3.0915,3.0835,3.0648,3.04,3.04,3.0207,2.9913,2.9913,2.9913,0.0,0.0,0.0,1.396,0.0,0.0,0.0,0.0,1.7005,0.0,0.0,0.0,0.0,0.0,0.0,0.0,0.0,0.0,0.0,0.0,0.0,0.0,0.0,0.0,0.0,0.0,1.1754,1.4261,1.2857,1.3061,1.5766,1.592,1.6015,1.6207,1.6396,1.6594,1.6812,1.701,1.7209,1.7388,1.7388,1.7388,1.7397,1.7595,1.7803,1.802,1.8267,1.8515,1.8714,1.8714,1.8714,1.8714,1.8714,1.897,1.9339,1.9339,1.9562,1.9964,1.993,2.0053,2.0511,2.2276,2.179,2.0807,2.2438,2.3827,2.5115,2.6526,2.8191,2.9486,2.9499,2.9713,2.9913,2.9913,2.9913,2.9913,2.9913,2.9913,2.9913,2.9913,2.9913,2.9913,2.9913,3.0247,3.0768,3.1577,3.1711,3.1711,3.1711,3.1711,3.1711,3.1711,3.1711,3.1711,3.1711,3.1711,3.1711,3.1711,3.1711,3.1698,3.1698,3.137,3.1209,3.1209,3.0942,3.0648,3.04,3.04,3.0207,2.9913,2.9913,2.9913,0.0,0.0,1.5598,1.3963,0.0,0.0,0.0,0.0,0.0,0.0,0.0,0.0,0.0,0.0,0.0,0.0,0.0,0.0,0.0,0.0,0.0,0.0,0.0,0.0,0.0,0.0,0.0,1.3279,1.297,1.3519,1.5351,1.5848,1.6148,1.6214,1.6413,1.6519,1.6594,1.6802,1.701,1.7218,1.736,1.7454,1.7586,1.7661,1.7917,1.8258,1.8364,1.8515,1.8714,1.8714,1.9194,1.9978,2.016,2.0941,2.1714,1.9962,1.9562,2.0051,2.0988,2.0734,2.0335,2.2384,2.1824,2.0466,2.1167,2.243,2.4051,2.585,2.7728,2.9285,2.9673,2.9847,2.9913,2.9913,2.9913,2.9913,2.9913,2.9913,2.9913,2.9913,2.9913,2.9913,2.9913,3.002,3.0474,3.1564,3.1711,3.1617,3.1363,3.1276,3.1303,3.137,3.1209,3.1296,3.1684,3.1711,3.1711,3.1711,3.1711,3.1711,3.1711,3.157,3.1517,3.1517,3.1423,3.1223,3.0929,3.0929,3.0782,3.0488,3.0301,3.01,1.4267,1.4805,0.0,1.4414,1.4506,0.0,1.3611,0.0,0.0,0.0,0.0,0.0,0.0,0.0,0.0,0.0,0.0,0.0,0.0,1.3956,0.0,0.0,0.0,0.0,0.0,0.0,1.0743,1.2159,1.2351,1.2959,0.0,0.0,1.5838,1.61,1.6375,1.6556,1.6698,1.684,1.701,1.7218,1.7322,1.7454,1.7586,1.7652,1.7917,1.8248,1.8364,1.8515,1.8714,1.8714,1.9439,2.0617,2.0804,2.188,2.3102,2.1474,2.1064,2.1552,2.2955,2.2535,2.1636,2.3457,2.2745,2.1297,2.2128,2.3094,2.4241,2.5726,2.7531,2.9095,2.9593,2.9806,2.9913,2.9913,2.9913,2.9913,2.9913,2.9913,2.9913,2.9913,2.9913,2.9913,2.9913,2.9913,3.0247,3.1209,3.1577,3.1543,3.1183,3.1223,3.1316,3.1383,3.1209,3.1263,3.1684,3.1711,3.1711,3.1711,3.1711,3.1711,3.1711,3.1711,3.1818,3.2019,3.1818,3.1623,3.153,3.1283,3.1076,3.0795,3.0595,3.0354]},{"header":{"parameterUnit":"m.s-1","parameterCategory":1,"la1":30.6,"la2":29.2853,"lo1":-89.7004,"lo2":-87.6739,"dy":0.0162,"dx":0.0183,"nx":112,"ny":82,"refTime":"2023-09-29T18:00:00:Z","depth":0,"parameterNumber":3,"parameterNumberName":"V-component_of_WINDS"},"data":[0.0,0.0,0.0,0.0,0.0,0.0,0.0,0.0,0.0,0.0,0.0,0.0,0.0,0.0,0.0,0.0,0.0,0.0,0.0,0.0,0.0,0.0,0.0,0.0,0.0,0.0,0.0,0.0,0.0,0.0,0.0,0.0,0.0,0.0,0.0,0.0,0.0,0.0,0.0,0.0,0.0,0.0,0.0,0.0,0.0,0.0,0.0,0.0,0.0,0.0,0.0,0.0,0.0,0.0,0.0,0.0,0.0,0.0,0.0,0.0,0.0,0.0,0.0,0.0,0.0,0.0,0.0,0.0,0.0,0.0,0.0,0.0,0.0,0.0,0.0,0.0,0.0,0.0,0.0,0.0,0.0,0.0,0.0,0.0,0.0,0.0,0.0,0.0,0.0,0.0,0.0,3.2916,3.8824,4.245,4.2374,4.258,4.0687,3.5923,0.0,0.0,0.0,0.0,0.0,0.0,0.0,0.0,0.0,0.0,0.0,0.0,0.0,0.0,0.0,0.0,0.0,0.0,0.0,0.0,0.0,0.0,0.0,0.0,0.0,0.0,0.0,0.0,0.0,0.0,0.0,0.0,0.0,0.0,0.0,0.0,0.0,0.0,0.0,0.0,0.0,0.0,0.0,0.0,0.0,0.0,0.0,0.0,0.0,0.0,0.0,0.0,0.0,0.0,0.0,0.0,0.0,0.0,0.0,0.0,0.0,0.0,0.0,0.0,0.0,0.0,0.0,0.0,0.0,0.0,0.0,0.0,0.0,0.0,0.0,0.0,0.0,0.0,0.0,0.0,0.0,0.0,0.0,0.0,0.0,0.0,0.0,0.0,0.0,0.0,0.0,0.0,0.0,0.0,0.0,0.0,0.0,0.0,0.0,0.0,0.0,0.0,0.0,0.0,3.0557,3.6916,4.0923,4.3136,4.3143,4.2114,4.0071,3.6783,0.0,0.0,0.0,0.0,0.0,0.0,0.0,0.0,0.0,0.0,0.0,0.0,0.0,0.0,0.0,0.0,0.0,0.0,0.0,0.0,0.0,0.0,0.0,0.0,0.0,0.0,0.0,0.0,0.0,0.0,0.0,0.0,0.0,0.0,0.0,0.0,0.0,0.0,0.0,0.0,0.0,0.0,0.0,0.0,0.0,0.0,0.0,0.0,0.0,0.0,0.0,0.0,0.0,0.0,0.0,0.0,0.0,0.0,0.0,0.0,0.0,0.0,0.0,0.0,0.0,0.0,0.0,0.0,0.0,0.0,0.0,0.0,0.0,0.0,0.0,0.0,0.0,0.0,0.0,0.0,0.0,0.0,0.0,0.0,0.0,0.0,0.0,0.0,0.0,0.0,0.0,0.0,0.0,0.0,0.0,0.0,0.0,0.0,0.0,0.0,0.0,0.0,0.0,3.1323,3.5012,4.0045,4.2451,4.3816,4.3991,4.2638,4.0527,3.7584,3.6337,0.0,0.0,0.0,0.0,0.0,0.0,0.0,0.0,0.0,0.0,0.0,0.0,0.0,0.0,0.0,0.0,0.0,0.0,0.0,0.0,0.0,0.0,0.0,0.0,0.0,0.0,0.0,0.0,0.0,0.0,0.0,0.0,0.0,0.0,0.0,0.0,0.0,0.0,0.0,0.0,0.0,0.0,0.0,0.0,0.0,0.0,0.0,0.0,0.0,0.0,0.0,0.0,0.0,0.0,0.0,0.0,0.0,0.0,0.0,0.0,0.0,0.0,0.0,0.0,0.0,0.0,0.0,0.0,0.0,0.0,0.0,0.0,0.0,0.0,0.0,0.0,0.0,0.0,0.0,0.0,0.0,0.0,0.0,0.0,0.0,0.0,0.0,0.0,0.0,0.0,0.0,0.0,0.0,0.0,0.0,0.0,0.0,0.0,0.0,0.0,0.0,0.0,3.6417,3.9131,4.2373,4.3628,4.4312,4.4587,4.2706,4.0506,3.8046,3.5778,0.0,0.0,0.0,0.0,0.0,0.0,0.0,0.0,0.0,0.0,0.0,0.0,0.0,0.0,0.0,0.0,0.0,0.0,0.0,0.0,0.0,0.0,0.0,0.0,0.0,0.0,0.0,0.0,0.0,0.0,0.0,0.0,0.0,0.0,0.0,0.0,0.0,0.0,0.0,0.0,0.0,0.0,0.0,0.0,0.0,0.0,0.0,0.0,0.0,0.0,0.0,0.0,0.0,0.0,0.0,0.0,0.0,0.0,0.0,0.0,0.0,0.0,0.0,0.0,0.0,0.0,0.0,0.0,0.0,0.0,0.0,0.0,0.0,0.0,0.0,0.0,0.0,0.0,0.0,0.0,0.0,0.0,0.0,0.0,0.0,0.0,0.0,0.0,0.0,0.0,0.0,0.0,0.0,0.0,0.0,0.0,0.0,0.0,0.0,0.0,0.0,0.0,3.7703,4.1025,4.369,4.4321,4.4587,4.4615,4.1318,3.8836,3.7956,3.3802,0.0,0.0,0.0,0.0,0.0,0.0,0.0,0.0,0.0,0.0,0.0,0.0,0.0,0.0,0.0,0.0,0.0,0.0,0.0,0.0,0.0,0.0,0.0,0.0,0.0,0.0,0.0,0.0,0.0,0.0,0.0,0.0,0.0,0.0,0.0,0.0,0.0,0.0,0.0,0.0,0.0,0.0,0.0,0.0,0.0,0.0,0.0,0.0,0.0,0.0,0.0,0.0,0.0,0.0,0.0,0.0,0.0,0.0,0.0,0.0,0.0,0.0,0.0,0.0,0.0,0.0,0.0,0.0,0.0,0.0,0.0,0.0,0.0,0.0,0.0,0.0,0.0,0.0,0.0,0.0,0.0,0.0,0.0,0.0,0.0,0.0,0.0,0.0,0.0,0.0,0.0,0.0,0.0,0.0,0.0,0.0,0.0,0.0,0.0,0.0,0.0,0.0,3.9144,4.2061,0.0,4.453,4.4615,4.4615,4.1995,3.9681,3.8012,0.0,0.0,0.0,0.0,0.0,0.0,0.0,0.0,0.0,0.0,0.0,0.0,0.0,0.0,0.0,0.0,0.0,0.0,0.0,0.0,0.0,0.0,0.0,0.0,0.0,0.0,0.0,0.0,0.0,0.0,0.0,0.0,0.0,0.0,0.0,0.0,0.0,0.0,0.0,0.0,0.0,0.0,0.0,0.0,0.0,0.0,0.0,0.0,0.0,0.0,0.0,0.0,0.0,0.0,0.0,0.0,0.0,0.0,0.0,0.0,0.0,0.0,0.0,0.0,0.0,0.0,0.0,0.0,0.0,0.0,0.0,0.0,0.0,0.0,0.0,0.0,0.0,0.0,0.0,0.0,0.0,0.0,0.0,0.0,0.0,0.0,0.0,0.0,0.0,0.0,0.0,0.0,0.0,0.0,0.0,0.0,0.0,0.0,0.0,0.0,0.0,0.0,3.6956,4.0284,4.2954,0.0,4.4615,4.4615,4.4615,4.188,3.9614,3.8328,0.0,0.0,0.0,0.0,0.0,0.0,0.0,0.0,0.0,0.0,0.0,0.0,0.0,0.0,0.0,0.0,0.0,0.0,0.0,0.0,0.0,0.0,0.0,0.0,0.0,0.0,0.0,0.0,0.0,0.0,0.0,0.0,0.0,0.0,0.0,0.0,0.0,0.0,0.0,0.0,0.0,0.0,0.0,0.0,0.0,0.0,0.0,0.0,0.0,0.0,0.0,0.0,0.0,0.0,0.0,0.0,0.0,0.0,0.0,0.0,0.0,0.0,0.0,0.0,0.0,0.0,0.0,0.0,0.0,0.0,0.0,0.0,0.0,0.0,0.0,0.0,0.0,0.0,0.0,0.0,0.0,0.0,0.0,0.0,0.0,0.0,0.0,0.0,0.0,0.0,0.0,0.0,0.0,0.0,0.0,0.0,0.0,0.0,0.0,0.0,0.0,0.0,3.7563,4.105,4.3727,4.4499,4.4615,4.4615,4.4615,4.0493,3.8227,0.0,0.0,0.0,0.0,0.0,0.0,0.0,0.0,0.0,0.0,0.0,0.0,0.0,0.0,0.0,0.0,0.0,0.0,0.0,0.0,0.0,0.0,0.0,0.0,0.0,0.0,0.0,0.0,0.0,0.0,0.0,0.0,0.0,0.0,0.0,0.0,0.0,0.0,0.0,0.0,0.0,0.0,0.0,0.0,0.0,0.0,0.0,0.0,0.0,0.0,0.0,0.0,0.0,0.0,0.0,0.0,0.0,0.0,0.0,0.0,0.0,0.0,0.0,0.0,0.0,0.0,0.0,0.0,0.0,0.0,0.0,0.0,0.0,0.0,0.0,0.0,0.0,0.0,0.0,0.0,0.0,0.0,0.0,0.0,0.0,0.0,0.0,0.0,0.0,0.0,0.0,0.0,0.0,0.0,0.0,0.0,0.0,0.0,0.0,0.0,0.0,0.0,0.0,3.8962,4.2139,4.433,4.4567,4.4615,4.4615,4.4615,4.1433,3.9525,3.9762,0.0,0.0,0.0,0.0,0.0,0.0,0.0,0.0,0.0,0.0,0.0,0.0,0.0,0.0,0.0,0.0,0.0,0.0,0.0,0.0,0.0,0.0,0.0,0.0,0.0,0.0,0.0,0.0,0.0,0.0,0.0,0.0,0.0,0.0,0.0,0.0,0.0,0.0,0.0,0.0,0.0,0.0,0.0,0.0,0.0,0.0,0.0,0.0,0.0,0.0,0.0,0.0,0.0,0.0,0.0,0.0,0.0,0.0,0.0,0.0,0.0,0.0,0.0,0.0,0.0,0.0,0.0,0.0,0.0,0.0,0.0,0.0,0.0,0.0,0.0,0.0,0.0,0.0,0.0,0.0,0.0,0.0,0.0,0.0,0.0,0.0,0.0,0.0,0.0,0.0,0.0,0.0,0.0,0.0,0.0,0.0,0.0,0.0,0.0,0.0,0.0,0.0,3.9985,4.2761,4.4615,4.4615,4.4615,4.4615,4.4615,4.1839,4.0113,4.0113,0.0,0.0,0.0,0.0,0.0,0.0,0.0,0.0,0.0,0.0,0.0,0.0,0.0,0.0,0.0,0.0,0.0,0.0,0.0,0.0,0.0,0.0,0.0,0.0,0.0,0.0,0.0,0.0,0.0,0.0,0.0,0.0,0.0,0.0,0.0,0.0,0.0,0.0,0.0,0.0,0.0,0.0,0.0,0.0,0.0,0.0,0.0,0.0,0.0,0.0,0.0,0.0,0.0,0.0,0.0,0.0,0.0,0.0,0.0,0.0,0.0,0.0,0.0,0.0,0.0,0.0,0.0,0.0,0.0,0.0,0.0,0.0,0.0,0.0,0.0,0.0,0.0,0.0,0.0,0.0,0.0,0.0,0.0,0.0,0.0,0.0,0.0,0.0,0.0,0.0,0.0,0.0,0.0,0.0,0.0,0.0,0.0,0.0,0.0,0.0,0.0,0.0,4.0836,4.3164,4.4702,4.4702,4.4702,4.4668,4.4615,4.1907,4.0214,4.0214,0.0,0.0,0.0,0.0,0.0,0.0,0.0,0.0,0.0,0.0,0.0,0.0,0.0,0.0,0.0,0.0,0.0,0.0,0.0,0.0,0.0,0.0,0.0,0.0,0.0,0.0,0.0,0.0,0.0,0.0,0.0,0.0,0.0,0.0,0.0,0.0,0.0,0.0,0.0,0.0,0.0,0.0,0.0,0.0,0.0,0.0,0.0,0.0,0.0,0.0,0.0,0.0,0.0,0.0,0.0,0.0,0.0,0.0,0.0,0.0,2.8148,0.0,0.0,0.0,0.0,0.0,0.0,0.0,0.0,0.0,0.0,0.0,0.0,0.0,0.0,0.0,0.0,0.0,0.0,0.0,0.0,0.0,0.0,0.0,0.0,0.0,0.0,0.0,0.0,0.0,0.0,0.0,0.0,0.0,0.0,0.0,0.0,0.0,0.0,0.0,0.0,0.0,4.2286,4.4249,4.5466,4.5466,4.5466,4.5229,4.4649,4.2367,4.0967,4.0967,3.759,0.0,0.0,0.0,0.0,0.0,0.0,0.0,0.0,0.0,0.0,0.0,0.0,0.0,0.0,0.0,0.0,0.0,0.0,0.0,0.0,0.0,0.0,0.0,0.0,0.0,0.0,0.0,0.0,0.0,0.0,0.0,0.0,0.0,0.0,0.0,0.0,0.0,0.0,0.0,0.0,0.0,0.0,0.0,0.0,0.0,0.0,0.0,0.0,0.0,0.0,0.0,0.0,0.0,0.0,0.0,0.0,0.0,0.0,0.0,0.0,3.1034,0.0,0.0,0.0,0.0,0.0,0.0,0.0,0.0,0.0,0.0,0.0,0.0,0.0,0.0,0.0,0.0,0.0,0.0,0.0,0.0,0.0,0.0,0.0,0.0,0.0,0.0,0.0,0.0,0.0,0.0,0.0,0.0,0.0,0.0,0.0,0.0,0.0,0.0,0.0,0.0,4.3482,4.4907,4.5703,4.5703,4.5703,4.5399,4.4668,4.2841,4.1576,4.1238,3.9063,0.0,0.0,0.0,0.0,0.0,0.0,0.0,0.0,0.0,0.0,0.0,0.0,0.0,0.0,0.0,0.0,0.0,0.0,0.0,0.0,0.0,0.0,0.0,0.0,0.0,0.0,0.0,0.0,0.0,0.0,0.0,0.0,0.0,0.0,0.0,0.0,0.0,0.0,0.0,0.0,0.0,0.0,0.0,0.0,0.0,0.0,0.0,0.0,0.0,0.0,0.0,0.0,0.0,4.135,4.2415,4.3019,4.3901,4.4361,4.4308,4.0757,3.77,3.519,0.0,0.0,0.0,0.0,0.0,0.0,0.0,0.0,0.0,0.0,0.0,0.0,0.0,0.0,0.0,0.0,0.0,0.0,0.0,0.0,0.0,0.0,0.0,0.0,0.0,4.4374,4.3858,0.0,0.0,0.0,0.0,0.0,0.0,0.0,0.0,0.0,0.0,0.0,0.0,4.4328,4.5379,4.594,4.6061,4.5974,4.5602,4.4838,4.3382,4.2185,4.1441,4.0717,3.9396,0.0,0.0,0.0,0.0,0.0,0.0,0.0,0.0,0.0,0.0,0.0,0.0,0.0,0.0,0.0,0.0,0.0,0.0,0.0,0.0,0.0,0.0,0.0,0.0,0.0,0.0,0.0,0.0,0.0,0.0,0.0,0.0,3.0853,3.1008,0.0,0.0,0.0,0.0,0.0,0.0,0.0,0.0,0.0,0.0,0.0,0.0,0.0,0.0,4.333,4.4242,4.503,4.5702,4.779,4.8727,4.8606,5.0254,5.1597,5.2502,5.1597,0.0,4.0026,3.6912,0.0,0.0,0.0,0.0,0.0,0.0,0.0,0.0,0.0,0.0,0.0,0.0,0.0,0.0,0.0,0.0,0.0,0.0,0.0,0.0,0.0,0.0,4.2317,4.4822,4.6427,4.7102,0.0,4.4168,4.2451,4.1157,0.0,0.0,0.0,0.0,0.0,0.0,0.0,0.0,4.4423,4.5785,4.6887,4.7549,4.7056,4.6346,4.5635,4.4133,4.2949,4.2185,4.1474,4.0521,3.9371,3.9632,0.0,0.0,0.0,0.0,0.0,0.0,0.0,0.0,0.0,0.0,0.0,0.0,0.0,0.0,0.0,0.0,0.0,0.0,0.0,0.0,0.0,0.0,0.0,0.0,0.0,0.0,0.0,0.0,0.0,3.1368,3.3674,3.217,3.3904,3.4473,0.0,0.0,0.0,0.0,0.0,0.0,0.0,0.0,0.0,4.2535,4.5372,4.7579,4.8995,5.0425,5.1766,5.3061,5.3585,5.443,5.5522,5.6322,5.6964,5.7444,5.7286,5.4702,5.0153,4.438,4.1445,4.0113,0.0,0.0,0.0,0.0,0.0,3.7434,3.9131,3.9873,0.0,0.0,0.0,0.0,0.0,0.0,0.0,0.0,0.0,0.0,0.0,0.0,0.0,4.8367,4.9273,4.9544,4.8815,4.7876,4.6471,0.0,4.3517,4.3031,4.2141,0.0,0.0,0.0,0.0,4.4359,4.5669,4.6752,4.7549,4.7887,4.7616,4.6955,4.579,4.508,4.4167,4.2983,4.2611,4.2064,4.1216,4.0881,3.999,0.0,0.0,0.0,0.0,0.0,0.0,0.0,0.0,0.0,0.0,0.0,0.0,0.0,0.0,0.0,0.0,0.0,0.0,0.0,0.0,0.0,0.0,0.0,0.0,0.0,0.0,0.0,0.0,3.3863,3.6278,3.3722,3.6736,3.8096,0.0,0.0,0.0,0.0,0.0,0.0,4.0968,4.5675,4.864,4.9239,5.2722,5.4847,5.5446,5.6886,5.8201,5.9336,5.8795,5.9268,6.0689,6.0689,6.0689,6.0655,6.0429,5.996,5.8838,5.1114,4.6921,4.5037,4.1438,4.038,4.0884,4.0794,4.1682,4.3167,4.5183,4.6109,4.6319,4.6315,0.0,4.3253,4.0489,0.0,0.0,0.0,0.0,4.3212,4.543,4.7903,5.0236,5.1708,5.2216,5.2148,5.142,5.1267,5.0236,0.0,4.6718,4.6641,4.5266,0.0,0.0,0.0,0.0,4.5838,4.6955,4.7549,4.7988,4.8157,4.8022,4.7447,4.6365,4.5925,4.5215,4.4065,4.3795,4.3369,4.2625,4.2049,4.1197,3.9941,0.0,0.0,0.0,0.0,0.0,0.0,0.0,0.0,0.0,0.0,0.0,0.0,0.0,0.0,0.0,0.0,0.0,0.0,0.0,0.0,0.0,0.0,0.0,0.0,0.0,0.0,0.0,0.0,0.0,3.6776,4.1041,0.0,0.0,0.0,0.0,4.095,4.4396,4.702,4.8404,5.274,5.6171,5.8266,6.0636,6.255,6.3971,6.4086,6.3815,6.3207,6.3173,6.2854,6.2299,6.2299,6.2299,6.2245,6.1267,6.1897,6.2935,5.4449,5.0897,5.0457,4.6756,4.5377,4.554,4.6152,4.6505,4.6736,4.7512,4.7793,4.8112,5.0204,4.9433,4.7396,4.5774,4.426,0.0,0.0,4.583,4.6953,4.9221,5.0964,5.2503,5.4059,5.4972,5.5259,5.4532,5.438,5.3078,0.0,4.7819,4.7601,4.6809,0.0,4.7432,4.6775,4.7297,4.7752,4.7853,4.7887,4.8157,4.8883,4.8326,4.7887,4.7819,4.65,4.5669,4.5587,4.4939,4.4195,4.3389,4.3321,4.2936,4.2145,4.189,0.0,0.0,0.0,0.0,0.0,0.0,0.0,0.0,0.0,0.0,0.0,0.0,0.0,0.0,0.0,0.0,0.0,0.0,0.0,0.0,0.0,0.0,0.0,0.0,0.0,0.0,0.0,0.0,4.3799,4.7258,0.0,4.607,4.5507,4.6161,4.8254,5.1008,5.3651,5.6003,5.9505,6.2226,6.3951,6.5764,6.6948,6.7489,6.7489,6.7354,6.7083,6.5628,6.529,6.5933,6.5459,6.4986,6.4512,6.4647,6.4573,6.4145,6.1393,5.8689,5.5902,5.2672,5.1729,5.2169,5.2152,5.2639,5.3329,5.3799,5.3802,5.3501,5.2892,5.1715,5.0275,4.8928,4.8013,4.7583,4.8326,4.9436,5.0655,5.193,5.3382,5.4617,5.5158,5.5496,5.5631,5.5361,5.531,5.482,5.323,5.1742,5.0507,4.9747,4.9458,4.9221,4.8951,4.9154,4.9323,4.9323,4.9713,5.0119,5.0389,4.9763,4.912,4.8631,4.7259,4.621,4.5722,4.5007,4.4465,4.4195,4.366,4.3034,4.2256,4.2143,4.1358,0.0,0.0,0.0,0.0,0.0,0.0,0.0,0.0,0.0,0.0,0.0,0.0,0.0,0.0,0.0,0.0,0.0,0.0,0.0,0.0,0.0,0.0,0.0,0.0,0.0,0.0,4.8529,4.9558,5.2843,5.44,5.2875,5.2572,5.3477,5.5918,5.8641,6.1095,6.3024,6.573,6.7692,6.8673,6.9925,7.0567,7.0567,7.0567,7.0466,7.0195,6.8673,6.8199,6.8639,6.7929,6.7184,6.6584,6.6749,6.6643,6.6336,6.6303,6.4592,6.1704,5.849,5.7543,5.7946,5.7673,5.7864,5.8318,5.8261,5.81,5.7645,5.5902,5.4867,5.4105,5.3061,5.2572,5.2505,5.296,5.367,5.4482,5.548,5.6274,5.6883,5.7119,5.7145,5.703,5.6869,5.6897,5.6935,5.6744,5.4923,5.3213,5.2469,5.2164,5.1894,5.1673,5.1402,5.1267,5.1267,5.1217,5.1201,5.1201,5.0541,4.9796,4.9052,4.7868,4.6752,4.5756,4.5229,4.4871,4.4601,4.4079,4.3426,4.258,4.2828,4.2259,4.0911,0.0,0.0,0.0,0.0,0.0,0.0,0.0,0.0,0.0,0.0,0.0,0.0,0.0,0.0,0.0,0.0,0.0,0.0,0.0,0.0,0.0,0.0,0.0,4.3751,5.0193,5.4567,5.3926,5.7711,5.981,5.8441,6.0283,6.2178,6.3612,6.7151,6.9214,6.9248,7.1278,7.2428,7.2462,7.3138,7.3534,7.3534,7.3534,7.3138,7.2428,7.2428,7.165,7.0285,6.9553,6.8919,6.8353,6.7352,6.7996,6.968,6.8731,6.8196,6.759,6.3937,6.2502,6.2502,6.2502,6.2009,6.1264,6.0419,6.0148,6.0013,5.925,5.9066,5.8915,5.8223,5.8019,5.8189,5.8881,5.8543,5.834,5.9776,5.9607,5.9253,5.9964,6.0021,5.9727,5.9198,5.9338,5.9367,5.8858,5.7155,5.5582,5.4804,5.5277,5.5462,5.4753,5.4025,0.0,5.3585,5.2249,5.1302,5.1336,5.0642,4.988,4.9154,4.8394,4.7312,4.5872,4.5771,4.5399,4.4702,4.4682,4.4279,4.3404,4.4047,4.4003,4.3119,0.0,0.0,0.0,0.0,0.0,0.0,0.0,0.0,0.0,0.0,0.0,0.0,0.0,0.0,0.0,0.0,0.0,0.0,0.0,0.0,0.0,0.0,5.2019,5.1689,5.5208,5.9342,6.3417,6.4998,6.6034,6.6766,6.7409,6.8132,6.9057,7.0601,7.1718,7.2259,7.2891,7.3443,7.3984,7.4187,7.4289,7.4289,7.4289,7.3916,7.3172,7.2665,7.2462,7.2586,7.1819,7.1109,7.0454,7.0163,6.9789,6.9311,6.9366,6.9132,6.8504,6.5831,6.4803,6.4735,6.4174,6.3531,6.2699,6.1434,6.096,6.0858,6.0047,6.0075,6.0426,6.0221,6.0529,6.0887,6.0563,6.0403,6.0452,6.0858,6.0724,6.0647,6.1347,6.1442,6.1276,6.112,6.0738,6.0317,6.02,5.9233,5.8099,5.697,5.6607,5.6258,5.5496,5.5225,0.0,5.509,5.4262,5.389,5.4414,5.2807,5.1623,5.142,4.9729,4.8293,4.7346,4.6786,4.6413,4.6191,4.6191,4.5805,4.4916,4.4463,4.4137,0.0,0.0,0.0,0.0,0.0,0.0,0.0,0.0,0.0,0.0,0.0,0.0,0.0,0.0,0.0,0.0,0.0,0.0,0.0,0.0,0.0,0.0,5.4597,5.9244,6.1334,6.2838,6.5222,6.9316,6.9789,7.0263,7.1469,7.1605,7.1887,7.2608,7.3375,7.395,7.439,7.4424,7.4627,7.5067,7.5067,7.5067,7.5067,7.5067,7.4864,7.4424,7.3984,7.4018,7.439,7.3646,7.3105,0.0,7.236,7.1751,7.0939,7.1243,7.1006,0.0,0.0,0.0,0.0,0.0,6.5053,6.4241,6.3091,6.2828,6.2993,6.2517,6.2781,6.3299,6.3444,6.3532,6.3601,6.3676,6.3307,6.3017,6.3507,6.3072,6.2664,6.3297,6.3066,6.2644,6.2404,6.208,6.1766,6.1588,6.0891,0.0,5.9044,5.8169,5.7371,5.6733,5.6341,5.6139,5.6139,5.5513,5.5108,5.5243,5.3788,5.2435,5.1454,4.9932,0.0,0.0,0.0,4.68,4.68,4.6455,0.0,0.0,0.0,4.5211,4.5211,0.0,0.0,0.0,4.4331,4.4036,0.0,0.0,0.0,0.0,0.0,0.0,0.0,0.0,0.0,0.0,0.0,0.0,0.0,0.0,0.0,0.0,5.9931,6.5304,7.1019,7.1312,7.1413,7.2631,7.2766,7.3071,7.3815,7.3974,7.4289,7.4931,7.5574,7.5946,7.5946,0.0,0.0,0.0,0.0,7.5777,7.5709,7.5709,7.5709,7.5709,7.5709,7.5709,7.5676,7.5033,7.4695,7.4536,7.3916,7.3601,7.35,7.35,7.3174,7.2406,7.0116,6.918,6.8944,6.7557,6.6659,6.6038,6.5393,0.0,0.0,6.5857,6.6203,6.6703,6.7095,6.676,6.6442,6.7386,6.6656,6.5866,6.6848,6.6004,6.5019,6.5495,6.4862,6.3988,6.3465,6.3499,6.3458,6.302,6.2223,6.1465,6.0987,5.9685,5.851,5.7972,5.734,5.6934,5.6934,5.6274,5.5597,5.5023,0.0,0.0,5.0793,4.9763,4.8646,4.7259,4.7105,4.7056,4.7056,4.6321,4.5882,4.5882,4.6545,4.6909,4.7008,4.8422,4.9187,4.9172,4.6437,4.6234,0.0,0.0,0.0,0.0,0.0,0.0,0.0,0.0,0.0,0.0,0.0,0.0,0.0,0.0,0.0,6.0001,6.5779,7.0816,7.4333,7.527,7.5473,7.51,7.5067,7.5371,7.6183,7.6758,7.7188,7.7333,7.7468,7.7561,7.7561,7.7561,0.0,7.669,7.6657,7.6352,7.5709,7.5709,7.5709,7.5709,0.0,0.0,7.5709,7.554,7.5168,7.4593,7.4458,7.4052,7.35,7.35,7.3776,7.3895,7.1082,6.962,6.9079,6.8774,6.8669,6.867,6.8591,6.8293,6.8029,6.8082,6.8005,6.8071,6.8761,6.9313,0.0,6.9182,6.9004,6.8786,6.838,6.7465,6.68,6.7486,6.6877,6.6027,6.5739,6.5192,6.467,6.4298,6.3226,6.2373,6.2307,6.0286,5.851,5.7972,5.7798,5.7697,5.7697,5.7036,5.6765,5.7205,5.5531,5.4194,5.3771,5.1928,5.0389,4.9541,4.8883,4.8578,4.8578,4.8407,4.8329,4.8329,4.8464,4.8834,4.9407,4.9734,5.0202,5.0761,4.9569,4.9232,0.0,0.0,0.0,0.0,0.0,0.0,0.0,0.0,0.0,0.0,0.0,4.7473,0.0,0.0,6.2091,6.6196,7.1244,7.5303,7.713,7.8077,7.8111,7.6995,7.6826,7.73,7.8456,7.856,7.8859,7.9639,7.9001,7.8551,7.8551,7.8179,7.7807,7.7468,7.7096,7.6724,7.6284,7.5912,7.5709,7.5709,7.5709,7.5709,7.5709,7.5709,7.5506,7.5168,7.5168,7.4931,7.463,7.4776,7.5295,7.5782,7.4101,7.2894,7.2016,7.1807,7.1568,7.1301,7.0915,7.0554,7.0196,7.023,7.037,7.063,7.1187,7.1327,7.1431,7.2019,7.1696,7.1095,7.0934,6.9925,6.9002,6.9212,6.7858,6.6683,6.7322,6.672,6.601,6.5836,6.4954,6.3904,6.3021,6.1413,5.9943,5.9053,5.8624,5.8321,5.7967,5.7595,5.734,5.734,5.6359,5.5243,5.4126,5.2283,5.0897,5.015,5.0101,5.0085,5.0085,5.0085,5.0085,5.0085,5.0085,5.0288,5.0642,5.0642,5.1158,5.2127,5.2193,5.1641,0.0,0.0,0.0,0.0,0.0,0.0,0.0,4.327,4.5116,4.9426,5.2222,5.5229,5.9715,6.4559,6.8919,7.209,7.5879,7.8778,7.9833,8.048,8.0471,7.9415,7.9031,7.9338,8.0535,8.0243,8.0495,8.1727,8.0526,7.979,7.996,7.9272,7.8724,7.844,7.7841,7.7401,7.713,7.6454,7.6149,7.6149,7.6149,7.6149,7.6149,7.6147,7.6127,7.6116,7.6205,7.623,7.6255,7.6612,7.7167,7.7803,7.757,7.6988,7.6177,7.52,7.4393,7.3724,7.3243,7.2776,7.2443,7.2587,7.2866,7.3213,7.3608,7.3298,7.3124,7.4697,7.4206,7.3208,7.3285,7.2239,7.1011,7.0596,6.866,6.7209,6.8249,6.7872,6.7241,6.7049,6.6508,6.5644,6.4233,6.3032,6.1778,6.0177,5.9413,5.8795,5.8186,5.7983,5.7679,5.707,5.69,5.5919,5.3687,5.2351,5.1269,5.0371,5.0863,5.1201,5.1201,5.1201,5.1269,5.1404,5.1404,5.1604,5.2006,5.2006,5.2686,5.393,5.4566,5.3914,3.6394,3.6979,3.9327,4.1894,4.2784,4.5098,0.0,5.3868,5.4213,5.7746,6.0939,6.3687,6.5574,6.9147,7.2983,7.6656,7.8772,8.0667,8.28,8.3172,8.338,8.3866,8.2797,8.2066,8.2207,8.2752,8.3163,8.3365,8.2521,8.2345,8.3045,8.2335,8.1307,7.9997,7.987,7.9194,7.7899,7.7797,7.7764,7.7764,7.7764,7.7764,7.773,7.7678,7.7673,7.7651,7.7967,7.8104,7.8112,7.8512,7.9096,7.9715,8.0022,8.0442,8.0491,7.7544,7.6064,7.5613,7.6243,7.5627,7.465,7.5397,7.5171,7.4777,7.5555,7.5702,7.5681,7.5894,7.5836,7.538,7.3993,7.2966,7.2108,7.1368,7.0194,6.899,6.8177,6.8203,6.8159,6.7189,6.708,6.7231,6.748,6.5617,6.3193,6.0491,5.9475,5.8979,5.8878,5.8321,5.7866,5.7798,5.7171,5.5919,5.3687,5.3348,5.2621,5.1167,5.1167,5.1201,5.1201,5.1201,5.1505,5.2164,5.2198,5.3089,5.4946,5.4946,5.5582,5.6836,5.6906,5.6492,4.1869,4.2109,4.3751,4.6348,4.9339,5.2919,5.8122,5.9554,6.109,6.5563,6.858,7.112,7.3521,7.6349,7.8787,0.0,8.2606,8.4361,8.4854,8.4913,8.4809,8.4665,8.3358,8.3147,8.4937,8.4602,8.4777,8.6111,8.5116,8.4575,8.4921,8.4159,8.3462,8.2838,8.2391,8.1692,8.0648,8.0617,8.0171,7.9293,7.9701,7.9705,7.9281,7.8997,7.8768,7.8559,7.8691,7.8978,7.9337,7.9765,8.0329,8.0965,8.137,8.1442,8.1084,7.9724,7.9034,7.8718,7.8134,7.7191,7.6261,7.613,7.5873,7.5579,7.5432,7.5726,7.6093,7.6093,7.5763,7.5249,7.4588,7.345,7.2422,7.2078,7.0617,6.9452,6.9895,6.9477,6.8879,6.8425,6.8403,6.8304,6.7722,6.6126,6.4414,6.2852,6.131,5.9994,5.9115,5.8709,5.8389,5.7967,5.7239,5.6427,5.5513,5.504,5.4515,5.3873,5.3805,5.3805,5.3805,5.4107,5.4426,5.4733,5.5061,5.5646,5.6512,5.6512,5.7165,5.8421,5.8421,5.8718,4.5124,4.6102,4.8055,5.1368,5.6126,6.0811,6.3944,6.6322,6.9072,7.3504,7.6013,7.8061,8.027,8.184,8.3095,8.39,8.5551,8.6751,8.6838,8.6242,8.5472,8.4445,8.2831,8.2891,8.5632,8.5006,8.5357,8.7628,8.6604,8.6055,8.6475,8.5764,8.5217,8.5064,8.4507,8.3877,8.3097,8.3102,8.2616,8.1643,8.1953,8.1885,8.1445,8.0901,8.0375,7.9893,8.001,8.019,8.0476,8.0894,8.1336,8.1802,8.2088,8.1819,8.1342,8.1342,8.1048,8.0461,7.9066,7.8332,7.7839,7.7047,7.679,7.668,7.6093,7.6166,7.6423,7.6423,7.6004,7.5454,7.5014,7.4023,7.3017,7.2504,7.1038,6.9994,7.0841,7.0306,6.9569,6.9355,6.9462,6.9308,6.8344,6.6899,6.5706,6.507,6.3211,6.1366,5.9825,5.925,5.8776,5.8254,5.7543,5.7036,5.6833,5.6325,5.5902,5.5699,5.5856,5.5909,5.5909,5.6437,5.684,5.703,5.7388,5.7812,5.8223,5.8223,5.8849,5.9959,5.9959,6.0574,4.3681,4.7156,5.131,5.7227,6.2628,6.7683,7.2124,7.6016,7.9382,8.1696,8.3398,8.4515,8.4613,8.4052,8.4506,8.7447,8.6827,8.6721,8.888,8.7307,8.534,8.3809,8.1631,8.1019,0.0,8.3419,8.4588,8.6864,8.6265,8.6476,8.7944,8.7344,8.6602,8.5876,8.5853,8.5435,8.4634,8.4623,8.4844,8.522,8.446,8.4318,8.462,8.3789,8.2898,8.2106,8.2518,8.2256,8.1579,8.1969,8.2154,8.217,8.2186,8.2186,8.215,8.215,8.1175,7.9706,7.8883,7.9082,7.9596,7.8772,7.8516,7.8516,7.8479,7.7928,7.7252,7.7252,7.7252,7.6885,7.5307,7.4867,7.4352,7.2458,7.1707,7.1146,7.0069,7.0176,7.0229,6.9462,6.9926,7.0426,7.0426,6.8732,6.7176,6.6426,6.4697,6.2902,6.1434,5.9926,5.8979,5.8979,5.8321,5.7595,5.6867,5.6799,5.6443,5.5733,5.6201,5.6471,5.6471,5.6979,5.7599,5.8333,5.8349,5.9115,6.0595,6.0595,6.1047,6.1906,6.1906,6.1955,4.9034,5.4477,6.0076,6.4994,6.9915,7.4553,7.8555,8.0841,8.2322,8.3099,8.2916,8.218,8.0588,8.0553,8.1379,8.3398,8.5403,8.6931,8.7622,8.7278,8.5523,8.1617,8.0765,0.0,0.0,0.0,0.0,8.6338,8.6157,8.6531,8.8002,8.8384,8.8646,8.8954,8.8436,8.8156,8.8139,8.8149,8.7878,8.7258,8.6429,8.5706,8.5068,8.475,8.4028,8.2991,8.3146,8.2738,8.2022,8.2137,8.2186,8.2186,8.2186,8.1856,8.1415,8.1415,8.1048,8.0571,8.0277,8.0388,8.0388,7.9029,7.8589,7.8405,7.7268,7.7105,7.7179,7.6628,7.6114,7.5564,7.505,7.4096,7.3127,7.2475,7.2063,7.1732,7.1334,7.1043,7.0742,7.0491,7.047,7.0514,7.0514,6.9212,6.7758,6.6588,6.3894,6.1873,6.1366,6.0385,5.9742,5.9742,5.9876,5.9654,5.8866,5.9666,5.9599,5.8288,5.8871,5.93,5.93,5.9966,6.0713,6.149,6.2068,6.265,6.3135,6.3135,6.3011,6.2816,6.2816,6.2622,5.5657,6.1635,6.7499,7.2702,7.7104,8.0827,8.349,8.4788,8.5064,8.3807,8.1931,7.9761,7.7202,7.6125,7.6497,7.9184,8.1632,8.3782,8.559,8.5477,8.3912,8.0392,8.0136,7.9908,0.0,0.0,0.0,8.5479,8.6317,8.725,8.8458,8.9697,9.0617,9.1118,9.0516,9.0322,9.0567,9.0309,8.9564,8.8394,8.8057,8.7158,8.5822,8.5822,8.5267,8.4278,8.4278,8.3654,8.2627,8.2627,8.2443,8.2186,8.2186,8.1893,8.1415,8.1415,8.1415,8.1305,8.0461,8.0718,8.1158,7.9543,7.9045,7.8809,7.7745,7.7378,7.7179,7.6665,7.6151,7.5674,7.538,7.4551,7.3678,7.3281,7.3014,7.2811,7.2688,7.2327,7.2008,7.1876,7.146,7.1061,7.096,6.96,6.8098,6.6973,6.4703,6.3042,6.2768,6.181,6.1142,6.1142,6.1231,6.1118,6.06,6.138,6.1482,6.042,6.112,6.1546,6.1546,6.2357,6.3048,6.3549,6.4123,6.4458,6.4556,6.4556,6.4343,6.3953,6.3953,6.3756,6.3024,6.8494,7.359,8.0071,8.3941,8.6283,8.69,8.7783,8.7413,8.373,8.0329,7.7127,7.4187,7.1016,7.0405,7.5178,7.6264,7.8279,8.3353,8.2613,8.1259,0.0,0.0,0.0,0.0,0.0,0.0,8.4538,0.0,8.8414,8.9299,9.1226,9.2366,9.2402,9.2027,9.1817,9.1873,9.1076,9.0076,8.8909,8.9239,8.8592,8.7051,8.7014,8.6554,8.58,8.58,8.4903,8.3381,8.3381,8.292,8.2186,8.2186,8.2186,8.2186,8.2186,8.2186,8.1856,7.9543,8.0241,8.1929,8.0367,7.9853,7.9853,7.9816,7.8699,7.7436,7.7436,7.7362,7.7142,7.635,7.6093,7.576,7.4686,7.4441,7.4348,7.403,7.395,7.3836,7.3507,7.2794,7.212,7.1832,7.0114,6.8522,6.7834,6.7115,6.6364,6.5488,6.4077,6.3171,6.3171,6.2596,6.216,6.216,6.2212,6.2211,6.2158,6.2917,6.3325,6.3289,6.41,6.4539,6.4539,6.4553,6.4693,6.4954,6.4954,6.5088,6.5362,6.5362,6.5325,6.9855,7.6634,8.2725,8.5066,8.7486,8.9043,8.803,8.6368,8.3499,7.7989,7.3244,6.847,6.3171,6.4617,6.7958,7.2048,7.7752,0.0,8.5707,8.7268,0.0,8.301,0.0,8.5569,8.3177,8.4839,0.0,0.0,8.6848,8.7491,8.9707,9.1748,9.3081,9.3695,9.246,9.2248,9.3108,9.2052,9.1033,9.0154,8.9658,8.8849,8.7876,8.7288,8.6554,8.58,8.58,8.4903,8.3381,8.3381,8.292,8.2186,8.2186,8.2186,8.2186,8.2186,8.2186,8.2039,8.0828,8.1195,8.2039,8.1012,8.0681,8.0571,8.0,7.9522,7.914,7.914,7.8243,7.7252,7.7032,7.6114,7.5145,7.485,7.4747,7.4732,7.4656,7.4457,7.4174,7.3856,7.3175,7.2722,7.2912,7.2521,7.1882,7.1102,7.0554,6.9196,6.6471,6.5766,6.5522,6.5522,6.5777,6.5791,6.5426,6.6303,6.6535,6.5617,6.6298,6.6476,6.5884,6.6257,6.6506,6.6492,6.6715,6.6902,6.6969,6.6969,6.6716,6.6182,6.6182,6.5888,7.852,8.4297,8.8969,8.9897,9.0576,9.0105,8.648,8.2855,7.8007,7.0204,6.5026,6.0433,5.5654,5.8631,6.3344,6.8031,7.5442,8.1943,8.5834,8.8171,8.8563,0.0,8.821,0.0,8.6711,8.8341,8.9657,0.0,8.9019,8.9343,9.1226,9.321,9.4511,9.4963,9.3637,9.285,9.2805,9.2133,9.14,9.0592,9.0134,8.951,8.872,8.7912,8.7288,8.6811,0.0,8.5416,8.3931,8.3931,8.3251,8.2186,8.2186,8.2186,8.2186,8.2186,8.2186,8.215,8.1672,8.1819,8.2076,8.1269,8.1012,8.0938,8.0461,8.0073,7.9816,7.9816,7.9103,7.8405,7.8405,7.7745,7.7047,7.7047,7.7047,7.7047,7.7047,7.6616,7.5922,7.4829,7.4177,7.3765,7.3644,7.3605,7.3461,7.3011,7.2722,7.1876,6.9934,6.8464,6.7648,6.7648,6.7936,6.8021,6.7765,6.8413,6.8589,6.7881,6.8377,6.8509,6.8037,6.8288,6.8297,6.7954,6.8486,6.8398,6.77,6.8054,6.7981,6.754,6.7173,6.6953,8.7192,9.0905,9.3187,9.3957,9.2921,8.9967,8.3464,7.8224,7.1831,6.1803,5.6714,5.3227,5.04,5.3458,5.8453,6.4755,7.2169,7.9325,8.5669,8.7869,8.8964,8.9311,9.0799,9.1331,9.0163,9.1072,9.1914,9.2251,9.2304,9.2574,9.3203,9.5041,9.6044,9.5934,9.488,9.3529,9.1987,9.184,9.1436,9.0776,9.0665,9.0207,8.9546,8.872,8.8316,8.8169,0.0,0.0,8.4756,8.4646,8.3728,8.2333,8.2223,8.2186,8.2186,8.2186,8.2186,8.2186,8.2186,8.2186,8.2076,8.1379,8.1158,8.1158,8.1158,8.0681,8.011,8.011,8.0036,7.9963,7.9963,7.989,7.9816,7.9816,7.9816,7.9816,7.9816,7.9218,7.8191,7.6491,7.5758,7.5222,7.4546,7.4381,7.4256,7.4147,7.4159,7.4155,7.4047,7.1589,6.9802,6.9802,6.9729,6.9724,6.9878,6.9806,6.9785,6.9939,7.0069,7.0091,6.9982,7.0153,6.9889,6.9082,6.9743,6.9426,6.8031,6.8715,6.9082,6.9032,6.8361,6.8385,9.1112,9.41,9.6008,9.5177,9.3336,8.9441,8.07,7.3884,6.6403,5.5723,5.1081,4.8183,4.59,5.0643,5.7854,6.688,7.4187,8.1607,8.9961,9.1747,9.2208,0.0,9.3742,9.4254,9.3027,9.4031,0.0,0.0,0.0,9.4763,9.4502,9.5806,9.6276,9.5616,9.4739,9.3822,9.2868,9.217,9.173,9.1583,9.0922,9.0537,9.0354,8.9546,8.8812,8.8206,8.8059,0.0,8.5527,8.4866,8.4058,8.3124,8.2443,8.2186,8.2186,8.2186,8.2186,8.2186,8.2186,8.2186,8.2186,8.2039,8.2003,8.2003,8.2003,8.1893,8.1799,8.1799,8.1305,8.0791,8.0791,8.0277,7.9816,7.9816,7.9816,7.9816,7.9816,7.9446,7.9081,7.9066,7.8012,7.7137,7.7255,7.6757,7.6065,7.5409,7.5536,7.5486,7.4827,7.378,7.3084,7.3084,7.2504,7.247,7.3406,7.2911,7.2909,7.3859,7.3347,7.268,7.2006,7.1389,7.072,6.9926,7.0036,6.9963,6.9669,6.9816,6.9889,6.9889,6.9743,6.9743,9.5451,9.7601,9.8501,9.6607,9.2657,8.6537,7.6153,6.7952,5.9651,4.9432,4.6234,4.4861,4.3314,4.9205,5.6396,6.2867,6.9653,7.7495,8.7211,8.8973,9.0583,9.4136,9.5511,9.5875,9.5279,9.5763,0.0,0.0,0.0,9.6002,9.5792,9.6369,9.6318,9.5528,9.4703,9.3896,9.3125,9.2684,9.2244,9.1803,9.1877,9.1657,9.1216,9.0391,8.9583,8.8776,8.839,0.0,8.5764,8.538,8.4499,8.3344,8.2994,8.2553,8.2186,8.2186,8.2186,8.2186,8.2186,8.2186,8.2186,8.2186,8.2186,8.2186,8.2186,8.2186,8.2186,8.2186,8.1929,8.1636,8.1636,8.1342,8.1064,8.1064,8.1064,8.0954,8.0498,8.0259,8.0085,7.9858,7.9178,7.8597,7.8357,7.7986,7.762,7.7218,7.7322,7.7268,7.69,7.6894,7.6339,7.4608,7.4097,7.4086,7.4604,7.4327,7.4314,7.4852,7.4551,7.3964,7.3156,7.2753,7.2165,7.1358,7.1358,7.1138,7.0734,7.0734,7.0734,7.072,7.0293,7.033,9.8408,9.994,10.0097,9.7318,9.1535,8.3473,7.1822,6.2759,5.4119,4.4549,4.2661,4.2577,4.2127,4.7642,5.3864,5.8787,6.442,7.2152,8.3514,8.5602,8.8397,9.5101,9.6363,0.0,9.6685,9.6685,0.0,0.0,0.0,0.0,9.6685,9.6685,9.6428,9.5804,9.4997,9.4153,9.3345,9.3345,9.2831,9.1803,9.2684,9.2648,9.1767,9.1143,9.0317,8.9363,8.872,0.0,0.0,8.5857,8.4939,8.3638,8.3454,8.292,8.2186,8.2186,8.2186,8.2186,8.2186,8.2186,8.2186,8.2186,8.2186,8.2186,8.2186,8.2186,8.2186,8.2186,8.2186,8.2186,8.2186,8.2186,8.2186,8.2186,8.2186,8.2039,8.1379,8.1269,8.1085,8.044,8.0183,7.9853,7.9213,7.8956,7.8846,7.8846,7.8846,7.8846,7.8846,7.9412,7.8825,7.624,7.5637,7.5417,7.5417,7.527,7.5234,7.5417,7.5234,7.4882,7.4221,7.4037,7.367,7.3046,7.301,7.2701,7.2078,7.1894,7.1821,7.1784,7.0991,7.0954,9.7966,9.9541,9.9942,9.6346,9.0109,8.1626,6.9322,6.0516,5.233,4.3092,4.114,4.1464,4.2665,4.4696,4.94,5.9237,6.2589,6.891,8.3096,8.5827,8.8618,9.481,0.0,0.0,9.6685,9.6685,0.0,0.0,0.0,0.0,9.6685,9.6685,9.6685,9.6575,9.5804,9.4997,9.4189,9.4189,9.3382,9.1803,9.2684,9.2648,9.1803,9.173,9.0849,8.94,8.9326,0.0,0.0,8.6114,8.527,8.4425,8.3675,8.292,8.2186,8.2186,8.2186,8.2186,8.2186,8.2186,8.2186,8.2186,8.2186,8.2186,8.2186,8.2186,8.2186,8.2186,8.2186,8.2186,8.2186,8.2186,8.2186,8.2186,8.2186,8.2186,8.2113,8.2076,8.2076,8.1966,8.1379,8.0865,8.0791,8.0167,7.9706,7.9706,7.9706,7.9706,7.9706,7.9743,7.9669,7.9376,7.8002,7.7069,7.7069,7.6408,7.6313,7.7032,7.6371,7.5946,7.5873,7.5175,7.4757,7.4683,7.4683,7.4647,7.4573,7.3854,7.3487,7.345,7.2642,7.2312,9.6842,9.956,10.0196,9.6024,8.829,7.8844,6.7971,5.8161,4.9365,4.2393,4.1218,4.1611,4.2178,4.375,4.6999,5.3138,5.4681,5.9347,7.148,7.3909,7.8233,8.8445,9.0812,0.0,0.0,0.0,0.0,0.0,0.0,0.0,9.6685,9.6685,9.6685,9.6685,9.5914,9.5345,9.5034,9.5034,9.4189,9.2574,9.3418,9.3125,9.1803,9.1803,9.0922,8.94,8.94,0.0,0.0,8.6664,8.604,8.527,8.4976,8.4058,8.2994,8.3471,8.3324,8.292,8.292,8.292,8.2847,8.237,8.2186,8.2186,8.2186,8.2186,8.2186,8.2186,8.2186,8.2186,8.2186,8.2186,8.2186,8.2186,8.2186,8.2186,8.2186,8.2186,8.2186,8.2186,8.1929,8.1562,8.1085,8.0718,8.0534,8.0534,8.0534,8.0534,8.0534,8.0938,8.0881,7.989,7.9176,7.8809,7.8809,7.8075,7.7745,7.8075,7.7289,7.6592,7.613,7.5799,7.5616,7.5616,7.516,7.5124,7.5616,7.4808,7.4441,7.4404,7.4096,7.3707,9.3835,9.7803,9.9419,9.532,8.6539,7.6344,6.6613,5.63,4.722,4.1772,4.1139,4.1606,4.1778,4.3268,4.5571,4.903,5.0014,5.4006,6.453,6.6696,7.1394,8.268,0.0,8.8206,0.0,0.0,0.0,0.0,0.0,0.0,0.0,9.6685,9.6685,9.6685,9.6171,9.5621,9.5144,9.5621,9.4923,9.3125,9.3932,9.3565,9.217,9.1913,9.1069,8.973,0.0,0.0,0.0,8.7198,8.6664,8.6114,8.5894,8.4976,8.3785,8.4132,8.4058,8.3711,8.3491,8.3381,8.3308,8.2737,8.237,8.2186,8.2186,8.2186,8.2186,8.2186,8.2186,8.2186,8.2186,8.2186,8.2186,8.2186,8.2186,8.2186,8.2186,8.2186,8.2186,8.2186,8.2186,8.2003,8.1452,8.1342,8.1342,8.1342,8.1342,8.1342,8.1342,8.1856,8.1746,8.0624,8.0514,8.033,7.9853,7.9302,7.8956,7.8956,7.8185,7.7546,7.7194,7.6717,7.657,7.6827,7.6041,7.5894,7.6445,7.5637,7.5234,7.5234,7.5014,7.4588,8.8408,9.3531,9.7071,9.3841,8.4866,7.4381,6.5057,5.5197,4.6504,4.1197,4.0528,4.1081,4.1703,4.2977,4.5151,4.8981,5.0922,5.5658,6.6195,6.8385,7.1615,7.9008,0.0,8.2957,8.7802,0.0,0.0,0.0,0.0,0.0,0.0,9.6685,9.6685,9.6685,9.6685,9.5914,9.4336,9.5878,9.5474,9.3125,9.3932,9.3859,9.3051,9.217,9.1363,0.0,0.0,0.0,0.0,8.7675,8.6978,8.6904,8.6114,8.5306,8.4499,8.3711,8.3895,8.4462,8.3675,8.3381,8.3381,8.3381,8.2847,8.2186,8.2186,8.2186,8.2186,8.2186,8.2186,8.2186,8.2186,8.2186,8.2186,8.2186,8.2186,8.2186,8.2186,8.2186,8.2186,8.2186,8.2186,8.2186,8.2186,8.2186,8.2186,8.2186,8.2186,8.2186,8.2186,8.2186,8.2186,8.2186,8.2186,8.1525,7.9926,7.9779,7.9779,7.9779,7.9045,7.8919,7.9743,7.817,7.7693,7.8552,7.7729,7.7289,7.7289,7.6497,7.6093,7.6056,7.527,7.4903,7.5519,7.9144,8.0583,7.6423,7.0228,6.3449,5.6805,5.0274,4.4568,4.0866,4.0861,4.156,4.1778,4.2789,4.5498,5.1149,5.2024,5.452,6.1704,6.6769,7.1798,7.7399,8.6151,9.2317,0.0,0.0,0.0,0.0,0.0,0.0,0.0,9.6685,9.6685,9.6685,9.6685,9.6208,9.5144,9.5621,9.496,9.3088,9.3345,9.3015,9.2207,9.1913,0.0,0.0,0.0,0.0,0.0,8.7435,8.7308,8.7729,8.6921,8.6114,8.5453,8.573,8.5673,8.538,8.5123,8.5049,8.4866,8.3748,8.3234,8.292,8.237,8.2186,8.2186,8.2186,8.2186,8.2186,8.2186,8.2186,8.2186,8.2186,8.2186,8.2186,8.2186,8.2186,8.2186,8.2186,8.2186,8.2186,8.2186,8.2186,8.2186,8.2186,8.2186,8.2186,8.2186,8.2186,8.2186,8.2186,8.2186,8.1966,8.1505,8.0938,8.0608,8.0608,7.9874,7.9522,7.9779,7.9286,7.914,7.9412,7.8626,7.8185,7.8185,7.7326,7.6922,7.6885,7.6078,7.6004,6.4959,6.9156,7.0661,6.7489,6.2462,5.7105,5.2599,4.7488,4.3043,4.0864,4.115,4.1874,4.2083,4.312,4.548,5.0131,5.1279,5.3739,5.9979,6.5668,7.1541,7.7949,0.0,0.0,0.0,0.0,0.0,0.0,0.0,0.0,0.0,9.6685,9.6575,9.6282,9.6245,9.5878,9.507,9.507,9.441,9.3088,9.3088,9.2831,9.2281,9.195,0.0,0.0,0.0,0.0,0.0,8.7455,8.7472,8.8133,8.7325,8.6701,8.6261,8.6481,8.6407,8.6224,8.5911,8.58,8.5563,8.4278,8.3418,8.2847,8.2333,8.2186,8.226,8.2553,8.2443,8.2186,8.2186,8.2186,8.2186,8.2186,8.2186,8.2186,8.2186,8.2186,8.2186,8.2186,8.2186,8.2186,8.2186,8.2186,8.2186,8.2186,8.2186,8.2186,8.2186,8.2186,8.2186,8.2186,8.2186,8.2186,8.2186,8.1746,8.1452,8.1452,8.0681,8.0404,8.0697,8.011,7.9926,8.0241,7.947,7.9029,7.9029,7.8516,7.8259,7.8222,7.7414,7.7304,0.0,6.208,6.511,6.4268,5.9371,5.3994,5.1094,4.6158,0.0,4.1043,4.1307,4.1962,4.2681,4.3778,4.5242,4.7296,4.9507,5.3482,6.0676,6.5755,0.0,0.0,8.6721,0.0,0.0,0.0,0.0,0.0,0.0,0.0,0.0,9.6649,9.6282,9.5528,9.5382,9.496,9.4226,9.4189,9.3822,9.3015,9.3015,9.3015,9.2978,9.217,0.0,0.0,0.0,0.0,0.0,8.7655,8.7472,8.8133,8.7325,8.6978,8.6904,8.6151,8.6371,8.6867,8.6151,8.5894,8.5747,8.4866,8.3544,8.2296,8.2333,8.2333,8.2443,8.3124,8.281,8.226,8.2223,8.2186,8.2186,8.2186,8.2186,8.2186,8.2186,8.2186,8.2186,8.2186,8.2186,8.2186,8.2186,8.2186,8.2186,8.2186,8.2186,8.2186,8.2186,8.2186,8.2186,8.2186,8.2186,8.2186,8.2186,8.2186,8.2186,8.2186,8.1489,8.1415,8.215,8.0771,8.0314,8.1085,8.0293,7.9853,7.9816,7.9816,7.9816,7.9779,7.8956,7.8589,4.4158,0.0,4.8508,4.6618,4.5385,4.4279,0.0,4.2059,4.1256,4.0436,4.0744,4.1681,4.3521,4.3472,4.5268,5.1658,5.2664,5.4939,6.1582,7.1908,0.0,9.0188,9.3969,0.0,0.0,0.0,0.0,0.0,0.0,0.0,0.0,9.6135,9.5675,9.5492,9.4299,9.3565,9.3382,9.3382,9.2941,9.2097,9.2097,9.2097,9.2097,9.1877,0.0,0.0,0.0,0.0,8.8897,8.7554,8.7472,8.8133,8.7325,8.6978,8.6978,8.6811,8.6848,8.6978,8.6775,8.6738,8.6481,8.5049,8.3948,8.3234,8.3838,8.3618,8.3014,8.259,8.281,8.2994,8.237,8.2186,8.2186,8.2186,8.2186,8.2186,8.2186,8.2186,8.2186,8.2186,8.2186,8.2186,8.2186,8.2186,8.2186,8.2186,8.2186,8.2186,8.2186,8.2186,8.2186,8.2186,8.2186,8.2186,8.2186,8.2186,8.2186,8.2186,8.2003,8.2003,8.2186,8.1835,8.1709,8.1893,8.1122,8.0424,7.9816,7.9816,7.9816,7.9779,7.8956,7.8589,4.0113,4.1204,4.2104,4.0899,4.0899,4.1102,4.0709,4.0641,4.065,4.0485,4.092,4.1892,4.3704,4.4131,4.5913,5.1312,5.3702,0.0,0.0,0.0,8.4903,9.2281,9.496,0.0,0.0,0.0,0.0,0.0,0.0,0.0,0.0,9.5932,9.5308,9.496,9.3749,9.3088,9.3088,9.2721,9.2281,9.1803,9.1436,9.1342,9.159,9.1608,9.0977,0.0,0.0,0.0,8.8301,8.7364,8.7234,8.7619,8.7161,8.6978,8.6978,8.6978,8.6775,8.6444,8.6444,8.5967,8.5253,8.4756,8.4058,8.3418,8.3471,8.3985,8.4425,8.3948,8.3911,8.3765,8.2957,8.2737,8.2737,8.2737,8.248,8.2296,8.2663,8.2443,8.2186,8.2186,8.2186,8.2186,8.2186,8.2186,8.2186,8.2186,8.2186,8.2186,8.2186,8.2186,8.2186,8.2186,8.2186,8.2186,8.2186,8.2186,8.2186,8.2186,8.2186,8.2186,8.2186,8.2186,8.2186,8.2186,8.1782,8.1342,8.0918,8.0918,8.0918,8.0881,8.0094,7.969,4.0383,4.1217,4.1907,4.1299,4.1257,4.1312,4.1189,4.0733,4.0466,4.0827,4.1479,4.2533,4.4293,4.5654,4.7459,5.0398,0.0,0.0,7.5469,8.0718,8.549,9.1473,9.3749,0.0,0.0,0.0,0.0,0.0,0.0,0.0,0.0,9.5932,9.5181,9.443,9.3621,9.318,9.3123,9.2262,9.173,9.162,9.0922,9.075,9.1014,9.128,9.0754,0.0,0.0,0.0,8.7784,8.7104,8.6811,8.6794,8.6684,8.6721,8.6811,8.6811,8.6371,8.58,8.5654,8.4719,8.3675,8.4242,8.4058,8.3454,8.2774,8.4058,8.5837,8.593,8.5416,8.4609,8.3785,8.3491,8.3418,8.3564,8.2957,8.2553,8.3234,8.2884,8.2333,8.2223,8.2296,8.237,8.237,8.248,8.2553,8.2553,8.2553,8.2553,8.2553,8.2553,8.2517,8.2406,8.237,8.2333,8.2186,8.2186,8.2186,8.2186,8.2186,8.2186,8.2186,8.2186,8.2186,8.2186,8.2186,8.2186,8.2186,8.2186,8.2186,8.2186,8.1379,8.1012,4.1623,4.3924,4.5134,4.1796,4.1447,4.1792,4.1113,4.1243,4.1431,4.1001,4.1922,4.3868,4.7338,4.8703,5.0926,5.5885,0.0,7.1394,0.0,0.0,8.9692,9.3455,0.0,0.0,0.0,0.0,0.0,0.0,0.0,0.0,0.0,9.5932,9.5313,9.4917,9.4101,9.3563,9.3264,9.2285,9.1473,9.0776,9.0665,9.0297,8.9725,9.0889,9.0754,0.0,0.0,8.9459,8.8167,8.6607,8.5967,8.593,8.5233,8.538,8.5967,8.5967,8.5911,8.571,8.5013,8.4609,8.4315,8.3748,8.3968,8.4389,8.4278,8.4976,8.593,8.6628,8.6224,8.5416,8.4609,8.3895,8.3564,8.4242,8.3785,8.3234,8.3381,8.3308,8.3014,8.2333,8.2737,8.3197,8.3197,8.3801,8.4242,8.4242,8.4242,8.4242,8.4242,8.4242,8.3985,8.3271,8.3197,8.2957,8.226,8.2186,8.2186,8.2186,8.2186,8.2186,8.2186,8.2186,8.2186,8.2186,8.2186,8.2186,8.2186,8.2186,8.2186,8.2186,8.1379,8.1012,4.0912,4.2665,4.4186,4.3856,4.542,4.6747,4.5559,4.5517,4.5655,4.5388,4.6077,4.7524,5.017,5.2976,5.7739,6.6363,0.0,7.8038,8.3875,8.6664,8.9307,0.0,0.0,0.0,0.0,0.0,0.0,0.0,0.0,0.0,9.6455,0.0,9.4117,9.3986,9.2976,9.2377,9.2215,9.2056,9.1636,9.1014,9.0294,8.9789,8.9547,9.0191,9.0079,8.9353,0.0,8.8946,8.7276,8.6229,8.5527,8.5123,8.4756,8.4829,8.5086,8.4646,8.4499,8.4462,8.4078,8.3691,8.3398,8.3911,8.4315,8.4609,8.4609,8.5453,8.6444,8.6371,8.6407,8.6261,8.5453,8.4976,8.4792,8.5159,8.4646,8.4168,8.4609,8.4352,8.3948,8.3581,8.3801,8.4042,8.4042,8.4352,8.4609,8.4609,8.4609,8.4609,8.4609,8.4242,8.3821,8.3454,8.3014,8.259,8.2223,8.2186,8.2186,8.2186,8.2186,8.2186,8.2186,8.2186,8.2186,8.2186,8.2186,8.2186,8.2186,8.2186,8.2186,8.2186,8.1819,8.1636,4.0708,4.195,4.3664,4.5881,4.8025,4.9728,5.038,5.0271,5.0342,5.1357,5.2149,5.2979,5.3996,5.847,6.5251,7.5102,8.0057,8.3851,8.72,0.0,0.0,0.0,0.0,0.0,0.0,0.0,0.0,0.0,0.0,0.0,9.6174,9.4622,9.3689,9.3609,9.2558,9.2003,9.213,9.1914,9.1544,9.0975,9.0035,8.9477,8.9325,8.9473,8.9323,8.8958,8.9152,8.8223,8.6429,8.5578,8.4866,8.4315,8.4095,8.4168,8.4242,8.3638,8.3381,8.3381,8.3161,8.2737,8.2443,8.3875,8.4315,8.4389,8.4756,8.56,8.6371,8.593,8.6224,8.6591,8.5967,8.58,8.58,8.58,8.5306,8.5049,8.5673,8.5306,8.4829,8.4646,8.4756,8.4866,8.4866,8.5049,8.5159,8.5159,8.5159,8.5159,8.5159,8.4462,8.3895,8.3711,8.2957,8.2406,8.2223,8.2186,8.2186,8.2186,8.2186,8.2186,8.2186,8.2186,8.2186,8.2186,8.2186,8.2186,8.2186,8.2186,8.2186,8.2186,8.2186,8.2186,4.2464,4.4548,4.636,4.7053,4.5773,4.6209,5.3383,5.3926,5.4023,5.8027,5.9869,6.0554,5.9919,6.5629,7.2188,7.7561,8.3618,8.8986,9.2693,0.0,0.0,0.0,0.0,0.0,0.0,0.0,0.0,0.0,0.0,0.0,9.5854,9.5704,9.5448,9.5157,9.4336,9.4114,9.4549,9.2177,9.0557,8.9712,9.0026,8.9554,8.8481,8.8896,8.8847,8.8413,8.8072,8.7392,8.6355,8.4383,8.3528,8.3418,8.2663,8.2847,8.3491,8.3418,8.3381,8.3271,8.2553,8.226,8.2333,8.3214,8.3491,8.3748,8.527,8.527,8.4903,8.56,8.582,8.5857,8.582,8.58,8.58,8.58,8.5747,8.571,8.5783,8.5764,8.549,8.4756,8.5196,8.571,8.571,8.6334,8.6831,8.6831,8.6831,8.6831,8.6831,8.6114,8.5343,8.4609,8.3785,8.3014,8.226,8.2186,8.2186,8.2186,8.2186,8.2186,8.2186,8.2186,8.2186,8.2186,8.2186,8.2186,8.2186,8.2186,8.2186,8.2186,8.2186,8.2186,4.1565,4.4741,4.7986,4.8525,4.9173,5.1066,5.6551,5.9701,6.2205,6.4858,6.6979,6.8128,6.7343,7.2986,7.875,8.1831,8.8021,9.319,9.5313,0.0,0.0,0.0,0.0,0.0,0.0,0.0,0.0,0.0,0.0,0.0,0.0,9.4217,9.3451,9.3312,9.2278,9.1826,9.2003,9.1345,9.0602,8.9708,8.9204,8.8618,8.7951,8.7593,8.7365,8.7186,8.6533,8.5599,8.4522,8.3721,8.3087,8.2627,8.2333,8.237,8.2663,8.2663,8.2663,8.2627,8.2296,8.2186,8.2406,8.3728,8.3821,8.3711,8.5306,8.56,8.5306,8.5123,8.5783,8.6444,8.593,8.58,8.593,8.6444,8.6151,8.593,8.6444,8.6554,8.6481,8.6151,8.6334,8.6554,8.6554,8.6794,8.6978,8.6978,8.6978,8.6978,8.6978,8.6297,8.5673,8.538,8.4168,8.3271,8.2994,8.248,8.2186,8.2186,8.2186,8.2186,8.2186,8.2186,8.2186,8.2186,8.2186,8.2186,8.2186,8.2186,8.2186,8.2186,8.2186,8.2186,4.1115,4.4134,4.7496,4.8811,5.1741,5.5746,6.1068,6.4964,6.8599,7.2635,7.3766,7.4029,7.4025,7.8045,0.0,0.0,9.0644,9.5413,0.0,0.0,0.0,0.0,0.0,0.0,0.0,0.0,0.0,0.0,0.0,0.0,0.0,9.3379,9.2455,9.2192,9.0857,9.0185,9.0326,9.0012,8.9497,8.8799,8.7852,8.7562,8.7726,8.6481,8.5984,8.6053,8.5118,8.4203,8.3381,8.3124,8.27,8.2186,8.2186,8.2186,8.2186,8.2186,8.2186,8.2186,8.2186,8.2186,8.248,8.4095,8.3875,8.3434,8.5527,8.5637,8.4976,8.4682,8.538,8.6114,8.5563,8.5783,8.6261,8.6554,8.6407,8.6334,8.6867,8.6978,8.6978,8.6978,8.6978,8.6978,8.6978,8.6978,8.6978,8.6978,8.6978,8.6978,8.6978,8.6297,8.571,8.5453,8.4205,8.3381,8.3381,8.2663,8.2186,8.2186,8.2186,8.2186,8.2186,8.2186,8.2186,8.2186,8.2186,8.2186,8.2186,8.2186,8.2186,8.2186,8.2186,8.2186,4.165,4.289,4.4703,4.7641,5.2664,5.9013,6.7086,6.9339,7.2299,8.1565,8.0225,7.7916,7.9701,8.033,0.0,8.5441,9.1046,0.0,0.0,0.0,0.0,0.0,0.0,0.0,0.0,0.0,0.0,0.0,0.0,0.0,0.0,9.3555,9.3176,9.2292,9.0662,8.9982,9.0343,8.8255,8.7004,8.6582,8.6032,8.6507,8.7778,8.5583,8.4833,8.5207,8.3958,8.3381,8.3344,8.2517,8.2186,8.2186,8.2186,8.2186,8.2186,8.2186,8.2186,8.2186,8.2186,8.2186,8.2443,8.4058,8.3508,8.281,8.5987,8.5289,8.3564,8.4352,8.4609,8.4609,8.4609,8.5783,8.6811,8.6004,8.6407,8.6978,8.6978,8.6978,8.6978,8.6978,8.6978,8.6978,8.6978,8.6978,8.6978,8.6978,8.6978,8.6978,8.6978,8.6297,8.549,8.4719,8.3895,8.3418,8.3418,8.27,8.2223,8.2186,8.2186,8.2186,8.2186,8.2186,8.2186,8.2186,8.2186,8.2186,8.2186,8.2186,8.2186,8.2186,8.2186,8.2186,4.2016,4.6012,5.0801,5.2229,5.8143,6.5301,7.1674,7.4366,7.7732,8.5662,8.5152,8.3222,8.2921,8.465,0.0,0.0,0.0,0.0,0.0,0.0,0.0,0.0,0.0,0.0,0.0,0.0,0.0,0.0,0.0,0.0,0.0,9.1571,9.0813,9.0624,8.8994,8.8015,8.7807,8.7171,8.6621,8.6177,8.5099,8.4933,8.5551,8.431,8.3847,8.3921,8.2986,8.2553,8.2553,8.2296,8.2186,8.2186,8.2186,8.2186,8.2186,8.2186,8.2186,8.2186,8.2186,8.2186,8.237,8.3434,8.3418,8.3197,8.4188,8.4372,8.4058,8.3141,8.3728,8.4462,8.3895,8.4939,8.6224,8.6591,8.6407,8.6297,8.6867,8.6978,8.6978,8.6978,8.6554,8.6151,8.6151,8.6151,8.6151,8.6151,8.6628,8.6978,8.6978,8.6811,8.6554,8.6334,8.5563,8.4866,8.4278,8.4022,8.3398,8.226,8.2737,8.281,8.2223,8.2186,8.2186,8.2186,8.2186,8.2186,8.2186,8.2186,8.2186,8.2186,8.2186,8.2186,4.3969,4.8306,5.3445,5.6492,6.2879,7.0331,7.7642,8.1212,8.4595,9.0274,8.9198,8.7301,8.7533,8.8084,0.0,0.0,0.0,0.0,0.0,0.0,0.0,0.0,0.0,0.0,0.0,0.0,0.0,0.0,0.0,0.0,0.0,8.9866,8.911,8.8621,8.7323,8.6303,8.5676,8.5662,8.5286,8.4495,8.404,8.3761,8.3618,8.3141,8.292,8.292,8.2406,8.2186,8.2186,8.2186,8.2186,8.2186,8.2186,8.2186,8.2186,8.2186,8.2186,8.2186,8.2186,8.2186,8.2333,8.3124,8.3161,8.3104,8.4058,8.4242,8.3985,8.3324,8.3618,8.4022,8.3528,8.4352,8.5527,8.6334,8.6407,8.6407,8.6904,8.6978,8.6978,8.6978,8.6628,8.6187,8.5874,8.6077,8.6151,8.5874,8.6481,8.6978,8.6978,8.6978,8.6978,8.6978,8.6261,8.56,8.5123,8.4792,8.4205,8.3214,8.3618,8.3544,8.27,8.27,8.27,8.27,8.27,8.2517,8.2186,8.2186,8.2186,8.2186,8.2186,8.2186,4.6902,5.0195,5.43,6.075,6.7544,7.4982,8.4172,8.8609,9.1574,9.4482,9.2268,9.0435,9.2584,9.0763,8.956,0.0,0.0,0.0,0.0,0.0,0.0,0.0,0.0,0.0,0.0,0.0,0.0,0.0,0.0,0.0,0.0,8.8351,8.7789,8.664,8.5709,8.4819,8.3987,8.3978,8.3382,8.2186,8.2957,8.292,8.2186,8.2186,8.2219,8.2267,8.2267,8.2267,8.2267,8.2267,8.2267,8.2267,8.2316,8.23,8.2267,8.2267,8.2235,8.2186,8.2186,8.2186,8.2333,8.3051,8.2847,8.27,8.4829,8.4535,8.3638,8.4205,8.3911,8.3381,8.3308,8.3931,8.4792,8.5527,8.6371,8.6978,8.6978,8.6978,8.6978,8.6978,8.6867,8.6554,8.582,8.6261,8.6481,8.5894,8.6407,8.6904,8.6978,8.6978,8.6978,8.6978,8.6334,8.5874,8.58,8.5196,8.4756,8.4609,8.4609,8.4278,8.3528,8.3491,8.3454,8.3381,8.3381,8.3014,8.2296,8.2223,8.2186,8.2186,8.2186,8.2186,4.8974,5.3888,6.0162,6.6659,7.5351,8.3346,8.7455,9.0138,9.2054,9.3119,9.3083,9.3105,9.4024,9.3167,9.2324,0.0,0.0,0.0,0.0,0.0,0.0,0.0,0.0,0.0,0.0,0.0,0.0,0.0,0.0,0.0,8.7668,8.6656,8.5951,8.5673,8.4529,8.3676,8.3141,8.3179,8.2843,0.0,8.237,8.237,8.2186,8.2186,8.2412,8.2752,8.2752,8.2752,8.2752,8.2752,8.2752,8.2798,8.3098,8.3024,8.2752,8.2752,8.2502,8.2186,8.2186,8.2186,8.2223,8.2406,8.2774,8.3124,8.2994,8.3618,8.4132,8.303,8.3067,8.3234,8.2627,8.3508,8.4646,8.4829,8.5967,8.6978,8.6978,8.6978,8.6978,8.6978,8.6004,8.5049,8.4903,8.4499,8.4519,8.5637,8.593,8.6297,8.6904,8.6978,8.6978,8.6978,8.6831,8.6481,8.5874,8.6224,8.593,8.4682,8.4609,8.4535,8.4352,8.4352,8.4058,8.3418,8.3381,8.3308,8.3124,8.2517,8.2186,8.2186,8.2186,8.2186,5.1051,5.6565,6.3747,7.4027,8.1702,8.7315,8.9436,9.1222,9.2524,9.2754,9.3198,9.354,9.3401,9.29,9.224,0.0,0.0,0.0,0.0,0.0,0.0,0.0,0.0,0.0,0.0,0.0,0.0,0.0,0.0,8.6189,8.6189,8.5336,8.4716,8.4519,8.3667,8.298,8.2565,8.2565,8.2239,8.1636,8.1636,8.1728,8.1928,8.2334,8.2761,8.3186,8.3186,8.3091,8.2919,8.2919,8.2919,8.2897,8.3113,8.3091,8.2919,8.2919,8.2597,8.2186,8.2186,8.2186,8.2186,8.2186,8.248,8.281,8.2774,8.3104,8.3361,8.292,8.281,8.2737,8.2296,8.3104,8.4022,8.4022,8.527,8.6518,8.6904,8.6701,8.6554,8.6904,8.6317,8.5637,8.5233,8.4829,8.4829,8.5673,8.6114,8.6371,8.6407,8.6775,8.6978,8.6978,8.6978,8.6848,8.6407,8.6775,8.6647,8.582,8.538,8.5159,8.5159,8.5159,8.4792,8.3968,8.4352,8.4168,8.3381,8.2994,8.259,8.2186,8.2186,8.2186,5.2197,5.8773,6.7091,8.0125,8.5727,8.8486,8.993,9.1202,9.2042,9.1959,9.2532,9.2771,9.1942,9.1577,0.0,0.0,0.0,0.0,0.0,0.0,0.0,0.0,0.0,0.0,0.0,0.0,0.0,0.0,0.0,8.4889,8.4889,8.4467,8.3986,8.3517,8.2972,8.2453,8.2019,8.19,8.1544,8.0919,8.0961,8.1188,8.154,8.2334,8.3026,8.3614,8.3464,8.3294,8.3121,8.3032,8.3047,8.3121,8.3121,8.3121,8.3121,8.3121,8.2761,8.2332,8.2332,8.2267,8.2186,8.2186,8.2186,8.2333,8.2994,8.281,8.2517,8.3014,8.281,8.237,8.2223,8.281,8.3381,8.3381,8.4425,8.56,8.6407,8.6077,8.582,8.6628,8.6811,8.6554,8.571,8.56,8.5637,8.58,8.6371,8.6591,8.6077,8.6591,8.6978,8.6978,8.6978,8.6978,8.6978,8.6978,8.6978,8.6978,8.6224,8.58,8.58,8.58,8.549,8.4829,8.5453,8.5123,8.3821,8.3675,8.3214,8.2406,8.2406,8.2333,5.0472,6.0794,7.2579,8.044,8.4649,8.6978,8.7551,8.8445,8.9037,8.8664,9.0285,9.1569,9.078,9.0535,0.0,0.0,0.0,0.0,0.0,0.0,0.0,0.0,0.0,0.0,0.0,0.0,0.0,0.0,8.5344,8.4889,8.4889,8.4467,8.3986,8.3517,8.2377,8.1603,8.1158,8.0794,8.06,8.0489,8.0808,8.1047,8.1167,8.1653,8.2673,8.4065,8.33,8.3388,8.3986,8.361,8.3679,8.4012,8.4012,8.4012,8.4012,8.4012,8.3499,8.2813,8.2813,8.2534,8.2186,8.2186,8.2186,8.2223,8.2333,8.2774,8.3124,8.2517,8.2774,8.3087,8.237,8.281,8.3381,8.3381,8.3564,8.3931,8.4756,8.4829,8.5013,8.5783,8.5967,8.571,8.4903,8.4756,8.5013,8.571,8.5894,8.6151,8.6775,8.6904,8.6978,8.6978,8.6978,8.6978,8.6978,8.6978,8.6978,8.6978,8.6224,8.58,8.58,8.58,8.5764,8.5637,8.5764,8.569,8.549,8.4792,8.4022,8.3234,8.3234,8.2884,5.5153,6.3134,7.1441,8.0681,8.4315,8.5984,8.7516,8.8395,8.8706,8.8033,8.863,8.906,8.8396,8.8479,0.0,0.0,0.0,0.0,0.0,0.0,0.0,0.0,0.0,0.0,0.0,0.0,0.0,0.0,8.4635,8.4181,8.4181,8.3297,8.2686,8.2506,8.1689,8.1166,8.1,8.0817,8.0507,8.0075,8.0522,8.073,8.0793,8.1188,8.2045,8.3179,8.2801,8.2682,8.2837,8.3072,8.3155,8.3177,8.364,8.3679,8.3457,8.3457,8.3076,8.2502,8.2502,8.238,8.2186,8.2186,8.2186,8.2186,8.2186,8.2443,8.2663,8.2296,8.2443,8.2663,8.2296,8.2443,8.2737,8.2737,8.2737,8.2957,8.3748,8.4278,8.4976,8.6224,8.6481,8.6371,8.6004,8.593,8.593,8.582,8.6187,8.6444,8.6334,8.6738,8.6978,8.6978,8.6978,8.6978,8.6978,8.6978,8.6978,8.6978,8.6224,8.6004,8.6444,8.604,8.6004,8.6481,8.6481,8.6261,8.58,8.4976,8.4205,8.3381,8.2957,8.2553,5.6759,6.1893,6.6867,7.7251,8.1278,8.3382,8.624,8.7379,8.773,0.0,8.6996,8.6625,8.6241,8.6667,0.0,0.0,0.0,0.0,0.0,0.0,0.0,0.0,0.0,0.0,0.0,0.0,0.0,0.0,8.4105,8.3585,8.3585,8.2525,8.1818,8.1708,8.1141,8.0731,8.0386,8.0082,7.9611,7.9025,7.9489,7.9632,7.9549,8.0186,8.0807,8.1463,8.188,8.1929,8.1745,8.2247,8.229,8.207,8.2868,8.2994,8.2779,8.3119,8.2867,8.2396,8.2396,8.23,8.2186,8.2186,8.2186,8.2186,8.2186,8.2186,8.2186,8.2186,8.2186,8.2186,8.2186,8.2186,8.2186,8.2186,8.2186,8.237,8.2994,8.4058,8.5196,8.6224,8.6721,8.6978,8.6978,8.6978,8.6794,8.6187,8.6628,8.6775,8.6187,8.6628,8.6978,8.6978,8.6978,8.6978,8.6978,8.6978,8.6978,8.6978,8.6444,8.6371,8.6978,8.6407,8.6371,8.6978,8.6978,8.6701,8.6114,8.5306,8.4609,8.3985,8.2994,8.2517,5.0368,5.4307,5.8926,6.7516,7.3238,7.7802,8.1788,8.3631,8.4669,8.5371,8.5271,8.5041,8.498,8.5635,0.0,0.0,0.0,0.0,0.0,0.0,0.0,0.0,0.0,0.0,0.0,0.0,0.0,0.0,8.4105,8.3585,8.3585,8.2805,8.2179,8.172,8.0943,7.9955,7.8743,7.7528,7.6893,7.6881,7.7343,7.7332,7.6954,7.8181,7.8761,7.8874,8.0466,8.1362,8.167,8.1337,8.1163,8.1238,8.2046,8.2332,8.2471,8.3673,8.3583,8.2874,8.2874,8.2565,8.2186,8.2186,8.2186,8.2186,8.2186,8.2186,8.2186,8.2186,8.2186,8.2186,8.2186,8.2186,8.2186,8.2186,8.2186,8.2186,8.226,8.4095,8.5527,8.4866,8.5967,8.6978,8.6978,8.6978,8.6978,8.6941,8.6978,8.6978,8.6941,8.6978,8.6978,8.6978,8.6978,8.6978,8.6978,8.6978,8.6978,8.6978,8.6941,8.6941,8.6978,8.6941,8.6941,8.6978,8.6978,8.6978,8.6958,8.6114,8.5727,8.5637,8.4058,8.3344,4.961,5.1871,5.4753,6.2944,6.8902,7.3478,7.6268,8.0668,8.3879,8.2865,8.3407,8.3915,8.3385,8.4408,0.0,0.0,0.0,0.0,0.0,0.0,0.0,0.0,0.0,0.0,0.0,0.0,0.0,0.0,0.0,8.1993,8.1993,8.0694,7.9881,7.9698,7.8942,7.827,7.7832,7.7363,7.6863,7.6322,7.7067,7.7019,7.6371,7.737,7.7813,7.784,7.8201,7.8875,7.9751,8.0429,8.0214,7.9602,8.0684,8.1251,8.1538,8.1978,8.2256,8.2439,8.2439,8.2348,8.2186,8.2186,8.2186,8.2186,8.2186,8.2186,8.2186,8.2186,8.2186,8.2186,8.2186,8.2186,8.2333,8.2847,8.3361,8.3618,8.3104,8.4058,8.4939,8.4646,8.5894,8.6848,8.6334,8.6664,8.6978,8.6978,8.6978,8.6978,8.6978,8.6978,8.6978,8.6978,8.6978,8.6978,8.6978,8.6978,8.6978,8.6978,8.6978,8.6978,8.6978,8.6978,8.6978,8.6978,8.6481,8.6481,8.6978,8.5673,8.5013,8.4976,8.3398,8.2627,4.7462,4.8746,5.0949,5.851,6.3075,6.7086,7.2398,7.6755,7.9942,8.076,8.1608,8.2199,8.235,8.3081,0.0,0.0,0.0,0.0,0.0,0.0,0.0,0.0,0.0,0.0,0.0,0.0,0.0,0.0,0.0,0.0,8.0239,7.895,7.8192,7.8192,7.7396,7.6828,7.6562,7.6259,7.569,7.4857,7.5425,7.5577,7.5301,7.6183,7.6714,7.6969,7.697,7.7541,7.8439,7.9174,7.9027,7.8529,7.9758,8.0304,8.0456,8.1008,8.156,8.2007,8.2141,8.2186,8.2186,8.2186,8.2186,8.2219,8.2396,8.2332,8.2235,8.2412,8.2332,8.2186,8.2186,8.2186,8.2333,8.2884,8.3398,8.3654,8.3104,8.4058,8.4829,8.4315,8.549,8.6444,8.5894,8.6481,8.6978,8.6978,8.7234,8.7325,8.7014,8.7234,8.7325,8.7014,8.6978,8.6978,8.6978,8.6978,8.6978,8.6978,8.6978,8.6978,8.6978,8.6978,8.6978,8.6978,8.6481,8.6334,8.6591,8.527,8.4756,8.4976,8.3361,8.2443,0.0,0.0,0.0,5.3712,5.5401,5.8513,7.0001,7.1537,7.2385,7.8924,7.9609,7.9703,8.1862,8.1576,8.1262,0.0,0.0,0.0,0.0,0.0,0.0,0.0,0.0,0.0,0.0,0.0,0.0,0.0,7.9026,7.8533,7.8533,7.7775,7.732,7.7282,7.6449,7.5604,7.4809,7.3975,7.3151,7.2365,7.2403,7.281,7.3596,7.4467,7.5301,7.6097,7.6969,7.7521,7.7909,7.7504,7.7574,7.8057,7.9281,7.9558,7.9356,8.0963,8.1541,8.1636,8.2033,8.2186,8.2203,8.2203,8.2219,8.2316,8.2782,8.2597,8.2348,8.2798,8.2565,8.2203,8.2203,8.2186,8.2186,8.2223,8.2223,8.2223,8.2223,8.4058,8.527,8.3711,8.4682,8.58,8.58,8.6481,8.6978,8.6978,8.7655,8.7876,8.7088,8.7692,8.7876,8.7088,8.6978,8.6978,8.6978,8.6978,8.6978,8.6978,8.6978,8.6978,8.6978,8.6978,8.6941,8.6941,8.6904,8.6518,8.5747,8.4976,8.4976,8.569,8.4095,8.2957,4.3506,0.0,0.0,0.0,0.0,0.0,5.8233,6.1993,6.6149,7.1482,7.2865,7.4309,7.8074,7.8571,7.8495,0.0,0.0,0.0,0.0,0.0,0.0,0.0,0.0,0.0,0.0,0.0,0.0,0.0,7.751,7.7472,7.6828,7.6021,7.5301,7.4657,7.3833,7.3313,7.3085,7.2858,7.2289,7.1455,7.21,7.2517,7.2782,7.3558,7.443,7.5215,7.5162,7.5562,7.6201,7.6406,7.6369,7.6245,7.6912,7.7821,7.8827,7.9284,8.0151,8.1187,8.128,8.1709,8.2251,8.2597,8.2705,8.2761,8.3215,8.3221,8.3142,8.3076,8.2867,8.2628,8.23,8.2186,8.2333,8.292,8.3067,8.3067,8.3067,8.3581,8.3931,8.3491,8.4682,8.58,8.58,8.6481,8.6978,8.6978,8.7215,8.7252,8.7014,8.7215,8.7252,8.7014,8.6978,8.6978,8.6978,8.6978,8.6978,8.6978,8.6978,8.6978,8.6978,8.6444,8.6114,8.6114,8.5013,8.4555,8.4939,8.4719,8.4425,8.4058,8.2994,8.2406,0.0,0.0,4.3947,0.0,0.0,0.0,5.4035,5.6842,6.0321,0.0,6.8408,7.0062,7.4304,7.5096,7.5366,7.6238,0.0,0.0,0.0,0.0,0.0,0.0,0.0,0.0,0.0,7.7358,7.6865,7.5188,7.5529,7.5463,7.4591,7.4099,7.3606,7.3113,7.263,7.2213,7.1872,7.1872,7.1417,7.0621,7.1455,7.2062,7.2441,7.3217,7.4088,7.4874,7.4649,7.4702,7.5009,7.5265,7.5444,7.5579,7.616,7.7097,7.8152,7.8486,7.9624,8.102,8.1206,8.1665,8.2316,8.2957,8.3047,8.3002,8.3624,8.3641,8.3504,8.3555,8.3252,8.2843,8.255,8.2348,8.2333,8.281,8.292,8.2933,8.316,8.3031,8.292,8.292,8.4205,8.5306,8.5306,8.6261,8.6978,8.6978,8.7271,8.7399,8.7014,8.7271,8.7362,8.7014,8.6978,8.6978,8.6978,8.6978,8.6978,8.6978,8.6978,8.6978,8.6978,8.6554,8.6151,8.58,8.4866,8.4315,8.4095,8.4095,8.3858,8.3381,8.259,8.2186,0.0,0.0,0.0,0.0,0.0,0.0,5.3691,5.3911,5.4785,0.0,6.4327,6.5548,6.9703,7.0648,7.1308,7.2939,0.0,0.0,0.0,0.0,0.0,0.0,0.0,0.0,7.4809,7.5415,7.5112,7.3444,7.3331,7.3037,7.2441,7.2327,7.2251,7.2251,7.2175,7.1758,7.0962,7.0962,7.0621,6.9901,7.0735,7.1569,7.2441,7.3217,7.4088,7.4884,7.4884,7.4659,7.4305,7.4305,7.476,7.556,7.6347,7.6929,7.7444,7.8323,7.9645,8.1092,8.1531,8.1966,8.2471,8.3235,8.3301,8.3194,8.396,8.3947,8.3709,8.4038,8.3541,8.2919,8.2859,8.2502,8.2186,8.2186,8.2186,8.2316,8.2736,8.2518,8.2267,8.2203,8.3508,8.4646,8.4719,8.6004,8.6978,8.6978,8.7619,8.7802,8.7088,8.7619,8.7802,8.7088,8.6978,8.6978,8.6978,8.6978,8.6978,8.6978,8.6978,8.6978,8.6978,8.6904,8.6481,8.5673,8.549,8.4682,8.3271,8.3271,8.3271,8.3234,8.2517,8.2186,0.0,0.0,0.0,0.0,0.0,0.0,4.7122,4.7709,4.9597,0.0,5.4621,5.5686,6.0743,6.2753,6.3387,6.2778,6.708,0.0,0.0,0.0,0.0,0.0,0.0,0.0,7.3937,7.4013,7.3368,7.1711,7.1597,7.1834,7.2365,7.172,7.1341,7.1341,7.0735,7.0318,7.0128,7.0128,7.0053,6.9901,7.0735,7.1569,7.2441,7.3217,7.4088,7.4884,7.4884,7.4659,7.4305,7.4305,7.4423,7.4643,7.5444,7.6217,7.7089,7.8549,7.9948,8.1197,8.1913,8.2636,8.3264,8.3434,8.3682,8.3973,8.4129,8.438,8.4492,8.3841,8.3358,8.2942,8.2455,8.2267,8.2186,8.2186,8.2186,8.2219,8.2332,8.255,8.2659,8.2267,8.3508,8.4792,8.5453,8.6371,8.6978,8.6978,8.7124,8.7161,8.7014,8.7124,8.7161,8.7014,8.6978,8.6978,8.6978,8.6978,8.6978,8.6978,8.6978,8.6978,8.6978,8.6371,8.5673,8.4866,8.3544,8.2737,8.2443,8.2443,8.2443,8.2443,8.226,8.2186,0.0,0.0,0.0,4.5112,0.0,0.0,0.0,4.6498,4.7591,5.1504,5.1616,5.2296,5.632,5.7721,5.852,5.9287,6.319,6.6947,0.0,0.0,0.0,0.0,0.0,0.0,7.2393,7.2734,7.2469,7.119,7.0318,7.0233,7.1114,7.0318,7.0043,7.0507,7.0128,6.9901,6.9901,6.9901,6.9901,6.9901,7.0735,7.1341,7.1796,7.3027,7.3823,7.4278,7.4695,7.4792,7.4606,7.4606,7.4474,7.4338,7.4954,7.5732,7.6638,7.7866,7.9193,8.0589,8.1651,8.2409,8.3036,8.3926,8.4205,8.4255,8.448,8.4541,8.4467,8.3986,8.3443,8.2927,8.2628,8.238,8.2186,8.2186,8.2186,8.2267,8.2487,8.255,8.255,8.255,8.3357,8.4132,8.4535,8.56,8.6407,8.6407,8.6738,8.6978,8.6978,8.6978,8.6978,8.6978,8.6978,8.6978,8.6978,8.6978,8.6978,8.6978,8.6978,8.6794,8.6407,8.6004,8.5233,8.4022,8.281,8.2186,8.2186,8.2186,8.2186,8.2186,8.2186,8.2186,0.0,0.0,0.0,0.0,0.0,4.5552,0.0,0.0,0.0,4.9784,4.9848,0.0,0.0,0.0,0.0,0.0,0.0,0.0,0.0,0.0,0.0,0.0,0.0,0.0,7.0204,7.0508,7.0802,7.0849,6.8896,6.8252,6.9598,6.8982,6.883,6.9408,6.956,6.9636,6.9636,6.9825,6.9901,6.9901,7.0735,7.1114,7.1152,7.2838,7.3596,7.3634,7.4505,7.4884,7.4884,7.4884,7.4691,7.4447,7.4843,7.5558,7.6444,7.7404,7.8714,8.0216,8.1431,8.2159,8.2755,8.4087,8.4353,8.4281,8.4663,8.4504,8.4179,8.3986,8.3429,8.2889,8.2798,8.2471,8.2186,8.2186,8.2186,8.2316,8.269,8.2534,8.2444,8.2721,8.3071,8.3329,8.3471,8.4756,8.5874,8.6004,8.6591,8.6978,8.6978,8.6978,8.6978,8.6978,8.6978,8.6978,8.6978,8.6978,8.6978,8.6978,8.6978,8.6701,8.604,8.571,8.4976,8.3638,8.27,8.2186,8.2186,8.2186,8.2186,8.2186,8.2186,8.2186,0.0,0.0,0.0,0.0,4.927,0.0,0.0,0.0,4.6498,4.4828,0.0,0.0,0.0,0.0,0.0,0.0,0.0,0.0,5.1334,0.0,0.0,0.0,0.0,0.0,0.0,6.5602,6.6225,6.9759,6.6511,6.5609,6.8574,6.8641,6.8337,6.7693,6.8375,6.8754,6.8754,6.9522,6.9901,6.9901,7.0735,7.1114,7.1152,7.2838,7.3596,7.3634,7.4505,7.4884,7.4884,7.4884,7.4864,7.4878,7.5276,7.5979,7.6931,7.8449,7.9842,8.1075,8.1991,8.2812,8.3413,8.3187,8.3602,8.423,8.4268,8.4255,8.4025,8.3281,8.2957,8.2813,8.2396,8.2235,8.2186,8.2186,8.2186,8.2203,8.2267,8.2565,8.2721,8.2364,8.2639,8.3133,8.3664,8.4903,8.604,8.6775,8.6941,8.6978,8.6978,8.6978,8.6978,8.6978,8.6978,8.6978,8.6978,8.6978,8.6978,8.6978,8.6978,8.6941,8.6885,8.549,8.4646,8.4462,8.2957,8.2186,8.2186,8.2186,8.2186,8.2186,8.2186,8.2186,0.0,0.0,0.0,0.0,0.0,0.0,4.6574,0.0,4.4856,0.0,0.0,0.0,0.0,0.0,0.0,0.0,4.7969,0.0,0.0,0.0,0.0,0.0,0.0,0.0,0.0,0.0,0.0,0.0,6.409,6.3955,6.7702,6.7428,6.7428,6.8072,6.7958,6.811,6.8603,6.8944,6.9408,6.9901,7.0242,7.0394,7.0432,7.1635,7.2431,7.2962,7.3785,7.443,7.4884,7.4884,7.4884,7.4912,7.5069,7.5802,7.6862,7.7821,7.895,8.0147,8.1271,8.188,8.2263,8.306,8.3531,8.3845,8.3845,8.3489,8.3035,8.2636,8.2178,8.1871,8.2141,8.2186,8.2186,8.2186,8.2186,8.2186,8.2186,8.2364,8.246,8.2235,8.2364,8.2555,8.2806,8.4095,8.5306,8.5967,8.6611,8.6978,8.6978,8.6978,8.6978,8.6978,8.6591,8.6481,8.6941,8.6591,8.6518,8.6978,8.6554,8.6297,8.6297,8.5196,8.4609,8.4609,8.3948,8.3361,8.292,8.292,8.2663,8.2186,8.2186,8.2186,5.2544,0.0,0.0,0.0,0.0,0.0,0.0,0.0,0.0,0.0,0.0,0.0,0.0,0.0,0.0,0.0,0.0,4.7068,0.0,0.0,0.0,0.0,0.0,0.0,0.0,0.0,0.0,6.3668,6.1033,6.1375,6.611,6.576,6.6101,6.7542,6.7238,6.7428,6.8262,6.8489,6.902,6.9901,6.9901,6.9901,6.9939,7.0735,7.1569,7.2441,7.3265,7.4088,7.4884,7.4884,7.4884,7.4884,7.4884,7.5723,7.6934,7.7263,7.8257,7.95,8.0454,8.0932,8.1365,8.2941,8.3354,8.3297,8.3384,8.2736,8.1944,8.1806,8.1407,8.1122,8.1709,8.2039,8.2186,8.2186,8.2186,8.2186,8.2186,8.2186,8.2186,8.2186,8.2186,8.2186,8.2186,8.3398,8.4719,8.571,8.6518,8.6978,8.6978,8.6978,8.6978,8.6978,8.6481,8.6371,8.6941,8.6481,8.6371,8.6941,8.6444,8.6114,8.6114,8.5343,8.4939,8.4939,8.4719,8.4205,8.3381,8.3381,8.2994,8.2186,8.2186,8.2186,0.0,0.0,0.0,5.1096,0.0,0.0,0.0,0.0,4.6562,0.0,0.0,0.0,0.0,0.0,0.0,0.0,0.0,0.0,0.0,0.0,0.0,0.0,0.0,0.0,0.0,0.0,5.5447,6.1012,5.6965,5.6999,6.3381,6.3705,6.4084,6.5002,6.576,6.6556,6.7428,6.8224,6.902,6.9901,6.9901,6.9901,6.9939,7.0735,7.1569,7.2441,7.3265,7.4088,7.4884,7.4884,7.4884,7.4884,7.4884,7.5908,7.7386,7.7386,7.8457,7.9887,7.9936,8.0428,8.132,8.2595,8.2765,8.2494,8.2835,8.208,8.1041,8.059,8.0727,8.1012,8.1048,8.1636,8.2186,8.2186,8.2186,8.2186,8.2186,8.2186,8.2186,8.2186,8.2186,8.2186,8.2186,8.3104,8.4535,8.6611,8.6978,8.6978,8.6978,8.6978,8.6978,8.6978,8.6978,8.6978,8.6978,8.6978,8.6978,8.6978,8.6978,8.6941,8.6941,8.6187,8.5747,8.5747,8.5013,8.4205,8.3381,8.3381,8.2994,8.2186,8.2186,8.2186,0.0,0.0,6.2416,5.6262,0.0,0.0,0.0,0.0,0.0,0.0,0.0,0.0,0.0,0.0,0.0,0.0,0.0,0.0,0.0,0.0,0.0,0.0,0.0,0.0,0.0,0.0,0.0,5.6949,5.6178,5.7414,6.1713,6.3562,6.4614,6.488,6.5675,6.6253,6.6556,6.739,6.8224,6.9058,6.9626,7.0166,7.0697,7.1,7.1862,7.3227,7.3482,7.4088,7.4884,7.4884,7.4722,7.4557,7.5074,7.5833,7.6672,7.7187,7.8457,7.9865,7.9543,7.9812,8.0438,8.123,8.1625,8.1895,8.2403,8.1744,8.0711,8.0153,8.0102,8.0461,8.1525,8.2003,8.2186,8.2186,8.2186,8.2186,8.2186,8.2186,8.2186,8.2186,8.2186,8.2186,8.2186,8.248,8.3728,8.6574,8.6978,8.6721,8.6023,8.593,8.6004,8.6187,8.5747,8.584,8.6904,8.6978,8.6978,8.6978,8.6978,8.6978,8.6978,8.6738,8.6591,8.6591,8.6334,8.5783,8.4976,8.4976,8.4572,8.3765,8.3251,8.27,6.3695,6.4935,0.0,5.961,5.818,0.0,5.0907,0.0,0.0,0.0,0.0,0.0,0.0,0.0,0.0,0.0,0.0,0.0,0.0,4.4012,0.0,0.0,0.0,0.0,0.0,0.0,5.095,5.3599,5.4036,5.5579,0.0,0.0,6.3524,6.4425,6.5524,6.6404,6.6973,6.7542,6.8224,6.9058,6.9636,7.0166,7.0697,7.0962,7.1862,7.3189,7.3482,7.4088,7.4884,7.4884,7.4659,7.4342,7.4858,7.5527,7.6306,7.7105,7.827,7.9392,7.8916,7.9078,7.9531,8.0153,8.048,8.0714,8.134,8.0706,7.9757,7.9619,7.9674,8.0073,8.1305,8.1893,8.2186,8.2186,8.2186,8.2186,8.2186,8.2186,8.2186,8.2186,8.2186,8.2186,8.2186,8.2186,8.3104,8.5747,8.6611,8.6664,8.5673,8.5783,8.604,8.6224,8.5747,8.5894,8.6904,8.6978,8.6978,8.6978,8.6978,8.6978,8.6978,8.6978,8.7271,8.7822,8.7271,8.6885,8.6628,8.6094,8.538,8.4609,8.4058,8.3398]}]]